Date StartTime U_cm/s V_cm/s W_cm/s Ustd_cm/s Vstd_cm/s Wstd_cm/s Uvar_(cm/s)^2 Vvar_(cm/s)^2 Wvar_(cm/s)^2 KE_(m/s)^2 TurbulentKE_(m/s)^2 HorizWindSpeed_cm/s FrictionSpeec_cm/s DragCoef SpeedOfSound_m/s SonicTemperature_C Pressure_mb 
10/29/2014  00:00:00     -128.619      -61.731       -5.282       32.831       21.721       16.516     1077.844      471.815      272.774        1.110        0.091      142.665       16.140        0.013      337.781        9.986      866.512
10/29/2014  00:01:00     -114.024      -25.241      -12.102       24.076       17.640       17.091      579.664      311.173      292.089        0.748        0.059      116.785       14.716        0.016      337.756        9.945      866.509
10/29/2014  00:02:00     -113.523      -46.820      -12.333       19.373       22.312       14.087      375.306      497.813      198.456        0.815        0.054      122.799       10.715        0.008      337.827       10.064      866.516
10/29/2014  00:03:00     -108.362      -59.309       -7.946       26.582       20.672       19.454      706.581      427.335      378.470        0.842        0.076      123.531       15.709        0.016      337.799       10.016      866.524
10/29/2014  00:04:00     -138.264      -72.500       -4.701       30.391       21.016       19.563      923.619      441.652      382.694        1.307        0.087      156.119       17.099        0.012      337.766        9.963      866.544
10/29/2014  00:05:00     -101.461      -52.080       -5.577       27.939       22.183       18.118      780.611      492.094      328.266        0.732        0.080      114.046       14.609        0.016      337.764        9.960      866.551
10/29/2014  00:06:00      -90.513      -67.079      -16.514       20.659       19.071       13.742      426.790      363.691      188.839        0.697        0.049      112.660        8.825        0.006      337.878       10.149      866.554
10/29/2014  00:07:00      -94.279      -43.084      -12.440       18.432       18.631       12.809      339.734      347.107      164.076        0.588        0.043      103.657       12.016        0.013      337.850       10.102      866.559
10/29/2014  00:08:00      -85.809      -19.638       -5.521       24.469       14.501       12.762      598.745      210.278      162.860        0.438        0.049       88.028       14.492        0.027      337.911       10.205      866.556
10/29/2014  00:09:00      -62.410      -34.710      -10.717       13.650       12.141        9.093      186.335      147.401       82.678        0.282        0.021       71.413        7.458        0.011      337.887       10.165      866.554
10/29/2014  00:10:00      -69.157      -34.670       -9.144       15.102        9.823        7.407      228.074       96.493       54.857        0.322        0.019       77.361        4.693        0.004      337.911       10.205      866.567
10/29/2014  00:11:00      -97.482      -25.361      -15.601       13.413       13.594        8.857      179.898      184.787       78.452        0.542        0.022      100.727        6.873        0.005      338.036       10.414      866.576
10/29/2014  00:12:00      -91.090      -14.206      -16.387       12.165       17.265        9.049      147.989      298.065       81.889        0.465        0.026       92.191        7.908        0.007      337.971       10.306      866.595
10/29/2014  00:13:00      -98.569      -52.931      -12.555       15.992       18.263       11.408      255.734      333.537      130.153        0.670        0.036      111.882        7.108        0.004      337.921       10.222      866.605
10/29/2014  00:14:00     -120.536      -66.828      -13.776       14.983       16.117       12.276      224.484      259.758      150.710        0.991        0.032      137.822        9.046        0.004      337.842       10.089      866.625
10/29/2014  00:15:00     -118.624      -37.041      -15.090       14.397       15.249        9.674      207.268      232.518       93.590        0.810        0.027      124.273        5.198        0.002      337.799       10.017      866.649
10/29/2014  00:16:00      -96.741      -32.834      -16.257       12.625       17.725       13.249      159.390      314.173      175.534        0.568        0.032      102.162        9.312        0.008      337.826       10.061      866.662
10/29/2014  00:17:00     -112.133      -41.294      -14.200       13.675       11.026        6.543      186.993      121.576       42.805        0.742        0.018      119.495        2.822        0.001      337.832       10.072      866.672
10/29/2014  00:18:00     -127.883      -34.661      -16.528       11.015       11.176        8.579      121.328      124.899       73.605        0.907        0.016      132.496        3.696        0.001      337.846       10.096      866.685
10/29/2014  00:19:00     -121.370      -26.836      -18.284       12.155        9.938       10.293      147.755       98.768      105.950        0.807        0.018      124.301        5.623        0.002      337.799       10.015      866.700
10/29/2014  00:20:00     -126.921      -41.639       -7.517       20.990       20.926       15.223      440.564      437.887      231.737        0.950        0.056      133.577       12.029        0.008      337.721        9.886      866.721
10/29/2014  00:21:00      -99.292      -39.868       -3.386       29.195       21.571       14.074      852.342      465.320      198.066        0.649        0.076      106.997       15.385        0.021      337.652        9.771      866.722
10/29/2014  00:22:00      -24.712      -19.860        5.220       27.933       19.953       16.423      780.270      398.112      269.706        0.124        0.072       31.704       10.741        0.115      337.636        9.745      866.711
10/29/2014  00:23:00      -46.101      -27.508        1.520       30.884       20.644       14.167      953.831      426.183      200.694        0.223        0.079       53.684       13.264        0.061      337.610        9.701      866.700
10/29/2014  00:24:00      -52.766      -41.761       -3.627       22.503       17.974       15.702      506.395      323.073      246.559        0.281        0.054       67.292       12.177        0.033      337.620        9.718      866.698
10/29/2014  00:25:00      -68.513      -45.366       -1.388       21.000       18.963       17.796      440.981      359.588      316.705        0.394        0.056       82.172       12.455        0.023      337.514        9.538      866.698
10/29/2014  00:26:00      -76.527      -47.729       -0.521       24.792       20.827       15.223      614.656      433.764      231.729        0.471        0.064       90.191       14.006        0.024      337.513        9.537      866.697
10/29/2014  00:27:00      -75.221      -53.174       -5.051       39.600       21.663       15.097     1568.125      469.297      227.904        0.539        0.113       92.118       16.315        0.031      337.517        9.544      866.691
10/29/2014  00:28:00      -86.373      -60.073       -8.549       16.089       23.918       14.238      258.856      572.078      202.721        0.609        0.052      105.210        8.325        0.006      337.736        9.912      866.679
10/29/2014  00:29:00      -87.502      -41.433      -13.264        8.712       10.963        8.700       75.894      120.179       75.690        0.491        0.014       96.816        1.837        0.000      337.781        9.987      866.672
10/29/2014  00:30:00      -97.645      -38.249      -10.913        9.982       13.111        8.235       99.645      171.904       67.820        0.573        0.017      104.869        5.469        0.003      337.785        9.994      866.674
10/29/2014  00:31:00     -108.115      -48.538       -7.518       11.726       11.497        9.854      137.488      132.187       97.101        0.723        0.018      118.511        5.955        0.003      337.727        9.895      866.678
10/29/2014  00:32:00     -111.419      -32.207       -8.487       12.448       12.098        8.074      154.948      146.363       65.184        0.694        0.018      115.981        5.987        0.003      337.708        9.865      866.673
10/29/2014  00:33:00     -110.212      -34.217      -12.978        9.144       11.573        6.946       83.609      133.923       48.251        0.688        0.013      115.401        4.698        0.002      337.808       10.031      866.666
10/29/2014  00:34:00      -96.604       -9.522      -14.641        8.306        9.613        7.322       68.990       92.419       53.609        0.493        0.011       97.072        4.232        0.002      337.833       10.073      866.661
10/29/2014  00:35:00      -43.488        1.167       -7.502       20.408       11.875        6.430      416.482      141.004       41.341        0.127        0.030       43.503        8.581        0.039      338.133       10.578      866.652
10/29/2014  00:36:00       -7.917       11.483       -4.861       10.987       11.506        9.235      120.706      132.378       85.284        0.028        0.017       13.947        7.184        0.265      338.735       11.588      866.649
10/29/2014  00:37:00      -12.309       -3.125        2.116       13.936       20.804        5.883      194.223      432.814       34.606        0.041        0.033       12.700        6.602        0.270      338.610       11.378      866.643
10/29/2014  00:38:00      -47.678      -28.449       -6.827       13.567        8.248        7.224      184.076       68.038       52.180        0.172        0.015       55.521        4.902        0.008      337.839       10.085      866.639
10/29/2014  00:39:00      -60.318      -28.641      -13.599        6.951        6.003        5.434       48.313       36.041       29.524        0.238        0.006       66.773        2.655        0.002      337.745        9.928      866.632
10/29/2014  00:40:00      -47.658      -31.760      -12.997       12.014        9.052        7.171      144.340       81.944       51.426        0.186        0.014       57.271        3.499        0.004      337.797       10.015      866.628
10/29/2014  00:41:00      -61.538      -34.328       -5.385        8.659        7.095        6.544       74.976       50.345       42.820        0.258        0.008       70.465        2.243        0.001      337.745        9.927      866.634
10/29/2014  00:42:00      -79.164      -39.081      -11.298        7.742        9.213        5.798       59.942       84.876       33.619        0.405        0.009       88.285        3.065        0.001      337.710        9.867      866.620
10/29/2014  00:43:00      -74.348      -27.611      -10.934        8.998        8.365        4.779       80.960       69.977       22.843        0.329        0.009       79.309        2.641        0.001      337.670        9.802      866.598
10/29/2014  00:44:00      -44.798      -21.408       -5.915       11.562        5.486        5.088      133.674       30.099       25.887        0.134        0.009       49.650        6.650        0.018      337.748        9.933      866.579
10/29/2014  00:45:00      -22.846      -20.663      -10.444        9.688        4.415        5.113       93.848       19.492       26.138        0.060        0.007       30.804        3.668        0.014      337.817       10.046      866.568
10/29/2014  00:46:00      -43.616      -11.884       -8.133       19.467       11.049        5.573      378.964      122.086       31.055        0.132        0.027       45.206        5.225        0.013      337.808       10.031      866.561
10/29/2014  00:47:00     -101.872        6.760      -13.357       13.374        6.976        7.643      178.874       48.660       58.414        0.544        0.014      102.096        7.148        0.005      337.509        9.531      866.563
10/29/2014  00:48:00     -106.469       -0.788      -17.532       10.293        6.707        6.080      105.947       44.984       36.971        0.592        0.009      106.472        2.622        0.001      337.616        9.710      866.566
10/29/2014  00:49:00      -65.720       -8.734       -9.301       23.346       11.816       13.195      545.031      139.630      174.112        0.267        0.043       66.298       12.371        0.035      337.699        9.850      866.561
10/29/2014  00:50:00      -47.845      -26.730       -8.174       17.269        9.808        7.984      298.224       96.200       63.749        0.176        0.023       54.805        6.120        0.012      337.536        9.576      866.561
10/29/2014  00:51:00      -70.493      -25.643      -11.463       11.954       14.782       10.040      142.905      218.509      100.804        0.311        0.023       75.012        6.704        0.008      337.424        9.387      866.562
10/29/2014  00:52:00      -98.455      -50.966       -9.653       23.935       20.593       15.091      572.893      424.066      227.747        0.680        0.061      110.864        7.869        0.005      337.275        9.138      866.565
10/29/2014  00:53:00      -92.531      -22.021       -6.112       34.112       26.241       20.684     1163.655      688.604      427.836        0.568        0.114       95.115       17.157        0.033      337.234        9.070      866.573
10/29/2014  00:54:00     -110.236      -15.549      -11.077       39.737       24.306       19.950     1579.068      590.766      398.000        0.754        0.128      111.327       18.505        0.028      337.287        9.158      866.584
10/29/2014  00:55:00     -129.969      -18.667      -15.822       38.083       27.140       22.248     1450.297      736.580      494.970        1.009        0.134      131.302       19.107        0.021      337.283        9.153      866.590
10/29/2014  00:56:00      -85.868      -18.587       -3.050       32.239       21.930       18.445     1039.326      480.937      340.202        0.479        0.093       87.857       17.366        0.039      337.220        9.048      866.600
10/29/2014  00:57:00      -79.017      -19.817      -13.465       22.995       26.823       17.416      528.779      719.489      303.314        0.418        0.078       81.464       14.640        0.032      337.329        9.229      866.605
10/29/2014  00:58:00     -103.726       -7.169      -19.353       22.261       19.889       17.159      495.539      395.561      294.445        0.618        0.059      103.973       11.131        0.011      337.334        9.237      866.619
10/29/2014  00:59:00      -93.067      -31.024       -9.181       28.455       29.016       18.764      809.678      841.929      352.084        0.586        0.100       98.102       17.707        0.033      337.307        9.192      866.629
10/29/2014  01:00:00      -79.911      -16.926      -12.555       28.292       24.235       16.483      800.434      587.342      271.692        0.424        0.083       81.684       14.335        0.031      337.316        9.207      866.630
10/29/2014  01:01:00      -56.101       -5.642      -10.319       13.718       18.231       11.579      188.185      332.378      134.066        0.197        0.033       56.384        5.631        0.010      337.404        9.353      866.627
10/29/2014  01:02:00      -57.328       -6.788      -14.127        9.790       21.058        9.552       95.835      443.429       91.245        0.208        0.032       57.729        8.517        0.022      337.673        9.805      866.633
10/29/2014  01:03:00      -37.278      -39.589       -5.128       19.806       22.073       13.273      392.277      487.196      176.172        0.202        0.053       54.378       10.945        0.041      337.445        9.425      866.648
10/29/2014  01:04:00      -79.783      -54.160      -11.548       15.019       15.845       10.728      225.565      251.052      115.098        0.501        0.030       96.430        6.188        0.004      337.366        9.290      866.655
10/29/2014  01:05:00      -86.307      -24.841      -12.631       12.258       18.109        8.617      150.268      327.931       74.252        0.439        0.028       89.810        9.261        0.011      337.363        9.286      866.654
10/29/2014  01:06:00      -52.060        5.284      -15.115       14.952       11.397       10.199      223.552      129.893      104.011        0.171        0.023       52.327        7.810        0.022      337.392        9.335      866.638
10/29/2014  01:07:00      -25.429        7.773        1.487       28.482       10.223       12.548      811.204      104.503      157.456        0.089        0.054       26.590       12.009        0.204      337.556        9.610      866.634
10/29/2014  01:08:00       16.006       -3.996        1.153       11.183        5.170        6.507      125.062       26.734       42.347        0.023        0.010       16.497        3.972        0.058      337.675        9.807      866.631
10/29/2014  01:09:00       -0.767      -20.561        9.610        8.807        9.006        8.379       77.559       81.112       70.201        0.037        0.011       20.575        4.455        0.047      337.680        9.818      866.647
10/29/2014  01:10:00      -27.246      -23.946        5.380       25.170       15.147       13.862      633.516      229.421      192.166        0.120        0.053       36.274       11.909        0.108      337.398        9.345      866.663
10/29/2014  01:11:00      -29.487      -27.893        0.657       26.001       16.249       13.044      676.066      264.016      170.144        0.138        0.056       40.589        6.627        0.027      337.385        9.323      866.666
10/29/2014  01:12:00        4.664      -26.054        0.205        8.517       21.021       11.009       72.545      441.874      121.203        0.067        0.032       26.468        4.262        0.026      337.586        9.660      866.660
10/29/2014  01:13:00        8.859        2.323       -5.519        7.139        8.199       10.142       50.960       67.232      102.853        0.017        0.011        9.159        4.876        0.283      337.540        9.584      866.647
10/29/2014  01:14:00      -29.580      -22.262       -5.111       14.902       11.530        8.179      222.076      132.946       66.896        0.091        0.021       37.022        7.836        0.045      337.599        9.682      866.639
10/29/2014  01:15:00      -46.161      -34.267       -3.159       24.689       13.159       10.337      609.546      173.161      106.847        0.210        0.044       57.490        8.031        0.020      337.467        9.461      866.651
10/29/2014  01:16:00      -85.532      -43.036       -1.817       35.950       22.383       17.815     1292.388      500.991      317.357        0.564        0.106       95.749       17.464        0.033      337.285        9.156      866.671
10/29/2014  01:17:00     -119.951      -47.642      -11.744       15.570       20.779       13.244      242.438      431.783      175.403        0.882        0.042      129.066        8.106        0.004      337.388        9.328      866.680
10/29/2014  01:18:00     -100.242      -32.890      -10.793       14.596       17.591       14.023      213.038      309.455      196.631        0.598        0.036      105.499        8.925        0.007      337.313        9.203      866.668
10/29/2014  01:19:00     -101.777      -13.582       -9.502       14.124       21.536       12.613      199.479      463.817      159.099        0.573        0.041      102.680        7.771        0.006      337.320        9.216      866.662
10/29/2014  01:20:00     -104.925        4.208      -14.150       11.840        9.281        7.502      140.191       86.135       56.287        0.575        0.014      105.010        0.999        0.000      337.275        9.139      866.661
10/29/2014  01:21:00      -90.634        3.017      -17.435        9.590        9.571        5.297       91.962       91.614       28.060        0.437        0.011       90.684        3.626        0.002      337.408        9.361      866.657
10/29/2014  01:22:00      -80.406       -9.716      -11.367       18.542       12.683       12.129      343.792      160.860      147.125        0.367        0.033       80.991        9.154        0.013      337.375        9.306      866.669
10/29/2014  01:23:00      -84.198       -5.266      -11.707       15.943       25.281       12.565      254.179      639.110      157.878        0.415        0.053       84.362        9.855        0.014      337.148        8.927      866.692
10/29/2014  01:24:00      -59.130      -16.711       -4.856       29.344       25.092       13.289      861.077      629.628      176.607        0.273        0.083       61.446       12.281        0.040      337.022        8.715      866.709
10/29/2014  01:25:00      -27.882        9.486       -6.340       15.913       19.322        9.297      253.224      373.349       86.430        0.081        0.036       29.452        7.517        0.065      337.103        8.850      866.723
10/29/2014  01:26:00      -45.009        0.771       -9.348       12.561       23.161        9.302      157.771      536.445       86.525        0.145        0.039       45.016        7.127        0.025      337.324        9.220      866.730
10/29/2014  01:27:00      -52.063      -24.429      -11.785       19.619       25.873       12.890      384.896      669.417      166.149        0.233        0.061       57.509        7.392        0.017      337.288        9.161      866.736
10/29/2014  01:28:00      -81.299      -52.151      -12.396       19.003       24.257       12.505      361.096      588.394      156.371        0.529        0.055       96.588        9.522        0.010      337.083        8.817      866.750
10/29/2014  01:29:00      -71.080       -9.057       -7.224       23.326       15.039       11.929      544.104      226.174      142.293        0.305        0.046       71.655        9.123        0.016      337.142        8.916      866.754
10/29/2014  01:30:00      -49.640       -6.903       -7.304       14.745       11.167        6.428      217.419      124.694       41.320        0.147        0.019       50.118        3.869        0.006      337.150        8.930      866.753
10/29/2014  01:31:00      -36.616      -25.883       -2.977       10.134       15.292        8.007      102.700      233.830       64.119        0.121        0.020       44.841        4.745        0.011      337.331        9.233      866.754
10/29/2014  01:32:00      -51.709      -16.149       -5.507       12.374        8.834        9.247      153.121       78.046       85.505        0.164        0.016       54.172        6.582        0.015      337.248        9.095      866.762
10/29/2014  01:33:00      -53.164      -18.739       -8.767        9.634       10.858        6.945       92.813      117.901       48.227        0.176        0.013       56.370        6.220        0.012      337.099        8.844      866.768
10/29/2014  01:34:00      -39.910       -5.895       -4.167       11.039        6.614        4.472      121.854       43.750       19.994        0.092        0.009       40.343        2.736        0.005      337.118        8.877      866.767
10/29/2014  01:35:00        8.985       21.373       -4.467       14.117       16.313        5.750      199.301      266.110       33.058        0.053        0.025       23.185        5.278        0.052      337.572        9.637      866.756
10/29/2014  01:36:00      -15.627       -6.624        0.530       19.162        9.513        8.793      367.201       90.506       77.324        0.041        0.027       16.973        9.590        0.319      337.451        9.434      866.752
10/29/2014  01:37:00      -86.616      -21.978      -17.284       22.548       18.155       10.609      508.430      329.622      112.556        0.462        0.048       89.361        7.682        0.007      336.889        8.494      866.762
10/29/2014  01:38:00      -92.832       -9.058      -11.826       23.957       16.304       10.973      573.959      265.805      120.398        0.490        0.048       93.273        8.490        0.008      336.811        8.364      866.776
10/29/2014  01:39:00      -38.784      -17.128        0.554       16.208       10.521        5.529      262.688      110.691       30.571        0.110        0.020       42.398        4.195        0.010      337.136        8.908      866.784
10/29/2014  01:40:00      -16.238      -18.323       -3.528       10.332        6.093        5.245      106.758       37.130       27.505        0.039        0.009       24.483        5.281        0.047      337.401        9.348      866.777
10/29/2014  01:41:00      -99.226      -25.089      -15.443       30.855       10.664        7.757      952.006      113.728       60.172        0.592        0.056      102.349        5.822        0.003      336.991        8.663      866.774
10/29/2014  01:42:00     -152.119      -42.751      -17.795       12.435       17.933       10.811      154.626      321.596      116.868        1.294        0.030      158.012        6.876        0.002      336.876        8.471      866.781
10/29/2014  01:43:00     -107.047      -31.598      -12.280       30.203       15.850       13.295      912.206      251.230      176.762        0.697        0.067      111.613       14.614        0.017      336.807        8.358      866.789
10/29/2014  01:44:00      -47.125      -24.333       -9.796       10.419       10.926        7.033      108.551      119.367       49.459        0.159        0.014       53.037        3.524        0.004      336.920        8.546      866.773
10/29/2014  01:45:00      -44.356      -34.428       -4.969       12.434        9.573        6.793      154.611       91.649       46.139        0.173        0.015       56.149        1.920        0.001      337.100        8.845      866.756
10/29/2014  01:46:00      -79.545      -31.731      -10.219       15.963       11.160        9.983      254.811      124.546       99.659        0.396        0.024       85.641        7.608        0.008      337.130        8.896      866.743
10/29/2014  01:47:00      -99.435      -38.539       -7.243       14.632       16.540       13.561      214.092      273.558      183.890        0.605        0.034      106.642       12.547        0.014      337.159        8.944      866.742
10/29/2014  01:48:00     -118.511      -32.182       -8.096       13.038       16.834       11.434      169.991      283.389      130.725        0.787        0.029      122.803        4.909        0.002      337.001        8.679      866.750
10/29/2014  01:49:00     -119.044      -53.086      -13.893       14.060       14.242       10.274      197.679      202.823      105.564        0.884        0.025      130.344        6.824        0.003      336.838        8.409      866.748
10/29/2014  01:50:00     -113.069      -51.690      -10.917       25.040       20.223       14.322      627.003      408.989      205.110        0.841        0.062      124.324        9.541        0.006      336.964        8.618      866.742
10/29/2014  01:51:00      -75.719      -44.674        4.771       37.074       27.935       18.002     1374.497      780.365      324.057        0.511        0.124       87.915       20.907        0.057      336.865        8.453      866.732
10/29/2014  01:52:00      -77.057      -41.861       -2.570       22.821       18.890       12.429      520.783      356.818      154.486        0.436        0.052       87.694       11.396        0.017      336.890        8.496      866.730
10/29/2014  01:53:00      -86.341      -30.087       -6.333       11.669       13.800        8.766      136.170      190.439       76.838        0.440        0.020       91.433        6.913        0.006      336.922        8.547      866.730
10/29/2014  01:54:00      -82.570      -10.916       -9.160       12.159        7.824        8.616      147.829       61.209       74.229        0.365        0.014       83.288        7.165        0.007      336.920        8.544      866.718
10/29/2014  01:55:00      -62.679      -16.079       -8.079       10.500       10.924        7.683      110.249      119.324       59.023        0.227        0.014       64.709        5.936        0.008      336.989        8.659      866.715
10/29/2014  01:56:00      -74.653       -6.468      -10.597        8.278        7.021        6.040       68.517       49.297       36.484        0.294        0.008       74.933        1.736        0.001      336.977        8.638      866.718
10/29/2014  01:57:00      -84.131       -6.393      -13.905       11.536        8.945        6.688      133.088       80.013       44.724        0.379        0.013       84.374        6.127        0.005      337.198        9.009      866.733
10/29/2014  01:58:00      -63.948       -0.351      -12.778       17.210        7.770        8.063      296.187       60.373       65.011        0.234        0.021       63.949        5.520        0.007      337.374        9.304      866.732
10/29/2014  01:59:00      -47.234        0.282       -8.229       10.763        8.539       10.160      115.849       72.912      103.232        0.130        0.015       47.235        7.796        0.027      337.318        9.211      866.734
10/29/2014  02:00:00      -51.275      -15.328       -7.963       11.903       12.241       10.557      141.691      149.839      111.458        0.167        0.020       53.517        8.318        0.024      337.311        9.201      866.749
10/29/2014  02:01:00      -45.832      -33.991       -6.955       11.126       11.380        8.239      123.791      129.509       67.874        0.181        0.016       57.061        6.320        0.012      337.233        9.069      866.769
10/29/2014  02:02:00      -62.377      -28.281      -11.373       18.087       17.259       12.649      327.153      297.868      159.993        0.280        0.039       68.489       11.936        0.030      337.156        8.938      866.788
10/29/2014  02:03:00      -79.488      -13.436      -13.684       16.615       28.674       14.659      276.069      822.183      214.891        0.400        0.066       80.616        9.679        0.014      336.985        8.654      866.814
10/29/2014  02:04:00      -59.653      -27.422      -10.514       14.483       17.735       15.693      209.754      314.531      246.266        0.260        0.039       65.654        7.332        0.012      336.878        8.475      866.832
10/29/2014  02:05:00      -86.239       13.957      -19.797       14.954       12.890       12.522      223.629      166.162      156.802        0.429        0.027       87.361        5.207        0.004      337.067        8.791      866.851
10/29/2014  02:06:00      -61.696      -29.161      -12.451       15.265       16.199       10.628      233.010      262.407      112.964        0.271        0.030       68.241        8.033        0.014      336.896        8.506      866.866
10/29/2014  02:07:00      -56.486      -26.573       -5.209       18.084       15.003       11.162      327.037      225.103      124.591        0.230        0.034       62.424       10.677        0.029      336.834        8.403      866.860
10/29/2014  02:08:00      -57.079      -42.991       -7.464       16.657       12.534        9.985      277.467      157.103       99.696        0.285        0.027       71.458        7.059        0.010      336.835        8.404      866.838
10/29/2014  02:09:00      -58.583      -46.782      -12.067       20.429       15.229       10.796      417.360      231.917      116.552        0.327        0.038       74.970        8.858        0.014      336.985        8.653      866.815
10/29/2014  02:10:00      -63.257      -34.816       -1.056       28.717       17.109       11.531      824.660      292.728      132.968        0.323        0.063       72.206       12.292        0.029      337.000        8.678      866.799
10/29/2014  02:11:00      -47.481      -45.070        1.900       21.266       20.669       12.889      452.233      427.209      166.128        0.267        0.052       65.465       11.876        0.033      337.105        8.855      866.790
10/29/2014  02:12:00      -56.883      -26.017       -3.119       23.470       14.331       10.455      550.834      205.375      109.311        0.239        0.043       62.550        3.507        0.003      337.109        8.861      866.781
10/29/2014  02:13:00      -38.741       11.927        1.512       16.350       23.705       14.273      267.317      561.912      203.712        0.134        0.052       40.536       12.590        0.096      336.953        8.598      866.791
10/29/2014  02:14:00      -90.599        3.882      -15.651       26.587       17.509       13.897      706.895      306.551      193.140        0.484        0.060       90.682       15.378        0.029      336.921        8.545      866.804
10/29/2014  02:15:00      -94.871       -2.223      -12.931       19.215       16.245       11.471      369.227      263.889      131.582        0.497        0.038       94.897        2.922        0.001      336.922        8.547      866.809
10/29/2014  02:16:00      -68.946      -25.340       -5.628       24.729       23.946       17.255      611.524      573.401      297.741        0.345        0.074       73.456       14.978        0.042      336.897        8.506      866.825
10/29/2014  02:17:00      -51.673      -29.353       -1.572       44.050       22.790       15.232     1940.430      519.380      232.019        0.311        0.135       59.428       15.393        0.067      336.878        8.475      866.843
10/29/2014  02:18:00      -99.269      -44.697       -3.978       31.564       27.765       17.574      996.266      770.884      308.857        0.697        0.104      108.868       14.895        0.019      336.903        8.516      866.860
10/29/2014  02:19:00     -110.985      -28.167       -9.961       28.333       27.259       19.317      802.738      743.053      373.147        0.756        0.096      114.504       17.154        0.022      336.695        8.170      866.870
10/29/2014  02:20:00      -96.653      -41.406       -2.247       27.608       25.519       14.452      762.219      651.218      208.858        0.634        0.081      105.149       13.625        0.017      336.672        8.133      866.860
10/29/2014  02:21:00      -59.861      -47.114        5.478       38.497       30.117       20.484     1482.051      907.062      419.615        0.432        0.140       76.178       21.055        0.076      336.760        8.279      866.837
10/29/2014  02:22:00     -115.382      -41.464       -2.733       52.104       24.456       16.977     2714.780      598.114      288.204        0.932        0.180      122.606       20.437        0.028      336.732        8.231      866.829
10/29/2014  02:23:00     -121.911      -36.337       -4.313       52.029       34.553       27.896     2706.980     1193.914      778.182        1.044        0.234      127.211       26.180        0.042      336.587        7.989      866.833
10/29/2014  02:24:00     -161.446      -44.212       -2.948       38.016       37.235       24.767     1445.205     1386.435      613.419        1.574        0.172      167.390       23.593        0.020      336.573        7.966      866.850
10/29/2014  02:25:00     -125.579      -86.492       -1.640       44.903       29.926       25.823     2016.263      895.565      666.832        1.342        0.179      152.483       24.326        0.025      336.681        8.145      866.856
10/29/2014  02:26:00     -136.181      -71.039       -6.991       28.672       24.500       20.294      822.062      600.239      411.865        1.274        0.092      153.596       16.059        0.011      336.943        8.583      866.850
10/29/2014  02:27:00      -89.898      -40.854       -2.987       29.833       29.037       19.336      890.033      843.145      373.880        0.593        0.105       98.745       16.501        0.028      336.956        8.606      866.823
10/29/2014  02:28:00      -90.437      -33.438       -0.447       39.600       22.424       18.671     1568.163      502.854      348.604        0.586        0.121       96.421       19.220        0.040      337.023        8.716      866.810
10/29/2014  02:29:00     -102.726      -25.859       -6.512       23.505       17.689       18.117      552.484      312.884      328.229        0.623        0.060      105.931       16.126        0.023      336.857        8.440      866.806
10/29/2014  02:30:00     -108.269      -36.281      -14.930       17.585       18.187       10.360      309.218      330.752      107.322        0.700        0.037      114.186        5.958        0.003      336.897        8.507      866.816
10/29/2014  02:31:00     -121.940      -33.538      -18.390        8.660       12.861        8.011       74.991      165.411       64.184        0.832        0.015      126.468        1.044        0.000      336.949        8.593      866.829
10/29/2014  02:32:00     -131.414      -43.953      -10.472       13.019       11.155        7.627      169.484      124.438       58.171        0.983        0.018      138.569        6.454        0.002      336.897        8.506      866.842
10/29/2014  02:33:00     -129.044      -39.826      -10.851       17.697       17.686       11.137      313.196      312.793      124.029        0.955        0.038      135.050        9.950        0.005      336.841        8.414      866.847
10/29/2014  02:34:00     -152.914       -7.953      -19.836       17.529       19.528       12.325      307.280      381.331      151.912        1.234        0.042      153.120        8.469        0.003      336.785        8.320      866.852
10/29/2014  02:35:00     -111.131      -12.938      -12.899       32.712       26.439       16.885     1070.067      699.030      285.104        0.737        0.103      111.882       15.491        0.019      336.769        8.294      866.871
10/29/2014  02:36:00      -72.706      -38.791       -3.942       24.405       25.825       15.107      595.620      666.929      228.224        0.415        0.075       82.407        6.840        0.007      336.641        8.080      866.897
10/29/2014  02:37:00     -116.589       -2.291      -15.197       39.579       40.373       22.631     1566.483     1629.942      512.175        0.877        0.185      116.611       18.625        0.026      336.555        7.936      866.919
10/29/2014  02:38:00     -127.577       16.586       -6.719       44.777       31.615       22.336     2004.992      999.492      498.913        1.005        0.175      128.651       16.535        0.017      336.577        7.972      866.927
10/29/2014  02:39:00     -100.436       37.846        0.695       39.972       23.828       19.577     1597.751      567.766      383.275        0.703        0.127      107.330        8.758        0.007      336.866        8.455      866.924
10/29/2014  02:40:00      -83.881       11.282       -8.434       34.607       28.482       19.465     1197.614      811.206      378.890        0.481        0.119       84.637       14.963        0.031      336.917        8.540      866.917
10/29/2014  02:41:00      -81.982      -30.074       -9.388       17.130       17.754       14.121      293.453      315.207      199.397        0.426        0.040       87.324        8.918        0.010      336.586        7.988      866.924
10/29/2014  02:42:00      -77.059      -54.636      -13.250       24.026       22.616       13.341      577.271      511.470      177.969        0.518        0.063       94.462       10.848        0.013      336.503        7.848      866.924
10/29/2014  02:43:00      -71.431      -24.627       -2.352       43.639       22.587       21.600     1904.377      510.169      466.576        0.430        0.144       75.557       25.373        0.113      336.464        7.782      866.920
10/29/2014  02:44:00     -111.439      -51.182      -15.919       26.826       19.308       19.432      719.632      372.784      377.588        0.838        0.074      122.631        5.750        0.002      336.477        7.804      866.911
10/29/2014  02:45:00      -80.454      -29.153       -4.306       62.663       19.790       17.347     3926.649      391.630      300.929        0.598        0.231       85.573       27.798        0.106      336.520        7.878      866.914
10/29/2014  02:46:00      -54.266      -26.038       -0.577       35.325       25.287       17.618     1247.881      639.427      310.388        0.291        0.110       60.189       22.671        0.142      336.557        7.939      866.916
10/29/2014  02:47:00      -50.767      -26.877       -1.560       35.410       21.897       16.823     1253.875      479.481      283.023        0.266        0.101       57.443       18.934        0.109      336.628        8.057      866.908
10/29/2014  02:48:00      -80.805      -20.233        1.172       28.516       22.522       15.045      813.189      507.235      226.341        0.424        0.077       83.300       15.993        0.037      336.728        8.226      866.896
10/29/2014  02:49:00      -80.308      -24.686       -3.229       21.595       12.449        9.254      466.355      154.977       85.637        0.389        0.035       84.016        8.953        0.011      336.739        8.243      866.892
10/29/2014  02:50:00      -99.267      -49.115       -3.569       25.579       24.230       15.273      654.309      587.099      233.277        0.688        0.074      110.753       13.941        0.016      336.786        8.323      866.895
10/29/2014  02:51:00      -91.029      -20.742       -3.659       38.622       28.950       21.374     1491.670      838.108      456.862        0.576        0.139       93.362       23.262        0.062      336.843        8.417      866.894
10/29/2014  02:52:00      -81.250      -40.689       -7.637       15.119       24.461       13.083      228.579      598.329      171.177        0.466        0.050       90.869       10.281        0.013      336.837        8.408      866.891
10/29/2014  02:53:00      -96.344      -16.792      -10.158       26.283       19.050       12.236      690.787      362.887      149.728        0.544        0.060       97.796       13.235        0.018      336.797        8.340      866.894
10/29/2014  02:54:00      -84.364      -47.831       -2.390       33.110       31.352       17.824     1096.297      982.949      317.705        0.590        0.120       96.980       18.838        0.038      336.747        8.258      866.905
10/29/2014  02:55:00     -111.196      -42.104      -12.949       21.160       21.748       13.423      447.752      472.961      180.176        0.770        0.055      118.900       12.784        0.012      336.729        8.228      866.913
10/29/2014  02:56:00      -64.022      -72.611       -2.078       33.387       20.497       23.594     1114.679      420.129      556.695        0.573        0.105       96.805       19.373        0.040      336.672        8.131      866.925
10/29/2014  02:57:00      -30.175      -39.949       -1.881       27.604       22.217       14.738      761.961      493.578      217.218        0.199        0.074       50.064        6.125        0.015      336.736        8.239      866.924
10/29/2014  02:58:00      -59.378      -23.248       -6.712       31.441       17.385       12.206      988.545      302.243      148.976        0.278        0.072       63.767        6.836        0.011      336.748        8.258      866.916
10/29/2014  02:59:00     -108.799      -11.671      -10.803       15.230       12.340       11.832      231.952      152.273      140.004        0.631        0.026      109.423        8.609        0.006      336.966        8.623      866.900
10/29/2014  03:00:00      -73.520      -21.677       -6.206       19.961       14.152       13.516      398.427      200.277      182.692        0.335        0.039       76.649       11.067        0.021      336.839        8.411      866.882
10/29/2014  03:01:00      -90.990      -11.151      -13.068       17.404       15.570       10.314      302.895      242.410      106.379        0.461        0.033       91.670        5.183        0.003      336.783        8.317      866.885
10/29/2014  03:02:00      -90.273      -39.094      -10.466       19.467       19.809       16.132      378.949      392.398      260.257        0.541        0.052       98.375       15.099        0.024      336.807        8.357      866.884
10/29/2014  03:03:00      -70.881      -31.294        0.175       30.195       22.152       14.742      911.727      490.733      217.332        0.381        0.081       77.482       15.995        0.043      336.808        8.359      866.880
10/29/2014  03:04:00      -81.082      -19.899       -1.223       27.863       16.312       15.046      776.366      266.068      226.390        0.412        0.063       83.488       16.960        0.041      336.815        8.371      866.875
10/29/2014  03:05:00      -81.778      -25.344       -5.089       17.179       18.160       10.527      295.126      329.774      110.826        0.405        0.037       85.615        8.741        0.010      336.916        8.539      866.865
10/29/2014  03:06:00      -61.729      -18.929       -5.995       18.288       13.810        8.887      334.459      190.713       78.986        0.240        0.030       64.566        8.859        0.019      336.971        8.630      866.854
10/29/2014  03:07:00      -61.161      -18.549       -3.821       16.438        8.920        5.791      270.213       79.573       33.530        0.224        0.019       63.912        5.332        0.007      337.086        8.822      866.849
10/29/2014  03:08:00      -38.455      -27.025       -2.083        9.625        9.941        5.149       92.635       98.831       26.515        0.122        0.011       47.001        2.739        0.003      337.025        8.718      866.843
10/29/2014  03:09:00      -55.532      -26.712       -4.035       12.535        7.975        5.676      157.121       63.599       32.222        0.203        0.013       61.622        3.387        0.003      336.932        8.562      866.851
10/29/2014  03:10:00      -67.952      -36.345       -4.420       24.492       18.614       15.526      599.868      346.470      241.049        0.357        0.059       77.061       10.349        0.018      336.781        8.313      866.873
10/29/2014  03:11:00     -100.120      -43.624       -3.870       23.229       18.406       12.876      539.605      338.774      165.790        0.649        0.052      109.211        8.819        0.007      336.619        8.045      866.903
10/29/2014  03:12:00     -105.594      -59.615       -1.289       26.229       20.980       20.191      687.958      440.177      407.689        0.812        0.077      121.261       15.339        0.016      336.553        7.933      866.945
10/29/2014  03:13:00     -105.505      -24.793       -6.096       21.897       26.568       17.999      479.457      705.832      323.963        0.665        0.075      108.379       13.583        0.016      336.475        7.803      866.966
10/29/2014  03:14:00      -68.285      -29.517       -3.568       12.524       15.911       12.263      156.846      253.146      150.387        0.305        0.028       74.392        8.805        0.014      336.545        7.920      866.986
10/29/2014  03:15:00      -22.204      -14.437        4.203       25.721       20.557        8.689      661.548      422.610       75.505        0.094        0.058       26.484       10.882        0.169      336.549        7.926      866.993
10/29/2014  03:16:00        9.654       11.810        1.707        6.206        8.096        4.366       38.512       65.539       19.066        0.018        0.006       15.253        1.948        0.016      336.568        7.957      867.002
10/29/2014  03:17:00       -6.186        3.959       -2.152       11.123        3.042        2.470      123.718        9.255        6.099        0.010        0.007        7.344        0.613        0.007      336.731        8.231      867.025
10/29/2014  03:18:00      -46.229        5.441       -3.725       11.739        7.058        4.782      137.793       49.818       22.871        0.120        0.011       46.548        3.245        0.005      336.696        8.172      867.057
10/29/2014  03:19:00      -64.833       -9.408       -1.701       17.192       20.924        8.239      295.555      437.809       67.886        0.255        0.040       65.512        8.156        0.015      336.556        7.937      867.082
10/29/2014  03:20:00      -89.337      -26.011       -6.833       16.567       17.615       10.782      274.481      310.291      116.255        0.470        0.035       93.046        9.122        0.010      336.469        7.793      867.087
10/29/2014  03:21:00      -71.512      -27.518       -0.265       15.092       15.348       10.997      227.758      235.553      120.944        0.323        0.029       76.624        9.416        0.015      336.499        7.843      867.072
10/29/2014  03:22:00      -52.694      -19.538       -0.905       22.773       11.185        9.474      518.614      125.100       89.764        0.195        0.037       56.200        8.442        0.023      336.617        8.041      867.060
10/29/2014  03:23:00      -76.264      -12.222       -9.102       13.828        8.094        5.633      191.212       65.512       31.735        0.317        0.014       77.238        2.304        0.001      336.682        8.147      867.054
10/29/2014  03:24:00     -107.068      -19.203      -18.247       12.372       12.762       10.912      153.072      162.873      119.081        0.630        0.022      108.777        6.703        0.004      336.605        8.020      867.054
10/29/2014  03:25:00      -86.616      -25.157       -3.120       25.335       15.808       13.087      641.879      249.897      171.265        0.460        0.053       90.195       14.822        0.027      336.518        7.875      867.046
10/29/2014  03:26:00      -89.542      -35.869        1.389       15.352       12.812        9.399      235.688      164.140       88.335        0.490        0.024       96.459        5.736        0.004      336.612        8.032      867.027
10/29/2014  03:27:00      -76.025      -23.193       -3.091       22.200       13.768        9.032      492.826      189.551       81.584        0.355        0.038       79.484        9.699        0.015      336.647        8.090      867.000
10/29/2014  03:28:00     -115.034      -27.791       -9.284       15.685       14.693       10.784      246.027      215.882      116.288        0.733        0.029      118.344        7.840        0.004      336.623        8.050      866.994
10/29/2014  03:29:00     -132.671      -36.146      -11.908       18.887       14.341       14.350      356.710      205.672      205.914        0.991        0.038      137.507        8.736        0.004      336.613        8.033      867.009
10/29/2014  03:30:00      -92.830      -28.752       -4.203       35.500       24.007       18.345     1260.224      576.321      336.526        0.582        0.109       97.181       19.182        0.039      336.521        7.880      867.017
10/29/2014  03:31:00      -97.208      -20.314       -3.740       22.717       17.289       13.480      516.048      298.900      181.708        0.544        0.050       99.308       13.763        0.019      336.578        7.976      867.005
10/29/2014  03:32:00     -108.905      -48.205       -9.567       10.355       11.141        6.631      107.234      124.114       43.971        0.728        0.014      119.097        4.602        0.001      336.805        8.354      866.987
10/29/2014  03:33:00     -134.695      -27.537      -13.788       16.477       18.606        8.962      271.492      346.186       80.316        0.989        0.035      137.481        6.791        0.002      336.787        8.324      866.981
10/29/2014  03:34:00     -116.592       12.619      -12.172       23.373       19.070       11.765      546.297      363.655      138.410        0.747        0.052      117.273       10.679        0.008      336.475        7.801      866.993
10/29/2014  03:35:00      -47.598       47.561       -3.031       29.738       30.102       17.867      884.323      906.151      319.228        0.332        0.105       67.288       16.946        0.063      336.332        7.562      866.996
10/29/2014  03:36:00      -80.666       27.085       -8.900       24.097       16.185       12.740      580.676      261.964      162.308        0.416        0.050       85.091       11.482        0.018      336.473        7.799      866.970
10/29/2014  03:37:00      -71.757      -17.795       -9.530       13.744       14.771        9.554      188.896      218.179       91.271        0.303        0.025       73.931        8.066        0.012      336.427        7.722      866.943
10/29/2014  03:38:00      -78.632      -12.735       -9.242       26.539       20.190       11.878      704.335      407.625      141.080        0.384        0.063       79.657       14.095        0.031      336.580        7.978      866.917
10/29/2014  03:39:00      -55.513       -5.167       -4.378       25.965       20.330       14.648      674.190      413.316      214.559        0.221        0.065       55.753       14.370        0.066      336.572        7.966      866.894
10/29/2014  03:40:00      -38.656      -17.194       -6.076       30.708       20.922       21.214      942.971      437.721      450.052        0.183        0.092       42.307       10.550        0.062      336.785        8.320      866.880
10/29/2014  03:41:00      -46.168       -7.576       -5.417       27.241       18.488       11.747      742.057      341.802      137.983        0.172        0.061       46.785       13.564        0.084      336.554        7.934      866.879
10/29/2014  03:42:00      -82.351      -22.477       -4.939       23.521       32.443       11.833      553.237     1052.541      140.013        0.453        0.087       85.363        9.641        0.013      336.474        7.801      866.863
10/29/2014  03:43:00     -102.795      -34.583      -14.553       25.256       23.232       16.328      637.866      539.726      266.612        0.671        0.072      108.456       12.883        0.014      336.408        7.688      866.846
10/29/2014  03:44:00      -73.668      -45.420      -16.994       33.351       36.250       16.633     1112.279     1314.057      276.664        0.524        0.135       86.545       16.480        0.036      336.338        7.573      866.825
10/29/2014  03:45:00     -104.526      -39.805      -15.980       19.696       22.605       14.893      387.938      510.970      221.811        0.694        0.056      111.849       14.095        0.016      336.395        7.668      866.799
10/29/2014  03:46:00     -139.768      -21.305      -17.025       12.476       16.646       11.719      155.660      277.100      137.344        1.042        0.029      141.382        7.569        0.003      336.534        7.902      866.785
10/29/2014  03:47:00     -113.893      -33.438       -7.364       25.060       17.959       14.547      628.002      322.521      211.606        0.765        0.058      118.700       13.474        0.013      336.515        7.868      866.784
10/29/2014  03:48:00      -85.176      -25.406       -5.615       18.113       16.698        9.997      328.083      278.833       99.930        0.432        0.035       88.884        6.037        0.005      336.511        7.863      866.796
10/29/2014  03:49:00      -71.684      -36.530        2.420       30.847       15.761       14.335      951.556      248.409      205.479        0.394        0.070       80.455       15.888        0.039      336.513        7.864      866.809
10/29/2014  03:50:00       -5.259      -14.893       11.308       27.508       14.629       16.530      756.682      214.003      273.245        0.081        0.062       15.794        8.111        0.264      336.476        7.803      866.822
10/29/2014  03:51:00      -51.489      -20.082        5.306       37.509       34.637       15.427     1406.957     1199.755      237.994        0.296        0.142       55.267        8.004        0.021      336.558        7.942      866.832
10/29/2014  03:52:00       -3.533       14.390        6.798       16.533       13.386       13.025      273.338      179.181      169.655        0.044        0.031       14.818        7.643        0.266      336.543        7.918      866.854
10/29/2014  03:53:00      -17.366       23.152      -11.367       15.197       21.597        9.939      230.952      466.417       98.784        0.088        0.040       28.941        6.479        0.050      336.439        7.741      866.872
10/29/2014  03:54:00      -17.387       42.757       -1.230       11.833       17.830       12.893      140.009      317.905      166.236        0.138        0.031       46.157        9.852        0.046      336.461        7.777      866.873
10/29/2014  03:55:00        0.841       41.150       -1.059       21.665       19.131       16.127      469.374      365.977      260.071        0.140        0.055       41.159        8.817        0.046      336.331        7.562      866.861
10/29/2014  03:56:00       -1.517       60.762       -0.461       21.139       24.943       13.498      446.849      622.164      182.197        0.247        0.063       60.781        8.370        0.019      336.426        7.721      866.844
10/29/2014  03:57:00       16.606       43.944        0.700       13.551        8.702       11.016      183.639       75.727      121.352        0.129        0.019       46.977        5.771        0.015      336.259        7.441      866.833
10/29/2014  03:58:00        7.507        9.994       -6.898        9.178       16.435        4.998       84.240      270.122       24.981        0.029        0.019       12.499        4.254        0.116      336.217        7.370      866.825
10/29/2014  03:59:00      -24.269      -31.496        0.542       21.335        8.718       12.622      455.168       76.003      159.319        0.114        0.035       39.762        9.391        0.056      336.385        7.651      866.809
10/29/2014  04:00:00       -6.307      -34.514        6.166       23.506       16.551       11.958      552.543      273.930      142.995        0.112        0.048       35.085        5.583        0.025      336.474        7.800      866.796
10/29/2014  04:01:00       -5.794      -35.554        6.498       13.596       22.369       18.703      184.850      500.352      349.788        0.119        0.052       36.023       11.628        0.104      336.516        7.870      866.800
10/29/2014  04:02:00        5.435      -23.917        3.623        9.708       21.608       14.489       94.249      466.896      209.934        0.069        0.039       24.527       14.371        0.343      336.501        7.845      866.811
10/29/2014  04:03:00       -0.769      -20.917       -5.428       12.592        9.957        7.490      158.562       99.143       56.098        0.039        0.016       20.931        3.791        0.033      336.640        8.081      866.823
10/29/2014  04:04:00       10.245        9.946       10.529       12.318       16.297       11.984      151.735      265.587      143.615        0.044        0.028       14.279       13.159        0.849      336.514        7.868      866.814
10/29/2014  04:05:00       60.555       33.364       18.651       17.625       12.349       15.101      310.647      152.505      228.038        0.291        0.035       69.138       12.238        0.031      336.281        7.477      866.803
10/29/2014  04:06:00       70.427       38.618       19.754       30.985       25.686       22.327      960.083      659.749      498.480        0.448        0.106       80.320       19.564        0.059      336.287        7.489      866.793
10/29/2014  04:07:00       95.231       46.820       11.413       46.603       24.887       24.028     2171.824      619.378      577.358        0.738        0.168      106.118       21.944        0.043      335.985        6.983      866.787
10/29/2014  04:08:00       30.400       35.965       43.745       32.637       30.829       24.895     1065.206      950.450      619.737        0.338        0.132       47.092       17.091        0.132      336.032        7.061      866.788
10/29/2014  04:09:00       48.123        6.734       21.256       33.516       23.058       23.641     1123.304      531.685      558.912        0.251        0.111       48.592       13.245        0.074      335.898        6.838      866.793
10/29/2014  04:10:00       37.338       20.505       17.876       20.008       16.745       21.598      400.326      280.382      466.493        0.164        0.057       42.598       13.260        0.097      335.905        6.849      866.792
10/29/2014  04:11:00       23.326       22.239       34.564       21.371       17.598       13.458      456.719      309.680      181.109        0.159        0.047       32.229       11.982        0.138      335.910        6.859      866.784
10/29/2014  04:12:00       38.685       12.037       18.107       29.779       27.026       21.594      886.760      730.426      466.304        0.203        0.104       40.515       25.164        0.386      336.016        7.034      866.786
10/29/2014  04:13:00       57.160      -33.664       15.418       31.700       41.236       17.690     1004.898     1700.414      312.939        0.383        0.151       66.336       22.368        0.114      336.313        7.531      866.783
10/29/2014  04:14:00       60.872      -62.948        0.173       28.031       23.747       11.938      785.756      563.903      142.524        0.458        0.075       87.566        7.506        0.007      336.511        7.863      866.780
10/29/2014  04:15:00        7.425      -45.507       -1.169       26.179       23.039       18.938      685.328      530.776      358.632        0.185        0.079       46.109       13.513        0.086      336.530        7.893      866.776
10/29/2014  04:16:00      -36.325      -27.715       -7.475       20.459       13.267       10.717      418.552      176.013      114.858        0.143        0.035       45.691        9.128        0.040      336.329        7.558      866.777
10/29/2014  04:17:00      -63.411       -3.821       -4.491        7.525       12.474        5.126       56.628      155.597       26.274        0.215        0.012       63.526        4.032        0.004      336.264        7.450      866.790
10/29/2014  04:18:00      -58.513       -2.685       -6.643        6.990        5.634        5.990       48.858       31.738       35.877        0.180        0.006       58.575        2.486        0.002      336.215        7.366      866.795
10/29/2014  04:19:00      -82.173        2.106       -7.921       15.276        7.835        9.021      233.356       61.387       81.384        0.360        0.019       82.200        4.869        0.004      336.164        7.281      866.805
10/29/2014  04:20:00      -69.566       17.741       -8.254       22.109       14.967        8.588      488.801      224.024       73.760        0.300        0.039       71.793        2.468        0.001      336.118        7.204      866.828
10/29/2014  04:21:00      -74.464        7.231       -6.774        7.715        8.967        6.697       59.517       80.405       44.854        0.291        0.009       74.814        3.937        0.003      336.260        7.442      866.834
10/29/2014  04:22:00      -82.486       -2.377       -6.221       12.829        9.965        7.792      164.581       99.305       60.712        0.359        0.016       82.520        6.605        0.006      336.321        7.543      866.828
10/29/2014  04:23:00      -77.540      -15.594       -4.282       16.220       12.120        8.912      263.074      146.902       79.418        0.338        0.024       79.093        7.429        0.009      336.186        7.319      866.805
10/29/2014  04:24:00      -85.668       -9.765       -6.540       16.525       16.046       10.181      273.082      257.462      103.647        0.406        0.032       86.222        4.880        0.003      336.046        7.086      866.778
10/29/2014  04:25:00     -101.988      -35.024       -3.372       26.850       20.713       13.055      720.899      429.036      170.426        0.648        0.066      107.834        8.625        0.006      335.939        6.905      866.756
10/29/2014  04:26:00     -119.093      -49.566       -4.947       15.468       17.675       12.683      239.273      312.410      160.847        0.869        0.036      128.996        9.646        0.006      335.907        6.853      866.736
10/29/2014  04:27:00     -106.927      -47.939       -3.471       29.657       19.751       13.945      879.548      390.111      194.469        0.760        0.073      117.182       14.295        0.015      335.840        6.741      866.726
10/29/2014  04:28:00      -93.243      -40.580        2.302       33.497       23.433       17.638     1122.017      549.123      311.088        0.616        0.099      101.691       18.784        0.034      335.891        6.826      866.723
10/29/2014  04:29:00     -111.723      -62.520        4.571       37.025       25.754       22.894     1370.857      663.274      524.124        0.948        0.128      128.026       20.489        0.026      335.942        6.910      866.728
10/29/2014  04:30:00     -119.450      -51.031        2.418       35.853       31.075       22.759     1285.415      965.667      517.994        0.982        0.138      129.894       20.083        0.024      335.982        6.978      866.729
10/29/2014  04:31:00      -98.688      -51.206        3.414       48.363       28.838       25.306     2339.021      831.637      640.397        0.809        0.191      111.182       22.557        0.041      336.115        7.200      866.724
10/29/2014  04:32:00     -125.218      -65.419        6.858       53.685       44.151       26.798     2882.093     1949.299      718.142        1.278        0.277      141.277       27.590        0.038      336.192        7.328      866.712
10/29/2014  04:33:00     -158.850      -64.941       -1.582       41.161       38.029       17.356     1694.265     1446.189      301.213        1.645        0.172      171.612       10.139        0.003      336.238        7.406      866.707
10/29/2014  04:34:00     -122.338      -55.614        1.533       58.570       41.623       31.031     3430.409     1732.511      962.939        1.209        0.306      134.386       29.519        0.048      336.233        7.397      866.704
10/29/2014  04:35:00     -142.093      -50.705       -2.711       37.960       27.243       24.754     1440.988      742.178      612.768        1.278        0.140      150.869       21.323        0.020      336.244        7.416      866.707
10/29/2014  04:36:00     -113.862      -61.558        5.584       47.947       32.681       26.487     2298.938     1068.039      701.549        1.043        0.203      129.438       24.759        0.037      336.233        7.395      866.708
10/29/2014  04:37:00     -120.451      -39.215        1.600       52.234       29.432       19.637     2728.411      866.244      385.619        1.001        0.199      126.673       23.683        0.035      336.253        7.431      866.720
10/29/2014  04:38:00      -63.445      -30.314        1.054       33.153       31.901       19.574     1099.134     1017.665      383.126        0.372        0.125       70.316       18.184        0.067      336.293        7.497      866.740
10/29/2014  04:39:00      -49.486       -5.017       -3.986       19.652       16.784       13.598      386.212      281.713      184.898        0.167        0.043       49.740       10.702        0.046      336.211        7.359      866.756
10/29/2014  04:40:00       -6.579       35.365        2.571       17.123       16.271       15.873      293.182      264.743      251.964        0.106        0.040       35.971       10.689        0.088      336.140        7.241      866.771
10/29/2014  04:41:00      -15.828       10.134        2.754       20.166       13.072       15.579      406.687      170.890      242.720        0.059        0.041       18.795        7.767        0.171      336.154        7.266      866.777
10/29/2014  04:42:00      -97.072       43.429       -8.601       42.077       20.349       19.120     1770.454      414.096      365.555        0.697        0.128      106.344       18.807        0.031      336.096        7.168      866.776
10/29/2014  04:43:00     -104.372       22.039       -5.024       27.838       22.879       18.450      774.956      523.449      340.396        0.652        0.082      106.674       14.200        0.018      335.972        6.961      866.786
10/29/2014  04:44:00      -98.329      -16.379       -9.254       31.209       32.812       15.338      974.002     1076.629      235.258        0.615        0.114       99.684       12.951        0.017      335.898        6.838      866.794
10/29/2014  04:45:00      -44.597      -14.809        4.003       39.400       27.333       19.973     1552.369      747.089      398.922        0.246        0.135       46.991       22.066        0.220      335.850        6.758      866.808
10/29/2014  04:46:00     -100.128       -0.115       -2.161       39.801       24.696       19.251     1584.120      609.899      370.609        0.630        0.128      100.128       21.685        0.047      335.760        6.610      866.811
10/29/2014  04:47:00      -86.144      -29.079       -2.818       35.239       23.225       18.891     1241.813      539.422      356.876        0.521        0.107       90.919       19.391        0.045      335.738        6.572      866.805
10/29/2014  04:48:00      -83.729      -12.032       -3.062       39.346       25.106       19.180     1548.093      630.301      367.870        0.485        0.127       84.589       19.524        0.053      335.801        6.676      866.796
10/29/2014  04:49:00     -116.818      -23.465       -3.933       31.682       21.743       17.705     1003.751      472.749      313.473        0.800        0.089      119.151       17.107        0.021      335.878        6.806      866.787
10/29/2014  04:50:00     -130.358      -18.235       -6.959       33.595       24.481       19.824     1128.595      599.300      392.984        0.975        0.106      131.627       19.625        0.022      335.952        6.927      866.775
10/29/2014  04:51:00      -79.523      -12.446       -1.002       47.952       25.648       20.981     2299.407      657.805      440.191        0.494        0.170       80.492       26.009        0.104      335.879        6.807      866.772
10/29/2014  04:52:00      -79.965      -16.759       -0.999       37.011       30.456       19.755     1369.838      927.585      390.272        0.468        0.134       81.703       19.737        0.058      336.011        7.026      866.774
10/29/2014  04:53:00      -99.687       -0.187       -4.351       25.855       23.586       18.370      668.506      556.286      337.469        0.576        0.078       99.687       14.069        0.020      336.137        7.235      866.779
10/29/2014  04:54:00      -83.050      -33.134       -4.501       24.173       25.619       14.185      584.324      656.354      201.204        0.473        0.072       89.416        8.654        0.009      336.084        7.148      866.785
10/29/2014  04:55:00     -104.145      -39.289      -11.993       30.183       23.897       13.868      911.023      571.060      192.312        0.710        0.084      111.310        5.950        0.003      336.005        7.015      866.782
10/29/2014  04:56:00      -56.524      -19.711        6.441       29.783       25.922       15.149      887.019      671.951      229.485        0.271        0.089       59.862       10.889        0.033      336.032        7.062      866.780
10/29/2014  04:57:00      -71.294      -33.701        3.892       32.078       18.828       18.139     1028.994      354.491      329.030        0.397        0.086       78.858       20.197        0.066      336.131        7.227      866.773
10/29/2014  04:58:00      -65.464      -29.981        2.687       20.114       15.894        8.928      404.567      252.629       79.707        0.296        0.037       72.002        9.406        0.017      336.225        7.383      866.760
10/29/2014  04:59:00      -36.486      -40.275        2.417       27.726       17.710       14.410      768.751      313.662      207.647        0.212        0.065       54.344       15.232        0.079      336.527        7.891      866.743
10/29/2014  05:00:00      -32.377      -22.008        0.195       19.667       12.438       12.503      386.783      154.695      156.334        0.112        0.035       39.149       13.937        0.127      336.444        7.750      866.718
10/29/2014  05:01:00      -32.447      -26.460       -1.830       16.781       12.415        9.173      281.613      154.135       84.153        0.114        0.026       41.869        5.012        0.014      336.519        7.876      866.704
10/29/2014  05:02:00      -39.157      -28.431        3.531       21.601       22.148       11.248      466.617      490.522      126.511        0.172        0.054       48.390       10.278        0.045      336.510        7.860      866.685
10/29/2014  05:03:00      -38.646      -14.400       -1.283       19.941       11.496        8.708      397.629      132.147       75.823        0.115        0.030       41.242        8.738        0.045      336.177        7.305      866.677
10/29/2014  05:04:00      -29.838        0.497        0.034       10.053       11.218        8.693      101.059      125.846       75.572        0.060        0.015       29.842        7.016        0.055      335.976        6.968      866.675
10/29/2014  05:05:00      -21.538       -7.147        1.254       15.034       11.854        7.198      226.016      140.517       51.815        0.047        0.021       22.692        6.708        0.087      335.969        6.956      866.675
10/29/2014  05:06:00      -66.774      -16.886       -4.924       14.965        8.579        7.157      223.949       73.592       51.217        0.256        0.017       68.876        4.078        0.004      336.052        7.094      866.675
10/29/2014  05:07:00      -71.959      -34.974       -9.191       10.266        7.870        5.217      105.381       61.938       27.220        0.334        0.010       80.008        2.259        0.001      336.116        7.201      866.680
10/29/2014  05:08:00      -59.483      -10.997       -5.555        8.874        9.981        7.160       78.751       99.620       51.267        0.196        0.011       60.491        2.698        0.002      336.083        7.146      866.676
10/29/2014  05:09:00      -53.960      -13.950       -4.698        8.029        7.599        6.613       64.470       57.751       43.726        0.165        0.008       55.734        3.687        0.004      336.032        7.062      866.676
10/29/2014  05:10:00      -54.267      -21.697       -3.368        8.595        8.953        5.739       73.882       80.157       32.939        0.181        0.009       58.443        1.260        0.000      336.071        7.123      866.686
10/29/2014  05:11:00      -45.583      -28.537       -3.255        6.997        8.816        6.864       48.958       77.723       47.109        0.154        0.009       53.779        3.740        0.005      335.984        6.982      866.701
10/29/2014  05:12:00      -45.014      -22.134       -2.921        7.939        6.546        5.161       63.028       42.855       26.635        0.133        0.007       50.161        0.647        0.000      336.022        7.046      866.719
10/29/2014  05:13:00      -36.694       -7.439       -2.033       10.079        9.870        7.207      101.580       97.422       51.938        0.083        0.013       37.441        4.895        0.017      335.990        6.991      866.736
10/29/2014  05:14:00      -16.128       -5.280       -0.370        7.956        8.610        6.241       63.293       74.128       38.945        0.023        0.009       16.970        4.669        0.076      335.940        6.907      866.762
10/29/2014  05:15:00      -16.570      -13.878        3.777       16.857        7.810        6.357      284.172       61.003       40.406        0.043        0.019       21.614        6.819        0.100      335.967        6.952      866.778
10/29/2014  05:16:00      -14.246      -24.382        0.596       17.178        7.814        8.860      295.074       61.058       78.503        0.062        0.022       28.238        7.318        0.067      335.943        6.912      866.790
10/29/2014  05:17:00       -8.807      -33.590       -5.249        7.865       12.062        5.566       61.859      145.495       30.976        0.074        0.012       34.726        5.525        0.025      335.980        6.973      866.797
10/29/2014  05:18:00      -20.073      -22.528       -0.710        9.249       11.369        6.069       85.542      129.248       36.833        0.058        0.013       30.173        5.738        0.036      335.943        6.913      866.800
10/29/2014  05:19:00      -17.074      -11.164        2.594       13.450        8.319        5.901      180.899       69.211       34.816        0.035        0.014       20.400        5.468        0.072      335.870        6.792      866.792
10/29/2014  05:20:00      -34.276       -6.729       -2.549       11.778        9.207        5.525      138.730       84.760       30.530        0.074        0.013       34.930        4.679        0.018      335.804        6.684      866.789
10/29/2014  05:21:00      -14.357       -0.119        6.002       11.778       14.258        7.274      138.718      203.281       52.909        0.032        0.020       14.357        7.076        0.243      335.755        6.602      866.778
10/29/2014  05:22:00      -46.602       -2.639       -7.730       10.546       11.856        7.146      111.212      140.565       51.059        0.127        0.015       46.677        5.322        0.013      335.750        6.594      866.767
10/29/2014  05:23:00      -38.382       -8.578       -2.525       14.250       11.735        8.921      203.069      137.706       79.580        0.099        0.021       39.328        6.915        0.031      335.737        6.570      866.768
10/29/2014  05:24:00      -42.519      -15.420       -2.565       14.981       19.137        9.414      224.433      366.233       88.617        0.137        0.034       45.228        6.316        0.019      335.710        6.525      866.775
10/29/2014  05:25:00      -56.457      -16.560        3.642       27.077       20.102       12.021      733.165      404.081      144.508        0.238        0.064       58.835       11.315        0.037      335.660        6.442      866.794
10/29/2014  05:26:00      -54.407      -25.835        0.570       24.908       17.236       13.607      620.391      297.092      185.141        0.237        0.055       60.229       13.565        0.051      335.606        6.351      866.829
10/29/2014  05:27:00      -92.066      -22.568       -2.562       28.090       21.229       13.762      789.073      450.687      189.381        0.521        0.071       94.792       10.535        0.012      335.574        6.299      866.851
10/29/2014  05:28:00      -96.806      -18.369        2.308       30.358       24.423       16.935      921.621      596.479      286.781        0.576        0.090       98.533       15.702        0.025      335.481        6.144      866.885
10/29/2014  05:29:00      -92.599      -15.823        2.642       35.547       22.514       19.471     1263.605      506.874      379.127        0.549        0.107       93.941       17.753        0.036      335.487        6.155      866.897
10/29/2014  05:30:00      -99.722       -6.322       -6.088       33.152       16.427       14.489     1099.038      269.848      209.926        0.580        0.079       99.922       13.536        0.018      335.634        6.399      866.902
10/29/2014  05:31:00      -70.358      -18.605        0.184       32.572       16.048       13.451     1060.964      257.538      180.922        0.340        0.075       72.776       14.222        0.038      335.667        6.453      866.910
10/29/2014  05:32:00      -59.065      -20.136        1.743       22.401       14.621       13.110      501.798      213.768      171.861        0.239        0.044       62.403       11.299        0.033      335.711        6.527      866.917
10/29/2014  05:33:00      -92.015      -37.366       -1.829       23.140       21.357       14.666      535.448      456.141      215.081        0.554        0.060       99.312       13.089        0.017      335.763        6.615      866.919
10/29/2014  05:34:00     -129.000      -33.873      -13.544       24.048       18.370       15.174      578.289      337.453      230.246        0.956        0.057      133.373       11.885        0.008      335.654        6.431      866.922
10/29/2014  05:35:00     -134.436      -16.469       -5.514       36.408       25.234       22.781     1325.569      636.733      518.974        1.043        0.124      135.441       23.869        0.031      335.555        6.267      866.924
10/29/2014  05:36:00      -68.784      -11.437        1.636       44.541       32.032       21.309     1983.907     1026.077      454.070        0.416        0.173       69.729       21.760        0.097      335.458        6.105      866.927
10/29/2014  05:37:00     -102.886      -42.483       -2.154       31.880       28.298       17.350     1016.317      800.805      301.034        0.726        0.106      111.312       16.484        0.022      335.448        6.089      866.932
10/29/2014  05:38:00     -137.412      -35.458       -5.980       38.053       33.991       20.684     1447.997     1155.366      427.821        1.160        0.152      141.913       17.527        0.015      335.435        6.068      866.926
10/29/2014  05:39:00     -141.511      -36.466       -6.096       40.920       28.738       22.861     1674.468      825.851      522.648        1.221        0.151      146.134       19.334        0.018      335.364        5.947      866.915
10/29/2014  05:40:00     -116.801      -44.993       -4.721       49.485       42.264       24.305     2448.746     1786.267      590.715        1.026        0.241      125.167       24.633        0.039      335.335        5.899      866.902
10/29/2014  05:41:00     -145.460      -29.420       -3.846       52.128       53.447       29.633     2717.294     2856.608      878.118        1.424        0.323      148.406       27.606        0.035      335.329        5.889      866.892
10/29/2014  05:42:00     -151.140       17.591      -21.902       51.823       32.377       24.586     2685.616     1048.264      604.468        1.398        0.217      152.161       13.366        0.008      335.402        6.011      866.884
10/29/2014  05:43:00     -157.171       30.918      -19.544       46.279       34.198       24.099     2141.728     1169.510      580.749        1.497        0.195      160.183       15.009        0.009      335.577        6.301      866.881
10/29/2014  05:44:00     -121.766       17.800       -9.100       49.946       41.836       24.631     2494.594     1750.259      606.692        1.004        0.243      123.060       23.037        0.035      335.556        6.269      866.883
10/29/2014  05:45:00     -152.506       16.058      -14.066       52.574       43.404       24.783     2764.050     1883.898      614.218        1.449        0.263      153.349       20.740        0.018      335.542        6.246      866.899
10/29/2014  05:46:00     -109.817        1.878       -8.655       60.208       41.713       25.845     3625.000     1739.937      667.967        0.908        0.302      109.833       29.084        0.070      335.387        5.985      866.904
10/29/2014  05:47:00      -92.195      -26.105       -6.444       37.353       42.374       18.668     1395.237     1795.595      348.498        0.638        0.177       95.820       16.543        0.030      335.358        5.936      866.910
10/29/2014  05:48:00      -41.768      -33.889        5.634       34.228       24.929       16.343     1171.536      621.474      267.092        0.249        0.103       53.788       18.220        0.115      335.335        5.898      866.916
10/29/2014  05:49:00      -58.148      -32.174       -0.682       27.075       23.703       15.620      733.076      561.841      243.980        0.298        0.077       66.455       11.273        0.029      335.362        5.945      866.936
10/29/2014  05:50:00      -63.136      -14.689       -0.276       21.187       22.312       18.189      448.869      497.818      330.849        0.274        0.064       64.822       16.752        0.067      335.341        5.909      866.950
10/29/2014  05:51:00      -61.058      -10.030       -1.462       17.655       15.644       12.475      311.709      244.724      155.619        0.227        0.036       61.877       10.560        0.029      335.419        6.040      866.958
10/29/2014  05:52:00      -51.763      -16.905        3.025       26.119       18.016       12.972      682.215      324.591      168.267        0.207        0.059       54.453       14.094        0.067      335.444        6.082      866.969
10/29/2014  05:53:00      -63.545      -44.223        2.847       33.929       25.743       20.020     1151.160      662.707      400.793        0.411        0.111       77.418       20.884        0.073      335.642        6.412      866.988
10/29/2014  05:54:00      -59.150      -39.157        1.807       18.703       14.191       11.793      349.787      201.379      139.072        0.286        0.035       70.936        9.086        0.016      335.606        6.352      867.006
10/29/2014  05:55:00       -8.423      -14.727       -1.333       16.020       10.931        7.843      256.639      119.497       61.506        0.036        0.022       16.966        6.849        0.163      335.723        6.548      867.005
10/29/2014  05:56:00       -6.992      -34.914       -4.252       10.011        8.696        9.888      100.217       75.627       97.763        0.078        0.014       35.608        4.279        0.014      335.925        6.881      867.004
10/29/2014  05:57:00      -34.250      -28.189       -3.188       18.327       11.949        7.997      335.866      142.783       63.945        0.126        0.027       44.359        6.810        0.024      335.893        6.829      867.003
10/29/2014  05:58:00      -61.285      -34.531       -2.766       20.993       15.989       11.111      440.700      255.638      123.454        0.289        0.041       70.343        5.080        0.005      335.727        6.555      867.017
10/29/2014  05:59:00      -39.562      -27.555       -3.218        7.408        8.731        4.229       54.879       76.223       17.883        0.124        0.007       48.212        1.898        0.002      335.792        6.662      867.027
10/29/2014  06:00:00      -41.327      -27.424        2.427       15.676        9.585       11.061      245.751       91.867      122.351        0.146        0.023       49.598        8.639        0.030      335.751        6.594      867.041
10/29/2014  06:01:00      -63.495       -7.379       -8.394        9.841       13.706        9.178       96.848      187.859       84.229        0.226        0.018       63.922        5.130        0.006      335.761        6.610      867.053
10/29/2014  06:02:00      -99.796        9.604      -13.030       11.625        8.683        5.729      135.150       75.392       32.819        0.523        0.012      100.257        3.296        0.001      335.797        6.670      867.042
10/29/2014  06:03:00     -100.573       -4.532      -13.220       17.452       14.688        8.292      304.579      215.746       68.756        0.545        0.029      100.675        7.475        0.006      335.880        6.809      867.030
10/29/2014  06:04:00      -79.378      -37.158       -4.739       10.409       14.568        7.180      108.342      212.215       51.550        0.404        0.019       87.645        2.020        0.001      335.864        6.781      867.022
10/29/2014  06:05:00     -119.586      -38.206       -9.271       19.218       11.763        8.161      369.342      138.368       66.606        0.821        0.029      125.541        5.604        0.002      335.820        6.707      867.003
10/29/2014  06:06:00     -107.503      -44.514       -7.859       12.332       17.778       11.662      152.088      316.069      136.004        0.710        0.030      116.354        7.971        0.005      335.753        6.598      866.976
10/29/2014  06:07:00     -107.290      -17.052      -17.137        7.917       10.955       11.107       62.680      120.012      123.360        0.620        0.015      108.636        5.940        0.003      335.601        6.343      866.949
10/29/2014  06:08:00     -124.056      -24.500      -17.835       15.152       13.868       13.957      229.579      192.322      194.811        0.846        0.031      126.452        8.997        0.005      335.589        6.324      866.946
10/29/2014  06:09:00     -117.259       -4.613      -15.110       14.770       13.340        8.085      218.139      177.945       65.364        0.723        0.023      117.350        7.232        0.004      335.537        6.238      866.940
10/29/2014  06:10:00      -92.931      -22.186       -7.929       21.188       17.073       12.831      448.940      291.504      164.647        0.505        0.045       95.543       10.660        0.012      335.618        6.373      866.942
10/29/2014  06:11:00      -46.205      -39.506       -0.507       23.852       21.304       13.925      568.920      453.840      193.904        0.246        0.061       60.792       14.159        0.054      335.671        6.460      866.948
10/29/2014  06:12:00        4.559       11.749       14.399        9.546       14.088        7.508       91.118      198.463       56.364        0.036        0.017       12.603        5.592        0.197      335.567        6.289      866.960
10/29/2014  06:13:00        0.955      -18.302        6.002        6.584       10.671       10.211       43.350      113.863      104.255        0.032        0.013       18.327        4.577        0.062      335.701        6.511      866.974
10/29/2014  06:14:00        4.521       -1.585        9.234        7.000       10.677       10.372       48.994      113.988      107.577        0.019        0.014        4.791        5.571        1.352      335.500        6.175      866.981
10/29/2014  06:15:00       -3.818       -5.752        6.826       10.791        5.301        6.525      116.435       28.101       42.582        0.014        0.009        6.904        6.052        0.769      335.438        6.071      866.979
10/29/2014  06:16:00      -12.866      -24.854       -3.630        9.196       11.670        5.391       84.569      136.183       29.061        0.052        0.012       27.987        4.511        0.026      335.514        6.200      866.978
10/29/2014  06:17:00      -54.608      -35.328       -1.499       14.211        9.966        7.858      201.942       99.320       61.755        0.230        0.018       65.039        5.231        0.006      335.622        6.378      866.966
10/29/2014  06:18:00      -52.605      -16.120       -2.744       14.159       16.817        9.822      200.477      282.812       96.463        0.181        0.029       55.019        6.470        0.014      335.471        6.127      866.953
10/29/2014  06:19:00       -8.979      -13.770        3.651       18.455        9.118       11.479      340.593       83.130      131.778        0.042        0.028       16.439       12.262        0.556      335.516        6.202      866.951
10/29/2014  06:20:00        2.787       35.427        4.754       14.645       21.080        9.676      214.480      444.360       93.621        0.102        0.038       35.536       10.050        0.080      335.442        6.078      866.960
10/29/2014  06:21:00       12.372        7.900       -2.093        9.685        8.929        7.258       93.807       79.730       52.679        0.022        0.011       14.679        5.683        0.150      335.269        5.790      866.970
10/29/2014  06:22:00      -28.872      -14.592       -1.355       22.402        6.766        5.537      501.827       45.775       30.653        0.081        0.029       32.349        5.628        0.030      335.471        6.126      866.985
10/29/2014  06:23:00      -72.523      -16.573      -10.700       12.316       16.503        7.703      151.689      272.347       59.343        0.307        0.024       74.393        8.336        0.013      335.497        6.171      866.992
10/29/2014  06:24:00      -78.954      -32.044       -6.552       12.470       13.090        7.861      155.502      171.360       61.801        0.385        0.019       85.209        5.587        0.004      335.388        5.987      866.990
10/29/2014  06:25:00      -37.688       -4.260        0.830       23.630       14.945       10.729      558.383      223.357      115.110        0.117        0.045       37.928       12.366        0.106      335.298        5.837      866.988
10/29/2014  06:26:00      -64.839        8.863       -3.029       17.982       12.633       10.211      323.353      159.585      104.256        0.244        0.029       65.442        7.246        0.012      335.285        5.816      866.974
10/29/2014  06:27:00      -41.047        2.868       -4.446       16.054       10.789        3.478      257.722      116.402       12.100        0.105        0.019       41.148        3.119        0.006      335.521        6.212      866.960
10/29/2014  06:28:00      -22.795      -14.313       -3.419        6.165        7.255        3.391       38.004       52.633       11.498        0.042        0.005       26.916        2.852        0.011      335.647        6.421      866.958
10/29/2014  06:29:00       -8.707      -24.503       -3.412        8.961        8.137        8.824       80.304       66.205       77.865        0.046        0.011       26.005        6.854        0.069      335.735        6.567      866.958
10/29/2014  06:30:00        4.485      -25.823       -5.200       10.318       11.256       11.181      106.453      126.690      125.015        0.054        0.018       26.210        8.771        0.112      335.860        6.775      866.977
10/29/2014  06:31:00       -6.270        7.026        9.331        7.447        9.273        7.610       55.460       85.997       57.905        0.019        0.010        9.417        3.858        0.168      335.539        6.240      867.009
10/29/2014  06:32:00       10.109       19.131       14.422        9.470        9.906        6.491       89.673       98.134       42.135        0.045        0.011       21.638        4.572        0.045      335.422        6.044      867.054
10/29/2014  06:33:00       26.044       40.500       -0.730        5.711        9.155        7.901       32.618       83.808       62.419        0.125        0.009       48.152        6.737        0.020      335.279        5.805      867.091
10/29/2014  06:34:00       33.875       53.865       -5.234       10.371       17.408       12.644      107.552      303.039      159.867        0.232        0.029       63.631       10.149        0.025      335.135        5.568      867.110
10/29/2014  06:35:00       24.249       26.363       -2.452       11.179       12.410       10.959      124.981      154.008      120.104        0.084        0.020       35.819        6.227        0.030      335.059        5.441      867.113
10/29/2014  06:36:00       20.969       23.628        0.759        8.394       12.567       10.328       70.453      157.921      106.677        0.067        0.017       31.591        6.248        0.039      335.150        5.591      867.098
10/29/2014  06:37:00       35.842       18.396        3.205        9.423        7.051        8.159       88.795       49.718       66.566        0.092        0.010       40.288        2.322        0.003      335.116        5.537      867.087
10/29/2014  06:38:00       45.776       28.607        9.040       11.772        8.429        6.049      138.583       71.044       36.586        0.162        0.012       53.980        5.201        0.009      335.221        5.710      867.078
10/29/2014  06:39:00       35.622       26.073        7.193        8.491        8.290        8.430       72.105       68.721       71.062        0.111        0.011       44.144        4.833        0.012      335.144        5.584      867.069
10/29/2014  06:40:00       20.572       22.624        2.665        8.568        7.514        8.418       73.418       56.453       70.863        0.057        0.010       30.579        5.991        0.038      335.102        5.513      867.062
10/29/2014  06:41:00       12.227        5.669        5.541       14.446       15.833        7.172      208.691      250.678       51.433        0.036        0.026       13.478        5.930        0.194      335.168        5.623      867.065
10/29/2014  06:42:00      -24.668      -35.431       -1.081       10.736       12.521        9.923      115.254      156.771       98.465        0.112        0.019       43.172        5.254        0.015      335.440        6.072      867.074
10/29/2014  06:43:00       -3.452      -22.374        0.738       12.539        9.891        7.531      157.220       97.835       56.711        0.041        0.016       22.638        4.190        0.034      335.558        6.272      867.079
10/29/2014  06:44:00       29.975      -12.843        1.709       16.207       19.305       11.130      262.652      372.676      123.875        0.091        0.038       32.610        9.553        0.086      335.620        6.374      867.085
10/29/2014  06:45:00       29.564       -9.553        3.681       16.195       16.038        9.008      262.280      257.206       81.143        0.079        0.030       31.069        5.934        0.036      335.660        6.441      867.088
10/29/2014  06:46:00       41.410        0.648        5.807       14.618       25.271       14.013      213.686      638.610      196.366        0.140        0.052       41.415       15.464        0.139      335.833        6.731      867.083
10/29/2014  06:47:00       -3.868       -0.355        8.918        9.591        7.377        6.997       91.991       54.416       48.961        0.014        0.010        3.884        4.864        1.568      335.573        6.297      867.079
10/29/2014  06:48:00       -1.586       -8.444        6.322        4.338        8.264        6.078       18.816       68.300       36.948        0.012        0.006        8.592        2.408        0.079      335.588        6.323      867.084
10/29/2014  06:49:00       -6.433       -2.903        4.864        8.082        7.595        5.499       65.317       57.688       30.244        0.011        0.008        7.057        1.695        0.058      335.514        6.198      867.088
10/29/2014  06:50:00      -26.547       -9.548       -2.092       10.009        5.479        4.523      100.180       30.015       20.454        0.048        0.008       28.212        2.309        0.007      335.435        6.067      867.084
10/29/2014  06:51:00      -41.553       -9.157       -5.975       10.333        7.187        6.764      106.769       51.648       45.752        0.103        0.010       42.550        5.953        0.020      335.404        6.014      867.081
10/29/2014  06:52:00      -63.040       -0.488       -9.408        6.028        7.971        5.529       36.334       63.534       30.573        0.210        0.007       63.042        3.003        0.002      335.380        5.974      867.084
10/29/2014  06:53:00      -57.401      -11.016       -6.387       14.600       14.113        9.965      213.160      199.178       99.299        0.198        0.026       58.448        7.921        0.018      335.424        6.047      867.083
10/29/2014  06:54:00      -56.692      -11.879      -13.416        9.186        8.442        8.087       84.374       71.274       65.397        0.188        0.011       57.923        5.827        0.010      335.448        6.088      867.073
10/29/2014  06:55:00      -60.580       -8.828       -7.421       18.823        8.977        8.184      354.315       80.583       66.980        0.215        0.025       61.220        7.095        0.013      335.251        5.758      867.068
10/29/2014  06:56:00      -59.196       -1.636      -12.889       13.665       10.595       10.115      186.722      112.254      102.307        0.204        0.020       59.218        6.932        0.014      335.174        5.634      867.062
10/29/2014  06:57:00      -34.852       -1.098      -10.045        7.856        7.666        5.332       61.713       58.760       28.430        0.073        0.007       34.869        3.387        0.009      335.199        5.673      867.068
10/29/2014  06:58:00      -34.604      -17.504       -7.304        8.472        9.684        6.319       71.769       93.771       39.927        0.088        0.010       38.779        4.351        0.013      335.353        5.928      867.076
10/29/2014  06:59:00      -51.869       -7.049       -7.359        7.255        7.081        5.463       52.630       50.145       29.843        0.146        0.007       52.346        3.282        0.004      335.274        5.799      867.086
10/29/2014  07:00:00      -59.338      -19.512      -11.718        8.813        9.873        8.285       77.663       97.485       68.646        0.214        0.012       62.463        2.695        0.002      335.213        5.695      867.089
10/29/2014  07:01:00      -61.547      -18.040      -10.045        9.734       11.124        7.964       94.743      123.738       63.427        0.225        0.014       64.136        3.481        0.003      335.202        5.679      867.085
10/29/2014  07:02:00      -74.324      -11.165      -11.998       17.249       16.066       11.586      297.527      258.103      134.236        0.324        0.034       75.158        7.851        0.011      335.108        5.525      867.071
10/29/2014  07:03:00      -72.167       -7.499       -8.300       24.892       22.771       16.373      619.591      518.521      268.071        0.337        0.070       72.555       13.482        0.035      335.072        5.464      867.068
10/29/2014  07:04:00      -77.242       -5.381      -11.562       11.684       11.354        9.736      136.520      128.911       94.781        0.324        0.018       77.429        5.127        0.004      335.010        5.361      867.063
10/29/2014  07:05:00      -75.212        1.257      -12.697       27.406       13.607       13.127      751.071      185.143      172.320        0.346        0.055       75.223        2.261        0.001      335.027        5.389      867.056
10/29/2014  07:06:00      -66.821       -4.872      -13.771       12.578       12.247        9.223      158.201      149.993       85.056        0.254        0.020       66.999        3.328        0.002      334.994        5.334      867.047
10/29/2014  07:07:00      -61.198      -14.432      -11.153       13.796        8.721        7.450      190.333       76.054       55.501        0.220        0.016       62.876        2.652        0.002      335.076        5.470      867.043
10/29/2014  07:08:00      -93.926       -8.573      -17.240       25.428       22.664       16.260      646.588      513.655      264.379        0.531        0.071       94.317       13.895        0.022      335.034        5.401      867.050
10/29/2014  07:09:00      -87.423      -14.969       -8.074       35.052       36.354       22.203     1228.674     1321.615      492.979        0.549        0.152       88.695       19.316        0.047      334.954        5.268      867.055
10/29/2014  07:10:00      -65.494      -23.605       -1.235       41.381       29.925       19.483     1712.356      895.518      379.605        0.392        0.149       69.617       17.921        0.066      334.912        5.197      867.055
10/29/2014  07:11:00      -26.218       -8.753       -0.375       25.524       21.449       17.789      651.458      460.078      316.448        0.110        0.071       27.641       14.557        0.277      334.929        5.226      867.048
10/29/2014  07:12:00      -36.156        5.373      -15.804       23.357       27.314       11.803      545.536      746.050      139.309        0.151        0.072       36.553        9.980        0.075      335.130        5.560      867.044
10/29/2014  07:13:00      -39.496      -10.048      -11.586       20.212       18.885       11.282      408.544      356.658      127.278        0.134        0.045       40.754       12.301        0.091      335.205        5.682      867.029
10/29/2014  07:14:00      -37.881      -27.989      -10.787       11.588       15.645        9.598      134.281      244.771       92.131        0.140        0.024       47.099        3.345        0.005      335.279        5.805      867.029
10/29/2014  07:15:00      -66.734      -23.169      -15.424       24.672       17.582       12.286      608.700      309.125      150.950        0.315        0.053       70.641       10.479        0.022      335.144        5.581      867.026
10/29/2014  07:16:00      -59.818      -21.344       -6.098       14.297       18.202       11.772      204.416      331.311      138.591        0.237        0.034       63.512        8.254        0.017      335.090        5.495      867.039
10/29/2014  07:17:00      -67.761      -10.922       -5.664       12.570       11.864       10.809      158.017      140.756      116.832        0.258        0.021       68.635        6.292        0.008      335.081        5.480      867.052
10/29/2014  07:18:00      -60.745       -0.404      -11.547       13.882        8.760        6.094      192.710       76.732       37.140        0.206        0.015       60.746        4.656        0.006      335.207        5.689      867.078
10/29/2014  07:19:00      -50.970      -11.974      -11.196        8.296        9.946        6.096       68.830       98.931       37.164        0.154        0.010       52.357        2.978        0.003      335.273        5.797      867.105
10/29/2014  07:20:00      -62.439      -18.694      -11.204        9.457        7.932        6.755       89.436       62.924       45.632        0.229        0.010       65.177        3.484        0.003      335.301        5.843      867.123
10/29/2014  07:21:00      -58.090      -15.034      -12.224        9.343       10.717        8.896       87.286      114.864       79.138        0.202        0.014       60.003        5.977        0.010      335.162        5.613      867.129
10/29/2014  07:22:00      -50.415      -23.480       -8.169        9.785       10.756        9.606       95.742      115.686       92.279        0.173        0.015       55.615        6.270        0.013      335.148        5.590      867.131
10/29/2014  07:23:00      -34.904      -23.192       -1.990        6.481        7.824        5.400       41.997       61.208       29.156        0.095        0.007       41.907        2.687        0.004      335.394        5.998      867.130
10/29/2014  07:24:00      -26.268      -30.669       -0.510       13.815       10.528        6.074      190.865      110.847       36.888        0.098        0.017       40.380        3.855        0.009      335.403        6.013      867.134
10/29/2014  07:25:00      -19.949      -25.765       -5.004       10.300        9.340       10.698      106.088       87.238      114.442        0.070        0.015       32.585        3.085        0.009      335.390        5.990      867.145
10/29/2014  07:26:00      -43.216      -23.861      -11.977       22.099       10.384       11.389      488.370      107.833      129.716        0.165        0.036       49.366        5.150        0.011      335.331        5.893      867.158
10/29/2014  07:27:00      -95.462      -18.656      -18.271       12.165       12.369        9.988      147.993      152.997       99.763        0.510        0.020       97.268        7.867        0.007      335.181        5.641      867.170
10/29/2014  07:28:00      -85.702        0.297      -14.936        9.898       19.409       12.339       97.976      376.720      152.262        0.410        0.031       85.702        6.803        0.006      335.177        5.638      867.177
10/29/2014  07:29:00      -76.929        2.468      -11.634       18.732        9.477       17.218      350.893       89.810      296.477        0.340        0.037       76.969       13.742        0.032      335.224        5.716      867.180
10/29/2014  07:30:00      -99.623       10.695      -16.139       22.470       11.464       13.846      504.886      131.416      191.723        0.556        0.041      100.195       13.244        0.017      335.197        5.670      867.171
10/29/2014  07:31:00      -70.246        4.210      -10.583       24.103        7.723       10.322      580.966       59.638      106.548        0.291        0.037       70.372       12.957        0.034      335.178        5.640      867.168
10/29/2014  07:32:00      -61.825       -5.815      -14.787       12.635       12.728        8.435      159.650      162.009       71.152        0.223        0.020       62.098        5.343        0.007      335.205        5.684      867.165
10/29/2014  07:33:00      -74.112       -9.267       -9.199       14.601        9.620        9.882      213.194       92.543       97.649        0.303        0.020       74.689        8.281        0.012      335.169        5.624      867.162
10/29/2014  07:34:00      -65.147      -18.528       -8.101       20.307       15.544       14.779      412.360      241.626      218.430        0.276        0.044       67.731       13.198        0.038      335.258        5.771      867.165
10/29/2014  07:35:00      -68.109      -25.789       -6.902       14.603       19.250       12.054      213.250      370.570      145.300        0.304        0.036       72.828        8.479        0.014      335.283        5.813      867.177
10/29/2014  07:36:00      -65.915      -23.712      -17.514       12.982       15.069       11.988      168.520      227.073      143.714        0.288        0.027       70.051        9.479        0.018      335.251        5.760      867.195
10/29/2014  07:37:00      -70.719       -5.141      -17.048        9.176       10.019        6.965       84.193      100.382       48.516        0.278        0.012       70.905        3.470        0.002      335.253        5.763      867.198
10/29/2014  07:38:00      -71.069        6.588       -5.828       14.363       11.533        8.878      206.294      133.008       78.825        0.277        0.021       71.373        8.424        0.014      335.326        5.885      867.207
10/29/2014  07:39:00      -66.993        6.420      -11.832        7.662        6.060        6.508       58.709       36.726       42.352        0.240        0.007       67.300        4.771        0.005      335.321        5.876      867.203
10/29/2014  07:40:00      -37.037        7.644       -1.572       16.032       13.279        9.298      257.029      176.341       86.459        0.098        0.026       37.818        3.384        0.008      335.488        6.155      867.205
10/29/2014  07:41:00       -9.327       16.382        1.493       10.593        7.595        7.004      112.214       57.685       49.056        0.029        0.011       18.851        5.418        0.083      335.646        6.418      867.201
10/29/2014  07:42:00       16.405        8.768        2.445        9.038       10.715        5.179       81.678      114.814       26.818        0.029        0.011       18.601        2.804        0.023      335.765        6.618      867.200
10/29/2014  07:43:00       12.319       10.489        2.064       12.205        7.930        7.004      148.954       62.878       49.060        0.026        0.013       16.180        3.553        0.048      335.723        6.547      867.206
10/29/2014  07:44:00        7.718       16.560        1.186       11.010       15.992       10.080      121.229      255.742      101.602        0.041        0.024       18.270        6.418        0.123      335.770        6.625      867.202
10/29/2014  07:45:00        8.167       13.201        0.174        9.715       10.435        7.818       94.389      108.884       61.113        0.025        0.013       15.524        5.131        0.109      335.794        6.667      867.203
10/29/2014  07:46:00       13.111       17.408       -1.483       13.064       14.829        8.619      170.663      219.906       74.295        0.047        0.023       21.793        8.517        0.153      335.837        6.737      867.206
10/29/2014  07:47:00        9.254       21.972       -2.856       15.758       16.254        9.342      248.308      264.186       87.275        0.059        0.030       23.841        8.223        0.119      335.875        6.802      867.213
10/29/2014  07:48:00        7.934       45.036       -5.913        8.400        7.576        4.022       70.555       57.390       16.176        0.114        0.007       45.730        1.685        0.001      335.901        6.844      867.226
10/29/2014  07:49:00        0.440       52.743       -7.048        8.065        6.929        5.403       65.049       48.010       29.193        0.149        0.007       52.745        3.997        0.006      335.933        6.897      867.248
10/29/2014  07:50:00        9.124       44.971       -8.138        6.045        9.495        4.436       36.546       90.151       19.674        0.116        0.007       45.887        3.350        0.005      335.919        6.875      867.265
10/29/2014  07:51:00        6.720       11.974       -1.465       11.342       13.504        6.426      128.634      182.347       41.289        0.027        0.018       13.731        6.567        0.229      335.982        6.977      867.281
10/29/2014  07:52:00       -4.549       13.987        1.891        8.782       11.820        6.284       77.120      139.716       39.483        0.024        0.013       14.709        6.018        0.167      336.026        7.051      867.310
10/29/2014  07:53:00      -11.859       11.535        1.797        8.116        8.613        4.874       65.864       74.189       23.753        0.022        0.008       16.544        4.119        0.062      335.969        6.955      867.330
10/29/2014  07:54:00        1.237        3.683        9.149        7.602        6.252        5.819       57.788       39.087       33.864        0.011        0.007        3.885        4.492        1.337      336.036        7.067      867.359
10/29/2014  07:55:00        2.803        5.157        4.528        7.997        8.210        6.928       63.955       67.410       47.996        0.012        0.009        5.869        6.145        1.096      336.137        7.236      867.374
10/29/2014  07:56:00       11.978       19.897       -1.338        8.520       12.930        8.014       72.587      167.178       64.229        0.042        0.015       23.225        7.471        0.103      336.088        7.154      867.391
10/29/2014  07:57:00       10.188       19.571       -1.012        8.449       13.708        7.762       71.380      187.908       60.253        0.040        0.016       22.064        8.038        0.133      336.163        7.281      867.410
10/29/2014  07:58:00       12.032       28.918       -3.699        9.570       18.135        7.687       91.578      328.888       59.094        0.074        0.024       31.322        8.745        0.078      336.181        7.309      867.426
10/29/2014  07:59:00       10.709       21.847       -0.387       10.044       11.717        9.318      100.888      137.291       86.822        0.046        0.016       24.331        5.739        0.056      336.236        7.402      867.434
10/29/2014  08:00:00       23.566       31.761       -0.496       21.036       13.787       10.532      442.513      190.092      110.920        0.115        0.037       39.549       10.241        0.067      336.187        7.318      867.440
10/29/2014  08:01:00       52.136       36.907        2.187       11.244       10.386        8.206      126.421      107.859       67.338        0.219        0.015       63.877        6.067        0.009      336.125        7.216      867.444
10/29/2014  08:02:00       18.732       20.224        1.937       15.583       15.075        8.810      242.831      227.241       77.622        0.066        0.027       27.566        7.713        0.078      336.242        7.412      867.449
10/29/2014  08:03:00        5.345        3.936        6.561       11.304       11.028        6.871      127.782      121.627       47.213        0.019        0.015        6.638        5.940        0.801      336.345        7.584      867.458
10/29/2014  08:04:00       13.335        8.247        1.350       11.920        7.009        8.650      142.083       49.125       74.820        0.026        0.013       15.680        4.809        0.094      336.305        7.517      867.471
10/29/2014  08:05:00       23.139       19.435        8.316       14.499        9.385       10.368      210.217       88.084      107.487        0.069        0.020       30.217        8.545        0.080      336.264        7.448      867.483
10/29/2014  08:06:00       30.006       20.203        1.693       11.357       14.460        9.453      128.990      209.102       89.362        0.087        0.021       36.173        8.036        0.049      336.251        7.425      867.500
10/29/2014  08:07:00       15.875        4.491        6.759       13.357       10.491        9.156      178.400      110.060       83.834        0.035        0.019       16.498        5.532        0.112      336.277        7.470      867.516
10/29/2014  08:08:00       16.349       10.635       -9.128       13.882       12.236        9.762      192.709      149.730       95.297        0.045        0.022       19.504        8.944        0.210      336.358        7.606      867.525
10/29/2014  08:09:00        5.837        3.228        6.927        6.487        7.163        9.330       42.077       51.310       87.044        0.014        0.009        6.670        4.161        0.389      336.569        7.959      867.530
10/29/2014  08:10:00       37.098       25.399        2.851       13.769       17.143       10.160      189.573      293.877      103.216        0.131        0.029       44.960        6.288        0.020      336.323        7.549      867.530
10/29/2014  08:11:00       38.582       26.772        6.338        9.335        6.230       10.498       87.140       38.819      110.218        0.124        0.012       46.961        3.951        0.007      336.309        7.523      867.526
10/29/2014  08:12:00       29.862       20.013       -2.293        7.631        7.852        8.554       58.232       61.652       73.169        0.075        0.010       35.948        4.544        0.016      336.370        7.626      867.525
10/29/2014  08:13:00       10.069        9.951       -6.240        8.089        6.653        9.467       65.427       44.262       89.619        0.022        0.010       14.157        5.788        0.167      336.494        7.834      867.521
10/29/2014  08:14:00        9.906       12.937       12.928       14.217       10.071        8.318      202.129      101.428       69.195        0.040        0.019       16.294        7.216        0.196      336.674        8.135      867.516
10/29/2014  08:15:00        1.595        8.910       15.639       12.345        8.635       11.284      152.411       74.556      127.324        0.034        0.018        9.052        9.591        1.123      336.895        8.504      867.518
10/29/2014  08:16:00        3.747       12.908       19.714       10.467        8.880        7.215      109.566       78.852       52.051        0.040        0.012       13.440        5.791        0.186      336.816        8.372      867.534
10/29/2014  08:17:00       24.953       22.537        9.905       24.869       17.353       15.854      618.468      301.140      251.334        0.120        0.059       33.624       13.711        0.166      336.604        8.018      867.567
10/29/2014  08:18:00       14.467        5.684        0.287       16.286       11.408        7.945      265.232      130.150       63.129        0.035        0.023       15.543        6.491        0.174      336.656        8.106      867.598
10/29/2014  08:19:00       28.992       25.678        8.854       11.283       12.522       14.373      127.316      156.812      206.578        0.103        0.025       38.728        6.356        0.027      336.610        8.027      867.631
10/29/2014  08:20:00       31.291       30.084       -7.199       12.564        5.950       10.863      157.845       35.398      118.006        0.112        0.016       43.408        8.690        0.040      336.505        7.853      867.655
10/29/2014  08:21:00       -4.828       23.828       -5.328        9.606       11.811       10.548       92.280      139.491      111.265        0.048        0.017       24.312        9.250        0.145      336.584        7.985      867.672
10/29/2014  08:22:00        0.194        8.724       11.112       11.125       16.690       14.939      123.767      278.549      223.164        0.041        0.031        8.726       11.410        1.710      336.951        8.597      867.673
10/29/2014  08:23:00        8.354       44.244       -3.617        8.131       15.378       14.792       66.111      236.492      218.806        0.128        0.026       45.026       11.748        0.068      336.728        8.226      867.684
10/29/2014  08:24:00       -1.122       11.345        6.863       11.463       18.255       12.797      131.408      333.256      163.753        0.040        0.031       11.400        8.638        0.574      336.964        8.620      867.707
10/29/2014  08:25:00        4.844        3.809       17.523       16.188       10.709       12.818      262.064      114.685      164.298        0.044        0.027        6.162        7.350        1.422      337.053        8.767      867.741
10/29/2014  08:26:00        4.774       13.236       15.841       17.058       14.263       13.717      290.977      203.437      188.162        0.057        0.034       14.071       13.503        0.921      337.038        8.742      867.772
10/29/2014  08:27:00       19.630       14.393       15.436       22.027       12.852       14.488      485.209      165.171      209.914        0.085        0.043       24.341        8.988        0.136      336.953        8.600      867.805
10/29/2014  08:28:00       19.978       17.490       12.082       15.488       10.521       20.803      239.881      110.693      432.769        0.082        0.039       26.553       11.290        0.181      336.974        8.636      867.823
10/29/2014  08:29:00       23.353       18.891       37.250       18.836       10.678       12.510      354.777      114.011      156.501        0.146        0.031       30.038        5.572        0.034      337.060        8.779      867.834
10/29/2014  08:30:00       64.493       35.441       16.342       18.875       16.019       19.717      356.256      256.598      388.761        0.334        0.050       73.590       14.307        0.038      336.810        8.362      867.840
10/29/2014  08:31:00       32.062       27.639       28.925       35.029       22.379       27.215     1226.997      500.811      740.669        0.255        0.123       42.331       24.332        0.330      336.978        8.641      867.843
10/29/2014  08:32:00       41.364       53.721       39.339       32.115       22.497       26.352     1031.387      506.107      694.451        0.419        0.112       67.800       21.118        0.097      336.910        8.528      867.849
10/29/2014  08:33:00       36.074       34.836       20.539       15.353       12.881       11.454      235.726      165.923      131.193        0.173        0.027       50.149        6.806        0.018      336.790        8.331      867.860
10/29/2014  08:34:00       45.646       43.337       47.965       25.007       27.219       18.870      625.349      740.851      356.084        0.399        0.086       62.941       18.333        0.085      336.997        8.674      867.872
10/29/2014  08:35:00       62.623       62.463       35.115       35.069       19.014       29.449     1229.827      361.529      867.248        0.576        0.123       88.449       20.798        0.055      336.870        8.461      867.867
10/29/2014  08:36:00      111.370       64.647       33.952       18.482       14.135       19.886      341.577      199.791      395.442        0.934        0.047      128.773        8.408        0.004      336.784        8.318      867.850
10/29/2014  08:37:00       85.376       75.808       44.916       31.228       19.332       30.392      975.176      373.738      923.698        0.866        0.114      114.175       19.820        0.030      336.776        8.306      867.841
10/29/2014  08:38:00       67.071       47.414       40.026       27.032       18.486       24.383      730.732      341.728      594.551        0.501        0.083       82.138       14.881        0.033      336.827        8.390      867.829
10/29/2014  08:39:00       43.632      -41.123       18.596       34.251       62.453       37.867     1173.113     3900.412     1433.884        0.522        0.325       59.957       47.873        0.638      336.874        8.468      867.821
10/29/2014  08:40:00       31.752      -37.412       -7.068       30.830       36.632       23.413      950.504     1341.927      548.166        0.265        0.142       49.070       21.243        0.187      336.981        8.647      867.830
10/29/2014  08:41:00        6.665       20.600       52.051       23.291       26.894       18.956      542.453      723.269      359.313        0.240        0.081       21.652       16.555        0.585      337.264        9.120      867.851
10/29/2014  08:42:00       27.946      -46.100       15.200       40.735       55.037       33.563     1659.368     3029.034     1126.494        0.447        0.291       53.909       35.973        0.445      337.298        9.178      867.892
10/29/2014  08:43:00       16.362       -8.701       23.169       28.690       23.350       28.607      823.141      545.217      818.341        0.153        0.109       18.531       14.899        0.646      337.346        9.258      867.924
10/29/2014  08:44:00       -2.243       14.454       45.480       24.969       27.682       24.337      623.438      766.312      592.266        0.213        0.099       14.627       20.300        1.926      337.352        9.268      867.948
10/29/2014  08:45:00       -0.187       -3.862       24.893       11.729       21.858       10.471      137.577      477.756      109.645        0.068        0.036        3.866       12.107        9.806      337.414        9.372      867.966
10/29/2014  08:46:00      -14.946       13.496       27.066       15.304       17.851       21.621      234.207      318.662      467.480        0.108        0.051       20.137       17.840        0.785      337.281        9.149      867.978
10/29/2014  08:47:00      -41.713       21.304       -0.214       16.521       12.973       13.875      272.955      168.308      192.506        0.141        0.032       46.838        7.731        0.027      337.090        8.828      867.981
10/29/2014  08:48:00      -12.888        0.357        6.912       24.323       15.559       14.557      591.632      242.085      211.901        0.063        0.052       12.893       14.853        1.327      337.204        9.020      867.978
10/29/2014  08:49:00      -16.901       -4.511        0.170       14.188       13.748       13.495      201.306      188.997      182.104        0.044        0.029       17.493        9.703        0.308      337.243        9.085      867.977
10/29/2014  08:50:00      -20.257        4.888        1.165       19.267       19.793       20.279      371.227      391.770      411.224        0.080        0.059       20.838       12.709        0.372      337.247        9.091      867.988
10/29/2014  08:51:00      -12.103        9.078        1.093       22.967       18.135       27.444      527.464      328.889      753.188        0.092        0.080       15.129       21.923        2.100      337.402        9.353      867.990
10/29/2014  08:52:00      -33.441       -3.181       -9.929       27.032       38.446       12.299      730.735     1478.118      151.273        0.179        0.118       33.592       16.167        0.232      337.123        8.885      867.987
10/29/2014  08:53:00      -36.692      -13.027       -7.339       20.008       40.940       15.799      400.338     1676.059      249.608        0.195        0.116       38.936        9.851        0.064      337.053        8.767      867.975
10/29/2014  08:54:00      -35.564       -4.580        2.056       23.324       21.631       11.442      544.030      467.887      130.910        0.122        0.057       35.858        7.437        0.043      337.136        8.905      867.964
10/29/2014  08:55:00       -1.865       12.128        9.966       16.455       10.755       13.106      270.770      115.659      171.757        0.040        0.028       12.271        8.704        0.503      337.329        9.228      867.956
10/29/2014  08:56:00      -61.026      -37.830       -4.491       25.073       28.495       16.188      628.669      811.949      262.041        0.344        0.085       71.800       12.499        0.030      337.043        8.749      867.967
10/29/2014  08:57:00      -27.213      -32.839       10.014       30.487       24.534       16.879      929.461      601.901      284.900        0.187        0.091       42.649       12.656        0.088      337.167        8.959      867.983
10/29/2014  08:58:00      -33.650      -64.662       -2.224       34.235       30.167       17.987     1172.009      910.029      323.533        0.386        0.120       72.894       11.599        0.025      337.127        8.892      867.985
10/29/2014  08:59:00      -35.178      -53.488        0.473       23.904       25.129       15.592      571.389      631.462      243.106        0.277        0.072       64.019       15.018        0.055      337.122        8.882      867.998
10/29/2014  09:00:00      -55.707      -20.753       -6.184       17.597       18.679       13.167      309.657      348.892      173.366        0.220        0.042       59.447        6.401        0.012      337.135        8.904      867.992
10/29/2014  09:01:00      -59.054      -18.169       -9.623       22.259       15.867       12.507      495.457      251.776      156.430        0.241        0.045       61.786       13.102        0.045      337.178        8.978      867.991
10/29/2014  09:02:00      -51.811      -15.695      -18.115       27.342       23.539       18.992      747.608      554.100      360.706        0.246        0.083       54.136       12.238        0.051      337.205        9.021      867.994
10/29/2014  09:03:00      -72.883       -1.943        8.144       42.554       32.546       23.672     1810.817     1059.249      560.353        0.441        0.172       72.909       21.803        0.089      337.251        9.100      867.991
10/29/2014  09:04:00      -59.671      -16.651        0.076       22.845       33.683       12.802      521.877     1134.544      163.883        0.283        0.091       61.951        8.095        0.017      337.213        9.035      868.001
10/29/2014  09:05:00      -27.024      -36.481       10.049       22.247       28.340       15.883      494.951      803.180      252.282        0.186        0.078       45.400       13.308        0.086      337.340        9.248      867.999
10/29/2014  09:06:00      -37.895      -17.273        5.204       38.583       27.747       19.206     1488.676      769.871      368.854        0.219        0.131       41.646       18.420        0.196      337.435        9.407      868.004
10/29/2014  09:07:00      -47.106      -14.979       -2.748       19.471        9.519        9.440      379.134       90.611       89.123        0.150        0.028       49.430        9.355        0.036      337.354        9.271      867.993
10/29/2014  09:08:00      -89.600      -50.713      -11.689       25.370       19.931       15.068      643.612      397.237      227.043        0.600        0.063      102.956        8.023        0.006      337.350        9.264      867.985
10/29/2014  09:09:00      -19.612      -11.328        5.478       20.269       17.787       16.949      410.844      316.386      287.252        0.078        0.051       22.648       15.949        0.496      337.674        9.807      867.981
10/29/2014  09:10:00     -104.450        9.665       -0.566       39.429       47.741       23.232     1554.642     2279.248      539.710        0.769        0.219      104.896       21.903        0.044      337.254        9.105      867.987
10/29/2014  09:11:00      -77.105       -7.399       -9.959       19.687       12.441       14.262      387.595      154.769      203.403        0.342        0.037       77.460       13.175        0.029      337.186        8.990      868.009
10/29/2014  09:12:00      -75.439        7.734       -8.781       18.168       10.218       10.912      330.071      104.399      119.072        0.319        0.028       75.834        5.991        0.006      337.278        9.146      868.029
10/29/2014  09:13:00      -74.601      -14.517       -9.178       18.403       12.021       13.196      338.687      144.499      174.146        0.326        0.033       76.000       12.609        0.028      337.303        9.185      868.048
10/29/2014  09:14:00      -54.544      -19.162       -3.766        9.109       10.366        8.339       82.979      107.449       69.532        0.181        0.013       57.812        6.049        0.011      337.327        9.225      868.068
10/29/2014  09:15:00      -68.042      -20.684       -4.330       13.926       25.001        8.327      193.936      625.053       69.332        0.298        0.044       71.117        3.519        0.002      337.395        9.338      868.081
10/29/2014  09:16:00      -45.759      -12.002        7.010       26.978       23.287       14.467      727.823      542.296      209.306        0.188        0.074       47.306       12.604        0.071      337.563        9.621      868.091
10/29/2014  09:17:00      -49.449       -4.481        4.317       28.932       20.437       13.845      837.078      417.677      191.684        0.196        0.072       49.652       15.568        0.098      337.645        9.758      868.094
10/29/2014  09:18:00      -52.115      -31.433       -3.426       26.078       22.310       12.455      680.037      497.736      155.134        0.252        0.067       60.861       15.572        0.065      337.586        9.660      868.082
10/29/2014  09:19:00      -33.781       15.435       -7.744       15.798       20.181       12.259      249.592      407.290      150.272        0.112        0.040       37.141        6.341        0.029      337.595        9.674      868.075
10/29/2014  09:20:00      -41.637       -6.541       -9.410       16.179        9.631        6.428      261.767       92.759       41.319        0.113        0.020       42.148        2.526        0.004      337.614        9.706      868.074
10/29/2014  09:21:00      -25.744      -17.383       -0.769       13.450       12.096        7.953      180.891      146.305       63.254        0.068        0.020       31.063        7.395        0.057      337.721        9.888      868.062
10/29/2014  09:22:00      -29.615      -22.894       -9.527       14.771       12.048        7.790      218.178      145.147       60.689        0.096        0.021       37.432        3.133        0.007      337.748        9.932      868.072
10/29/2014  09:23:00      -35.267       -8.745        3.823       11.782       10.625        6.771      138.810      112.887       45.849        0.082        0.015       36.335        2.807        0.006      337.836       10.079      868.062
10/29/2014  09:24:00      -13.357        8.382       43.536       15.025       25.372       20.248      225.757      643.733      409.998        0.171        0.064       15.770       18.064        1.312      338.645       11.437      868.065
10/29/2014  09:25:00       -1.023       42.470       62.312       21.078       32.773       28.065      444.286     1074.052      787.647        0.400        0.115       42.482       26.473        0.388      338.312       10.878      868.050
10/29/2014  09:26:00       16.570       50.914       56.863       20.829       23.329       16.561      433.835      544.236      274.280        0.368        0.063       53.543       13.026        0.059      338.054       10.446      868.036
10/29/2014  09:27:00       23.044       33.908       29.750       12.460       12.408       14.798      155.259      153.952      218.966        0.155        0.026       40.997        8.640        0.044      337.956       10.281      868.027
10/29/2014  09:28:00       17.974       26.942       29.843       25.749       18.381       25.281      663.028      337.872      639.120        0.179        0.082       32.387       16.115        0.248      338.177       10.651      868.024
10/29/2014  09:29:00       25.152       30.444       10.886       18.400       13.641       19.728      338.561      186.070      389.204        0.130        0.046       39.490        7.971        0.041      338.019       10.386      868.030
10/29/2014  09:30:00        0.678        1.583        3.782        8.421       12.386       12.705       70.919      153.413      161.423        0.020        0.019        1.722        4.483        6.775      338.349       10.940      868.038
10/29/2014  09:31:00       -0.451      -15.659        8.188       19.393       17.218       11.024      376.075      296.447      121.530        0.055        0.040       15.666        9.194        0.344      338.483       11.166      868.058
10/29/2014  09:32:00       -5.089       31.545       51.465       16.561       30.817       21.479      274.254      949.662      461.366        0.268        0.084       31.953       22.396        0.491      338.724       11.569      868.077
10/29/2014  09:33:00       36.827       22.907        5.813       19.635       26.015       33.374      385.522      676.782     1113.834        0.205        0.109       43.370       17.841        0.169      338.250       10.773      868.099
10/29/2014  09:34:00       32.578       32.912       21.249       29.332       23.370       26.437      860.369      546.135      698.900        0.235        0.105       46.309       23.017        0.247      338.519       11.227      868.106
10/29/2014  09:35:00       20.426       18.749       18.918       25.587       19.006       23.359      654.670      361.242      545.665        0.134        0.078       27.726       17.950        0.419      338.414       11.050      868.108
10/29/2014  09:36:00      -20.212       -5.817       -1.693       12.027       12.964        6.675      144.660      168.056       44.560        0.040        0.018       21.033        5.836        0.077      338.402       11.030      868.121
10/29/2014  09:37:00      -31.517       -7.631       -0.141       11.908       12.033       11.079      141.811      144.805      122.753        0.073        0.020       32.428        4.212        0.017      338.415       11.051      868.124
10/29/2014  09:38:00        2.682       19.645       31.387       32.222       23.366       23.293     1038.245      545.974      542.572        0.175        0.106       19.827       17.021        0.737      338.783       11.671      868.133
10/29/2014  09:39:00        9.015       12.880       35.612       27.854       27.931       21.157      775.842      780.143      447.603        0.176        0.100       15.722       22.638        2.073      339.091       12.188      868.143
10/29/2014  09:40:00        0.578       23.726       53.169       21.688       32.963       19.191      470.376     1086.528      368.296        0.266        0.096       23.733       15.999        0.454      338.919       11.899      868.155
10/29/2014  09:41:00      -34.597        8.036       22.961       21.005       25.887       17.547      441.215      670.156      307.882        0.160        0.071       35.518       15.577        0.192      338.701       11.532      868.144
10/29/2014  09:42:00        0.644       24.133       33.895       18.656       21.286       12.514      348.038      453.112      156.588        0.134        0.048       24.142       10.033        0.173      338.932       11.920      868.130
10/29/2014  09:43:00        7.516        8.894       17.948       16.940       12.694       16.835      286.970      161.143      283.421        0.059        0.037       11.645        7.937        0.465      338.980       12.002      868.113
10/29/2014  09:44:00      -26.490      -11.671       -5.693       17.655       14.388       12.764      311.714      207.005      162.921        0.078        0.034       28.947        8.867        0.094      338.699       11.527      868.095
10/29/2014  09:45:00      -40.048      -20.313       -6.431       17.228       16.078       13.863      296.791      258.491      192.197        0.140        0.037       44.905        6.717        0.022      338.495       11.185      868.085
10/29/2014  09:46:00       -3.196        2.629       30.310       18.782       21.964       20.414      352.767      482.412      416.734        0.109        0.063        4.138       17.591       18.071      339.188       12.352      868.079
10/29/2014  09:47:00       30.127       44.673       47.135       41.229       30.814       27.325     1699.813      949.522      746.628        0.426        0.170       53.883       21.704        0.162      338.969       11.983      868.070
10/29/2014  09:48:00       22.554       64.381       62.724       43.811       39.088       31.704     1919.426     1527.876     1005.148        0.652        0.223       68.218       30.518        0.200      338.943       11.937      868.073
10/29/2014  09:49:00        2.226        8.788       48.965       30.617       24.348       21.517      937.397      592.826      462.999        0.224        0.100        9.066       14.200        2.453      339.279       12.504      868.069
10/29/2014  09:50:00       10.962      -25.218       22.056       18.927       28.065       20.817      358.245      787.641      433.354        0.141        0.079       27.497       10.720        0.152      339.242       12.441      868.073
10/29/2014  09:51:00        2.156      -19.249       35.050       16.891       30.858       21.128      285.323      952.231      446.394        0.164        0.084       19.370       18.749        0.937      339.422       12.744      868.084
10/29/2014  09:52:00       29.772       -5.920       20.364       36.950       32.862       29.660     1365.333     1079.943      879.723        0.233        0.166       30.355       23.566        0.603      339.087       12.181      868.093
10/29/2014  09:53:00        0.764      -13.289       16.930       25.144       23.003       16.226      632.219      529.141      263.287        0.094        0.071       13.311       14.102        1.122      339.349       12.622      868.090
10/29/2014  09:54:00      -30.876      -33.261        5.272       18.090       20.684       20.554      327.240      427.847      422.452        0.163        0.059       45.383       11.803        0.068      338.985       12.010      868.096
10/29/2014  09:55:00      -21.903        2.889       18.905       18.552       19.106       20.052      344.172      365.038      402.099        0.098        0.056       22.092       13.842        0.393      339.440       12.775      868.093
10/29/2014  09:56:00      -12.830      -32.969       25.426       30.438       46.120       34.818      926.461     2127.033     1212.278        0.308        0.213       35.378       13.564        0.147      339.426       12.751      868.082
10/29/2014  09:57:00       18.834        2.843       32.333       24.437       29.875       25.694      597.157      892.535      660.168        0.178        0.107       19.047       16.580        0.758      339.555       12.969      868.069
10/29/2014  09:58:00       -8.803       -2.455       37.421       28.584       21.001       11.065      817.070      441.055      122.442        0.143        0.069        9.139        9.888        1.171      339.719       13.244      868.045
10/29/2014  09:59:00      -20.400        8.037       27.101       21.653       22.059       15.200      468.847      486.578      231.026        0.120        0.059       21.927       12.193        0.309      339.612       13.065      868.044
10/29/2014  10:00:00      -47.437      -22.040        4.284       35.464       37.314       20.505     1257.687     1392.315      420.474        0.291        0.154       52.307       23.675        0.205      339.062       12.139      868.052
10/29/2014  10:01:00      -51.092      -19.666        2.130       31.646       36.187       17.435     1001.481     1309.523      303.968        0.281        0.131       54.746       15.082        0.076      339.007       12.045      868.067
10/29/2014  10:02:00      -61.793      -62.287       -5.977       29.923       30.565       17.825      895.391      934.234      317.734        0.494        0.107       87.738       14.527        0.027      338.784       11.670      868.093
10/29/2014  10:03:00      -83.971      -76.499       -8.065       34.520       25.326       17.048     1191.628      641.406      290.625        0.755        0.106      113.592       18.547        0.027      338.758       11.627      868.111
10/29/2014  10:04:00     -105.523      -73.708      -12.559       25.556       26.657       18.342      653.105      710.576      336.422        0.921        0.085      128.717       13.918        0.012      338.761       11.631      868.124
10/29/2014  10:05:00      -93.020      -52.343       -8.313       13.271       15.643       11.903      176.130      244.698      141.677        0.601        0.028      106.735        3.880        0.001      338.765       11.639      868.130
10/29/2014  10:06:00      -56.881      -23.738       -8.844       19.605       16.462       10.153      384.354      270.996      103.083        0.232        0.038       61.635        6.297        0.010      338.849       11.779      868.136
10/29/2014  10:07:00      -46.364      -30.226       -7.569       17.116       21.392       10.922      292.959      457.612      119.295        0.200        0.043       55.347        6.936        0.016      338.888       11.844      868.142
10/29/2014  10:08:00      -67.562      -48.326      -10.616       26.192       29.784       16.748      686.034      887.078      280.489        0.443        0.093       83.067       15.277        0.034      338.916       11.890      868.156
10/29/2014  10:09:00      -30.206      -42.755        2.140       19.618       21.567       16.997      384.853      465.122      288.891        0.194        0.057       52.349       10.890        0.043      338.989       12.015      868.168
10/29/2014  10:10:00      -74.501      -70.512       -3.100       34.550       40.067       21.844     1193.725     1605.390      477.143        0.690        0.164      102.578       15.636        0.023      338.985       12.010      868.165
10/29/2014  10:11:00      -64.129      -75.577       -0.625       31.950       32.900       26.736     1020.794     1082.423      714.827        0.632        0.141       99.118       25.791        0.068      339.030       12.085      868.156
10/29/2014  10:12:00      -78.162      -86.882      -10.677       23.026       28.381       17.274      530.185      805.504      298.378        0.770        0.082      116.867       18.900        0.026      338.949       11.948      868.152
10/29/2014  10:13:00      -72.097      -73.499       -8.541       18.937       20.205       17.402      358.618      408.231      302.846        0.587        0.053      102.957       10.957        0.011      339.010       12.050      868.136
10/29/2014  10:14:00      -55.652      -23.664       -5.637        9.865       11.241        8.424       97.317      126.359       70.967        0.199        0.015       60.474        4.084        0.005      339.011       12.052      868.121
10/29/2014  10:15:00      -39.700      -20.442       -1.356       13.755       13.904        9.249      189.212      193.312       85.550        0.123        0.023       44.654        5.558        0.015      339.107       12.214      868.116
10/29/2014  10:16:00      -11.162        3.325        9.245        7.578        8.697       12.086       57.423       75.633      146.073        0.025        0.014       11.647        6.190        0.282      339.794       13.373      868.114
10/29/2014  10:17:00      -22.970       11.376       -1.314       19.809       16.070       15.975      392.378      258.239      255.200        0.078        0.045       25.633        6.206        0.059      339.649       13.128      868.096
10/29/2014  10:18:00      -44.956       22.257       28.791       35.581       28.276       31.573     1266.014      799.524      996.823        0.320        0.153       50.164       21.035        0.176      339.701       13.214      868.081
10/29/2014  10:19:00      -15.388       25.624       56.002       21.834       30.896       26.160      476.715      954.548      684.349        0.307        0.106       29.889       20.207        0.457      339.935       13.609      868.063
10/29/2014  10:20:00        9.822       16.976       33.447       16.381       22.897       14.639      268.326      524.265      214.305        0.125        0.050       19.613       11.953        0.371      340.070       13.838      868.046
10/29/2014  10:21:00       -7.604       11.073       42.065       20.613       16.489       15.293      424.890      271.886      233.873        0.144        0.047       13.433       13.773        1.051      340.406       14.405      868.041
10/29/2014  10:22:00       -1.932       12.644       49.773       21.078       19.149       21.088      444.287      366.683      444.702        0.195        0.063       12.791       16.830        1.731      340.343       14.299      868.034
10/29/2014  10:23:00       43.900       49.166       45.628       44.220       41.548       31.595     1955.385     1726.225      998.247        0.555        0.234       65.913       23.758        0.130      339.707       13.225      868.032
10/29/2014  10:24:00       31.979       33.182       41.758       41.088       48.024       32.787     1688.199     2306.273     1074.989        0.447        0.253       46.084       30.690        0.444      339.838       13.446      868.021
10/29/2014  10:25:00       11.763        6.259       42.162       29.084       55.242       34.359      845.898     3051.678     1180.550        0.352        0.254       13.324       38.338        8.279      340.120       13.922      868.007
10/29/2014  10:26:00       27.888      -69.643       23.305       36.780       47.658       27.345     1352.805     2271.256      747.771        0.527        0.219       75.020       15.876        0.045      339.594       13.036      867.983
10/29/2014  10:27:00       -0.685       21.927       35.700       22.835       22.096       30.023      521.450      488.218      901.368        0.183        0.096       21.938       19.278        0.772      340.209       14.072      867.971
10/29/2014  10:28:00       -4.195       13.295       55.049       17.116       24.654       20.602      292.974      607.820      424.444        0.227        0.066       13.941       14.315        1.054      340.519       14.595      867.964
10/29/2014  10:29:00       28.019       40.990       51.714       30.924       32.524       19.436      956.311     1057.779      377.763        0.377        0.120       49.652       14.260        0.082      340.159       13.988      867.964
10/29/2014  10:30:00       55.849       21.108        5.963       48.770       54.878       39.097     2378.541     3011.589     1528.548        0.526        0.346       59.704       20.281        0.115      340.119       13.920      867.973
10/29/2014  10:31:00        2.164      -17.044       39.698       38.988       43.809       43.259     1520.102     1919.203     1871.352        0.359        0.266       17.181       37.173        4.681      340.418       14.426      867.958
10/29/2014  10:32:00       -4.420       23.682       66.969       28.472       31.584       19.002      810.628      997.576      361.066        0.362        0.108       24.091       16.290        0.457      340.267       14.168      867.965
10/29/2014  10:33:00       49.135       73.864       53.382       40.293       28.769       29.881     1623.538      827.651      892.874        0.703        0.167       88.714       22.007        0.062      339.851       13.468      867.950
10/29/2014  10:34:00       55.758       40.643       -5.423       32.708       34.053       27.229     1069.817     1159.586      741.440        0.388        0.149       68.998       20.136        0.085      339.982       13.689      867.949
10/29/2014  10:35:00       16.991       65.338       66.401       45.896       47.062       36.801     2106.433     2214.857     1354.340        0.732        0.284       67.511       27.982        0.172      340.485       14.538      867.932
10/29/2014  10:36:00       63.670       75.856       60.406       59.169       30.661       34.525     3500.981      940.105     1191.947        0.954        0.282       99.036       32.908        0.110      339.959       13.649      867.928
10/29/2014  10:37:00       65.558       72.130       62.871       43.435       39.614       33.918     1886.612     1569.274     1150.397        0.903        0.230       97.471       21.599        0.049      339.986       13.695      867.906
10/29/2014  10:38:00       60.192       52.152       48.234       55.252       34.768       32.614     3052.754     1208.828     1063.676        0.700        0.266       79.642       21.277        0.071      339.995       13.710      867.883
10/29/2014  10:39:00       75.954       85.084       50.439       95.411       45.145       41.506     9103.263     2038.066     1722.789        1.421        0.643      114.054       49.720        0.190      340.151       13.973      867.858
10/29/2014  10:40:00       97.519       86.309        6.306       35.745       32.341       36.321     1277.714     1045.937     1319.198        1.032        0.182      130.227       23.172        0.032      339.710       13.231      867.844
10/29/2014  10:41:00       98.702       61.690       19.784       43.189       28.873       34.210     1865.300      833.648     1170.310        0.890        0.193      116.395       14.871        0.016      339.913       13.572      867.837
10/29/2014  10:42:00       51.112       60.398       55.330       50.428       44.873       45.379     2542.965     2013.543     2059.215        0.797        0.331       79.122       36.415        0.212      340.279       14.190      867.850
10/29/2014  10:43:00       74.456       90.444       76.476       57.163       33.981       48.930     3267.614     1154.695     2394.126        1.319        0.341      117.148       44.166        0.142      340.024       13.760      867.857
10/29/2014  10:44:00       75.729       68.934       27.461       27.109       30.097       33.694      734.918      905.810     1135.309        0.701        0.139      102.405       19.958        0.038      339.757       13.308      867.868
10/29/2014  10:45:00       67.560       54.931        7.396       22.775       17.812       23.957      518.704      317.275      573.950        0.452        0.070       87.073       15.052        0.030      339.644       13.119      867.871
10/29/2014  10:46:00       36.814       51.649       31.870       25.217       26.765       23.311      635.873      716.390      543.395        0.347        0.095       63.426       15.808        0.062      340.005       13.728      867.868
10/29/2014  10:47:00       40.188       26.690       23.524       57.633       40.975       33.040     3321.528     1678.936     1091.622        0.449        0.305       48.243       18.698        0.150      340.511       14.582      867.863
10/29/2014  10:48:00       88.670       62.790       13.102       27.194       30.885       26.496      739.496      953.900      702.023        0.719        0.120      108.650        9.487        0.008      339.870       13.499      867.884
10/29/2014  10:49:00       84.147       65.009       16.084       47.286       33.187       41.114     2236.009     1101.404     1690.354        0.830        0.251      106.334       19.210        0.033      340.204       14.063      867.873
10/29/2014  10:50:00       51.959       78.729       51.431       35.805       32.678       43.133     1282.024     1067.873     1860.490        0.788        0.211       94.330       32.365        0.118      340.159       13.988      867.879
10/29/2014  10:51:00       54.800       75.520       58.281       59.936       37.479       44.151     3592.265     1404.691     1949.348        0.952        0.347       93.308       23.282        0.062      340.360       14.326      867.866
10/29/2014  10:52:00       24.735       35.432       91.112       46.181       61.235       42.356     2132.648     3749.664     1794.015        0.892        0.384       43.212       43.410        1.009      340.361       14.329      867.867
10/29/2014  10:53:00       73.787       77.111       55.805       60.456       41.959       35.856     3654.891     1760.558     1285.618        1.060        0.335      106.727       31.208        0.086      340.306       14.236      867.843
10/29/2014  10:54:00       10.213       39.206       75.904       34.531       54.741       33.585     1192.391     2996.580     1127.942        0.636        0.266       40.514       36.745        0.823      340.712       14.922      867.825
10/29/2014  10:55:00       28.488       20.952       61.512       38.474       62.096       41.661     1480.279     3855.962     1735.649        0.605        0.354       35.363       45.850        1.681      340.643       14.805      867.826
10/29/2014  10:56:00       71.887       14.831       30.411       42.172       55.642       47.255     1778.446     3096.081     2233.036        0.671        0.355       73.401       38.900        0.281      340.224       14.097      867.809
10/29/2014  10:57:00       22.313       49.198       64.663       42.284       37.329       36.323     1787.932     1393.433     1319.355        0.580        0.225       54.021       28.287        0.274      340.636       14.793      867.802
10/29/2014  10:58:00       30.756       -1.388       26.559       41.292       88.099       39.937     1705.061     7761.491     1594.936        0.636        0.553       30.788       48.584        2.490      340.496       14.556      867.799
10/29/2014  10:59:00       57.969     -106.674      -19.425       46.581       46.697       45.471     2169.798     2180.653     2067.655        1.077        0.321      121.407       27.473        0.051      340.656       14.828      867.775
10/29/2014  11:00:00       37.950      -30.758       -8.973       57.463       33.620       23.937     3302.007     1130.315      572.993        0.374        0.250       48.850       23.108        0.224      340.443       14.467      867.762
10/29/2014  11:01:00       31.127       47.425       42.840       46.750       36.543       36.986     2185.598     1335.417     1367.983        0.497        0.244       56.728       22.352        0.155      340.788       15.050      867.735
10/29/2014  11:02:00       61.679       66.659       22.913       21.597       15.213       29.068      466.425      231.442      844.948        0.516        0.077       90.816       14.632        0.026      340.111       13.906      867.728
10/29/2014  11:03:00       52.869       14.222       -0.978       35.829       27.615       20.016     1283.716      762.582      400.635        0.272        0.122       54.749       22.596        0.170      340.315       14.250      867.725
10/29/2014  11:04:00       27.574       28.025       31.391       44.173       39.209       37.701     1951.248     1537.311     1421.384        0.372        0.245       39.316       24.676        0.394      340.925       15.282      867.732
10/29/2014  11:05:00       87.185       85.029       17.669       42.785       32.488       38.616     1830.575     1055.470     1491.210        0.976        0.219      121.784       24.686        0.041      340.447       14.473      867.739
10/29/2014  11:06:00       20.904       86.119        0.252       36.321       43.941       27.649     1319.190     1930.827      764.442        0.593        0.201       88.620       20.351        0.053      340.579       14.698      867.752
10/29/2014  11:07:00       32.206       73.566        4.800       34.026       47.020       34.868     1157.745     2210.915     1215.807        0.553        0.229       80.307       24.504        0.093      340.727       14.948      867.767
10/29/2014  11:08:00       19.121       57.473        2.983       43.710       55.753       30.535     1910.527     3108.398      932.397        0.481        0.298       60.570       28.515        0.222      340.824       15.110      867.769
10/29/2014  11:09:00       11.689        9.773       25.242       37.913       40.220       26.107     1437.364     1617.625      681.569        0.230        0.187       15.236        9.945        0.426      341.343       15.990      867.774
10/29/2014  11:10:00       56.458       79.025       78.976       53.273       38.563       39.205     2837.992     1487.076     1537.055        1.076        0.293       97.121       29.301        0.091      340.654       14.826      867.776
10/29/2014  11:11:00       56.753       20.461       36.733       38.172       49.382       38.063     1457.106     2438.545     1448.794        0.517        0.267       60.329       35.717        0.351      340.510       14.580      867.779
10/29/2014  11:12:00      106.505       68.026       25.659       57.153       48.114       35.754     3266.412     2314.964     1278.345        1.174        0.343      126.376       29.670        0.055      340.660       14.833      867.770
10/29/2014  11:13:00      106.149      111.590        9.486       68.240       46.562       41.898     4656.692     2168.012     1755.474        1.619        0.429      154.013       36.457        0.056      340.444       14.467      867.771
10/29/2014  11:14:00      104.601       88.601       17.453       56.452       42.559       39.583     3186.867     1811.299     1566.851        1.283        0.328      137.082       24.165        0.031      340.501       14.566      867.762
10/29/2014  11:15:00       94.041       64.927        4.234       52.561       48.215       37.746     2762.646     2324.721     1424.773        0.979        0.326      114.277       22.986        0.040      340.622       14.769      867.746
10/29/2014  11:16:00      113.395       25.752       17.008       46.924       60.094       54.263     2201.844     3611.258     2944.482        1.128        0.438      116.282       33.586        0.083      340.691       14.886      867.740
10/29/2014  11:17:00       56.083       59.602       42.908       49.946       47.133       44.459     2494.611     2221.487     1976.590        0.761        0.335       81.840       29.657        0.131      340.860       15.172      867.726
10/29/2014  11:18:00       73.356       68.451       47.952       79.820       40.042       38.357     6371.237     1603.353     1471.286        1.090        0.472      100.333       41.671        0.172      340.740       14.969      867.731
10/29/2014  11:19:00      108.976       77.116       19.627       28.245       29.873       25.197      797.779      892.370      634.890        1.027        0.116      133.502       15.605        0.014      340.452       14.482      867.733
10/29/2014  11:20:00       84.114       48.096       22.916       30.772       37.555       23.487      946.919     1410.409      551.652        0.641        0.145       96.894       19.129        0.039      340.379       14.359      867.745
10/29/2014  11:21:00       85.731       56.714       -4.708       37.027       36.583       25.266     1371.014     1338.327      638.379        0.697        0.167      102.793        9.369        0.008      340.546       14.641      867.733
10/29/2014  11:22:00       65.027       63.595       17.164       36.677       26.933       31.205     1345.204      725.388      973.768        0.581        0.152       90.956       19.466        0.046      340.643       14.805      867.705
10/29/2014  11:23:00       16.460       29.955       53.939       26.558       30.909       17.164      705.346      955.355      294.611        0.302        0.098       34.180       14.829        0.188      341.067       15.522      867.687
10/29/2014  11:24:00        3.309       36.399       51.145       22.224       34.082       19.554      493.895     1161.573      382.370        0.299        0.102       36.549       11.899        0.106      341.255       15.840      867.665
10/29/2014  11:25:00        4.807       33.718       50.764       22.079       33.104       24.276      487.492     1095.870      589.346        0.295        0.109       34.059       14.324        0.177      341.221       15.784      867.648
10/29/2014  11:26:00        8.230      -31.053        3.158       21.214       39.265       26.806      450.034     1541.769      718.560        0.188        0.136       32.125       24.783        0.595      340.757       14.998      867.632
10/29/2014  11:27:00       16.212       16.242       24.068       21.214       18.795       16.394      450.044      353.255      268.753        0.109        0.054       22.948       11.580        0.255      341.334       15.976      867.607
10/29/2014  11:28:00        8.452       13.702       18.982       17.044       14.916       15.969      290.497      222.484      255.001        0.069        0.038       16.099        5.993        0.139      341.365       16.027      867.572
10/29/2014  11:29:00        0.461       13.757       15.463       28.627       25.637       25.573      819.528      657.267      653.964        0.128        0.107       13.765       23.995        3.039      341.380       16.054      867.560
10/29/2014  11:30:00       23.615       49.674       65.069       50.045       51.170       31.051     2504.549     2618.400      964.180        0.667        0.304       55.002       23.502        0.183      341.300       15.917      867.558
10/29/2014  11:31:00       45.641       82.292       37.972       42.514       29.161       37.484     1807.409      850.384     1405.019        0.718        0.203       94.102       19.872        0.045      340.772       15.024      867.573
10/29/2014  11:32:00       33.070       40.938       -0.631       31.538       33.602       25.660      994.636     1129.085      658.452        0.278        0.139       52.627       24.147        0.211      340.957       15.336      867.575
10/29/2014  11:33:00       20.256        2.221       13.762       27.642       41.711       23.697      764.106     1739.847      561.567        0.183        0.153       20.377        9.004        0.195      341.181       15.717      867.582
10/29/2014  11:34:00       34.292      -22.043       17.611       31.144       23.771       26.073      969.928      565.080      679.813        0.209        0.111       40.766       17.239        0.179      340.993       15.398      867.578
10/29/2014  11:35:00       -7.380      -10.975       20.757       15.861       29.362       18.642      251.585      862.123      347.506        0.103        0.073       13.226       10.913        0.681      341.236       15.808      867.549
10/29/2014  11:36:00        7.934        2.777       36.319       16.865       21.645       13.355      284.442      468.507      178.345        0.116        0.047        8.406        5.584        0.441      341.588       16.404      867.509
10/29/2014  11:37:00       20.319      -19.732       20.204       30.147       42.261       31.876      908.854     1786.019     1016.069        0.246        0.186       28.323       21.726        0.588      341.224       15.788      867.487
10/29/2014  11:38:00       -2.746      -55.694        7.560       17.240       22.246       31.883      297.210      494.874     1016.504        0.249        0.090       55.762       18.755        0.113      341.038       15.474      867.487
10/29/2014  11:39:00      -38.908      -53.073       -8.298       31.475       20.636       18.827      990.649      425.836      354.446        0.308        0.089       65.807       10.722        0.027      341.010       15.426      867.487
10/29/2014  11:40:00      -32.446       -3.029       12.016       25.445       28.769       29.739      647.439      827.676      884.429        0.178        0.118       32.587       25.011        0.589      341.270       15.865      867.495
10/29/2014  11:41:00       24.109        6.247       -1.065       31.846       16.644       38.027     1014.145      277.022     1446.029        0.168        0.137       24.905       18.210        0.535      341.238       15.813      867.487
10/29/2014  11:42:00      -45.051       34.190       -9.053       19.795       19.743       15.603      391.855      389.796      243.439        0.215        0.051       56.555       10.370        0.034      341.009       15.424      867.461
10/29/2014  11:43:00      -30.930      -40.189       -5.401       25.615       30.006       19.416      656.115      900.354      376.986        0.227        0.097       50.713       13.902        0.075      341.312       15.938      867.437
10/29/2014  11:44:00       11.943      -62.057        2.686       33.330       37.312       26.270     1110.885     1392.215      690.106        0.360        0.160       63.196       12.054        0.036      341.303       15.923      867.440
10/29/2014  11:45:00       -3.520     -112.697      -11.089       40.663       60.687       30.476     1653.440     3682.883      928.783        0.955        0.313      112.752       25.981        0.053      341.043       15.482      867.433
10/29/2014  11:46:00       37.418      -49.736       -2.944       59.523       34.913       34.873     3542.988     1218.906     1216.092        0.493        0.299       62.240       24.458        0.154      341.095       15.570      867.440
10/29/2014  11:47:00       43.631      -40.062        0.405       34.726       31.288       31.442     1205.918      978.918      988.615        0.334        0.159       59.234       27.732        0.219      341.315       15.943      867.439
10/29/2014  11:48:00        4.733      -37.874       13.127       28.466       26.526       31.298      810.289      703.637      979.595        0.206        0.125       38.169       15.595        0.167      341.232       15.802      867.432
10/29/2014  11:49:00      -24.368      -15.604       15.425       39.695       31.154       23.119     1575.696      970.590      534.506        0.208        0.154       28.935       11.803        0.166      341.488       16.236      867.421
10/29/2014  11:50:00        5.838      -27.380        3.490       22.429       45.627       24.656      503.069     2081.829      607.903        0.199        0.160       27.995       20.178        0.520      341.701       16.596      867.412
10/29/2014  11:51:00       17.571      -31.044       22.748       27.023       35.212       30.664      730.244     1239.875      940.256        0.235        0.146       35.672       25.728        0.520      341.831       16.816      867.397
10/29/2014  11:52:00       -6.067      -22.716       11.134       14.216       21.785       21.727      202.083      474.579      472.046        0.091        0.057       23.512       14.816        0.397      341.502       16.260      867.377
10/29/2014  11:53:00        9.681      -14.426       27.335       25.283       32.781       27.858      639.252     1074.615      776.085        0.177        0.124       17.373       11.408        0.431      341.824       16.805      867.338
10/29/2014  11:54:00       11.388       10.808       40.829       28.769       36.648       29.462      827.641     1343.066      867.988        0.248        0.152       15.701       23.564        2.252      341.954       17.024      867.312
10/29/2014  11:55:00       36.376       10.010       33.405       28.207       20.141       21.145      795.630      405.662      447.102        0.209        0.082       37.728       10.843        0.083      341.548       16.338      867.283
10/29/2014  11:56:00       29.181       -2.976        5.363       30.066       24.016       23.757      903.987      576.786      564.387        0.147        0.102       29.333       12.763        0.189      341.656       16.519      867.250
10/29/2014  11:57:00        8.744      -15.904       -9.465       38.769       37.890       26.145     1503.055     1435.688      683.568        0.202        0.181       18.149       16.662        0.843      341.589       16.407      867.239
10/29/2014  11:58:00       11.279       27.080       23.329       47.258       31.157       30.637     2233.364      970.766      938.597        0.277        0.207       29.335       25.698        0.767      341.948       17.017      867.239
10/29/2014  11:59:00       -7.189        0.845       22.154       27.222       31.321       24.914      741.024      980.991      620.732        0.144        0.117        7.239       18.610        6.609      342.193       17.431      867.233
10/29/2014  12:00:00       39.642      -17.608       19.283       43.936       56.389       42.297     1930.394     3179.772     1788.997        0.457        0.345       43.376       46.648        1.157      341.997       17.099      867.209
10/29/2014  12:01:00       61.257      -49.013       -5.827       54.866       52.003       37.345     3010.296     2704.305     1394.655        0.665        0.355       78.452       37.040        0.223      341.838       16.830      867.193
10/29/2014  12:02:00       26.732       16.696       36.323       43.610       40.871       39.763     1901.844     1670.460     1581.064        0.373        0.258       31.517       36.493        1.341      341.971       17.055      867.177
10/29/2014  12:03:00       63.400      -23.505       25.234       47.667       48.096       42.002     2272.165     2313.241     1764.156        0.578        0.317       67.617       41.258        0.372      341.828       16.812      867.159
10/29/2014  12:04:00       28.146        3.712       21.853       30.369       26.387       23.402      922.261      696.259      547.664        0.172        0.108       28.390       15.514        0.299      341.941       17.003      867.153
10/29/2014  12:05:00       29.758      -12.880       32.895       28.413       27.944       25.019      807.281      780.874      625.974        0.217        0.111       32.426       18.390        0.322      342.142       17.345      867.160
10/29/2014  12:06:00       34.696       -4.129       18.439       20.869       19.764       22.911      435.509      390.623      524.918        0.146        0.068       34.941       16.310        0.218      341.824       16.806      867.149
10/29/2014  12:07:00       40.897       -3.409       20.147       36.142       27.549       24.843     1306.223      758.974      617.196        0.239        0.134       41.038       22.432        0.299      341.901       16.935      867.140
10/29/2014  12:08:00       46.187       11.912       34.472       35.383       24.846       27.639     1251.967      617.332      763.906        0.305        0.132       47.698       20.674        0.188      341.834       16.822      867.143
10/29/2014  12:09:00       51.964        9.367        8.655       25.554       22.776       21.085      653.024      518.765      444.595        0.224        0.081       52.802       15.481        0.086      341.654       16.517      867.115
10/29/2014  12:10:00       28.652      -32.793       10.031       26.760       30.107       23.792      716.120      906.446      566.049        0.209        0.109       43.547       15.067        0.120      341.961       17.037      867.084
10/29/2014  12:11:00       -7.203        5.566       14.549       14.631       21.192       12.807      214.057      449.121      164.015        0.056        0.041        9.103        7.421        0.665      342.601       18.126      867.047
10/29/2014  12:12:00        8.645      -36.800      -14.528       12.634       18.853       20.810      159.610      355.430      433.060        0.129        0.047       37.802        9.184        0.059      341.927       16.981      867.008
10/29/2014  12:13:00       30.301       17.416      -17.002       17.124       27.844       10.006      293.230      775.286      100.125        0.134        0.058       34.949       11.907        0.116      341.872       16.887      866.992
10/29/2014  12:14:00      -36.896        8.238      -14.246       28.070       20.928       14.888      787.935      437.994      221.662        0.154        0.072       37.805        5.356        0.020      341.941       17.005      866.979
10/29/2014  12:15:00      -82.640      -37.823      -23.082       25.177       27.411       16.145      633.867      751.341      260.668        0.522        0.082       90.884       12.579        0.019      341.796       16.758      866.981
10/29/2014  12:16:00      -49.543      -23.319       -0.386       18.531       27.054       16.035      343.412      731.920      257.113        0.217        0.067       54.757        8.611        0.025      341.935       16.993      866.979
10/29/2014  12:17:00      -29.727       -2.139       13.541       17.521       18.529       14.094      306.977      343.311      198.642        0.096        0.042       29.804        5.020        0.028      342.235       17.504      866.972
10/29/2014  12:18:00      -17.647        8.318        7.129       30.208       15.990       15.726      912.550      255.683      247.304        0.092        0.071       19.509       12.104        0.385      342.270       17.563      866.969
10/29/2014  12:19:00       20.677       27.152       30.024       31.843       23.776       28.513     1013.998      565.280      812.970        0.223        0.120       34.129       18.068        0.280      342.352       17.701      866.946
10/29/2014  12:20:00       -3.059        5.706       14.392       11.629       13.275       16.233      135.236      176.233      263.504        0.041        0.029        6.474       11.335        3.065      342.412       17.803      866.927
10/29/2014  12:21:00      -12.191       49.853       -7.793       20.172       30.887       18.922      406.925      954.005      358.038        0.221        0.086       51.322       17.604        0.118      342.095       17.264      866.898
10/29/2014  12:22:00        5.112       48.563      -14.933       18.909       21.431       10.426      357.543      459.302      108.694        0.177        0.046       48.832        3.545        0.005      342.163       17.380      866.889
10/29/2014  12:23:00       26.865       32.050        6.610       28.796       34.871       25.835      829.219     1215.976      667.469        0.225        0.136       41.821       18.275        0.191      342.597       18.119      866.882
10/29/2014  12:24:00       41.742       29.577       -2.359       19.501       18.779       14.360      380.299      352.652      206.205        0.178        0.047       51.158       10.750        0.044      342.281       17.579      866.879
10/29/2014  12:25:00       35.910      -43.572       -9.644       37.609       34.966       21.037     1414.407     1222.645      442.557        0.318        0.154       56.463       10.551        0.035      342.257       17.540      866.873
10/29/2014  12:26:00       -2.415       13.335        9.515       22.243       23.235       18.437      494.749      539.847      339.923        0.082        0.069       13.552       12.293        0.823      343.062       18.909      866.863
10/29/2014  12:27:00       -1.246       12.677        9.282       21.407       43.470       24.184      458.269     1889.615      584.861        0.159        0.147       12.738       11.110        0.761      342.530       18.003      866.855
10/29/2014  12:28:00        3.431       32.826        3.225       15.482       25.062       25.710      239.697      628.100      660.982        0.131        0.076       33.005       21.695        0.432      342.631       18.177      866.833
10/29/2014  12:29:00       -8.675       28.165       20.862       17.644       23.600       20.716      311.317      556.962      429.162        0.130        0.065       29.471       13.425        0.208      343.005       18.811      866.812
10/29/2014  12:30:00       28.002       33.730       41.573       31.270       33.545       40.315      977.789     1125.285     1625.271        0.369        0.186       43.839       27.728        0.400      343.003       18.809      866.772
10/29/2014  12:31:00       58.898       71.550       59.735       53.954       28.972       35.109     2911.040      839.401     1232.648        0.857        0.249       92.673       34.325        0.137      342.588       18.103      866.745
10/29/2014  12:32:00       95.507       28.306        2.340       47.689       36.524       31.010     2274.215     1334.027      961.603        0.725        0.228       99.613       22.289        0.050      342.221       17.478      866.727
10/29/2014  12:33:00       25.043       -6.789        5.195       48.140       47.422       21.527     2317.437     2248.859      463.410        0.286        0.251       25.947       16.012        0.381      342.281       17.581      866.699
10/29/2014  12:34:00       27.109       35.658       32.741       50.662       27.512       29.051     2566.663      756.925      843.987        0.362        0.208       44.793       25.041        0.313      342.678       18.257      866.679
10/29/2014  12:35:00       49.483       69.510       17.934       51.297       44.541       45.135     2631.400     1983.888     2037.172        0.713        0.333       85.324       27.851        0.107      342.715       18.320      866.660
10/29/2014  12:36:00       24.117       52.696        3.971       38.483       42.107       29.562     1480.934     1772.993      873.883        0.375        0.206       57.953       27.786        0.230      342.767       18.408      866.632
10/29/2014  12:37:00       67.078       71.619        9.904       47.071       24.286       28.037     2215.693      589.818      786.054        0.666        0.180       98.126       20.862        0.045      342.528       18.001      866.620
10/29/2014  12:38:00       32.054       31.341       21.307       21.061       18.801       24.548      443.564      353.481      602.594        0.193        0.070       44.830       15.023        0.112      342.726       18.337      866.596
10/29/2014  12:39:00       58.151       17.903        3.565       41.607       25.289       23.928     1731.159      639.553      572.573        0.333        0.147       60.844        9.024        0.022      342.704       18.301      866.588
10/29/2014  12:40:00       48.379       54.418       11.004       44.705       40.794       29.899     1998.504     1664.146      893.978        0.499        0.228       72.814       22.923        0.099      342.850       18.547      866.572
10/29/2014  12:41:00       62.350       76.896        6.235       54.787       47.428       40.242     3001.582     2249.447     1619.379        0.835        0.344       98.998       26.187        0.070      342.670       18.241      866.559
10/29/2014  12:42:00       22.936       76.589        6.643       28.752       48.457       34.137      826.659     2348.078     1165.337        0.539        0.217       79.949       25.755        0.104      342.760       18.395      866.543
10/29/2014  12:43:00       86.758       70.695       18.344       45.275       32.700       27.548     2049.834     1069.284      758.892        0.837        0.194      111.914       15.578        0.019      342.643       18.196      866.540
10/29/2014  12:44:00       12.128      -10.265       19.712       20.315       34.799       18.368      412.712     1210.968      337.383        0.130        0.098       15.889        8.701        0.300      342.875       18.590      866.525
10/29/2014  12:45:00       25.799        7.598        4.404       35.670       25.010       18.748     1272.337      625.480      351.502        0.150        0.112       26.895        7.401        0.076      342.791       18.449      866.503
10/29/2014  12:46:00       90.900       76.035       18.368       66.734       45.057       25.651     4453.453     2030.161      657.951        1.076        0.357      118.508       17.057        0.021      342.706       18.303      866.479
10/29/2014  12:47:00       98.522       75.241       22.212       56.449       45.582       34.892     3186.474     2077.694     1217.442        1.117        0.324      123.967       23.139        0.035      342.627       18.169      866.448
10/29/2014  12:48:00       19.256       54.497       65.595       39.470       37.821       33.850     1557.843     1430.418     1145.821        0.589        0.207       57.799       23.318        0.163      342.959       18.734      866.431
10/29/2014  12:49:00       67.994       78.310       48.750       65.693       39.252       45.153     4315.604     1540.694     2038.817        1.051        0.395      103.709       46.019        0.197      342.730       18.344      866.404
10/29/2014  12:50:00      126.326      100.443       14.994       68.882       41.794       40.863     4744.767     1746.764     1669.761        1.721        0.408      161.391       29.528        0.033      342.555       18.046      866.387
10/29/2014  12:51:00       76.123       56.840       22.074       51.336       34.209       28.670     2635.370     1170.248      821.946        0.707        0.231       95.002       22.667        0.057      342.665       18.234      866.362
10/29/2014  12:52:00      115.486       99.176       12.342       56.239       46.647       37.130     3162.809     2175.907     1378.627        1.502        0.336      152.227       25.925        0.029      342.607       18.134      866.326
10/29/2014  12:53:00       58.465       96.332        6.081       55.215       53.214       36.183     3048.742     2831.756     1309.234        0.996        0.359      112.686       32.414        0.083      342.683       18.264      866.299
10/29/2014  12:54:00       61.246       94.653       -6.527       46.098       52.548       40.470     2125.061     2761.306     1637.791        0.964        0.326      112.740       35.498        0.099      342.785       18.438      866.261
10/29/2014  12:55:00       77.636       86.006       -8.007       49.444       56.951       37.542     2444.682     3243.401     1409.435        1.029        0.355      115.864       33.491        0.084      342.845       18.539      866.249
10/29/2014  12:56:00       62.194       33.351        5.370       39.695       34.204       24.225     1575.688     1169.932      586.860        0.417        0.167       70.572        8.648        0.015      343.016       18.831      866.228
10/29/2014  12:57:00       36.184      -14.534       -6.013       49.537       47.903       30.411     2453.893     2294.690      924.850        0.361        0.284       38.994       23.603        0.366      342.932       18.687      866.202
10/29/2014  12:58:00       26.344       35.579       52.785       40.171       39.310       23.269     1613.688     1545.268      541.469        0.422        0.185       44.270       11.850        0.072      343.024       18.844      866.196
10/29/2014  12:59:00       21.899      -78.670       -7.794       47.005       65.010       30.290     2209.482     4226.269      917.461        0.704        0.368       81.661       33.994        0.173      342.579       18.087      866.204
10/29/2014  13:00:00       -0.021      -23.420       17.769       33.105       56.532       23.197     1095.969     3195.886      538.090        0.285        0.241       23.420       12.592        0.289      342.840       18.531      866.219
10/29/2014  13:01:00      -20.434       70.227      -15.904       44.059       28.233       20.303     1941.234      797.123      412.210        0.438        0.158       73.139       23.822        0.106      342.639       18.190      866.248
10/29/2014  13:02:00      -78.441       45.256      -22.746       43.563       30.661       23.593     1897.755      940.103      556.626        0.606        0.170       90.560       14.659        0.026      342.715       18.319      866.239
10/29/2014  13:03:00       -5.201       86.140       -5.800       20.021       34.865       19.833      400.821     1215.572      393.333        0.474        0.100       86.297       19.001        0.048      342.831       18.516      866.229
10/29/2014  13:04:00       54.828       54.662        9.343       45.061       48.737       34.317     2030.495     2375.255     1177.644        0.583        0.279       77.421       31.031        0.161      342.891       18.618      866.196
10/29/2014  13:05:00      114.607       79.439       11.082       34.834       26.753       26.749     1213.407      715.741      715.505        1.111        0.132      139.446       15.782        0.013      342.757       18.389      866.165
10/29/2014  13:06:00       61.727       60.035        3.760       44.336       29.362       25.414     1965.661      862.102      645.882        0.545        0.174       86.107       18.839        0.048      342.849       18.546      866.145
10/29/2014  13:07:00       42.180       44.014        4.025       17.476       25.388       19.534      305.422      644.570      381.574        0.253        0.067       60.962       14.063        0.053      342.904       18.640      866.132
10/29/2014  13:08:00       71.421       47.212       20.483       29.260       19.526       24.389      856.141      381.266      594.842        0.479        0.092       85.615       14.987        0.031      342.932       18.688      866.123
10/29/2014  13:09:00       64.519       49.773       13.665       27.757       28.263       24.809      770.466      798.788      615.483        0.451        0.109       81.486       18.265        0.050      343.039       18.871      866.107
10/29/2014  13:10:00      -10.878       43.252        2.165       52.638       28.229       24.110     2770.748      796.869      581.297        0.307        0.207       44.599       26.042        0.341      343.183       19.115      866.072
10/29/2014  13:11:00       46.519        3.090      -21.094       60.129       31.949       33.901     3615.514     1020.759     1149.288        0.420        0.289       46.621       31.591        0.459      343.004       18.810      866.037
10/29/2014  13:12:00      -15.169       -4.792        4.650       25.056       28.819       19.804      627.782      830.544      392.201        0.106        0.093       15.907       19.720        1.537      343.303       19.319      865.988
10/29/2014  13:13:00       92.023       84.894       10.192       65.865       42.465       38.965     4338.243     1803.276     1518.299        1.172        0.383      125.201       28.194        0.051      343.248       19.227      865.960
10/29/2014  13:14:00       61.888       56.845        2.010       52.936       37.306       33.146     2802.224     1391.726     1098.665        0.618        0.265       84.033       22.422        0.071      343.146       19.051      865.958
10/29/2014  13:15:00       31.477       25.799       -2.794       17.400       18.002       18.483      302.773      324.077      341.630        0.132        0.048       40.699       14.432        0.126      343.198       19.141      865.954
10/29/2014  13:16:00       -7.798       35.606        5.289       15.541       33.419       22.943      241.517     1116.802      526.369        0.162        0.094       36.450       12.791        0.123      343.544       19.733      865.939
10/29/2014  13:17:00       13.510       13.527       33.720       34.971       41.066       37.360     1222.977     1686.403     1395.778        0.290        0.215       19.118       31.934        2.790      343.761       20.101      865.923
10/29/2014  13:18:00        7.995        9.724       23.996       30.066       23.908       22.089      903.976      571.596      487.934        0.135        0.098       12.589       12.866        1.045      343.696       19.990      865.901
10/29/2014  13:19:00       37.046       46.826       39.870       38.677       39.747       35.124     1495.908     1579.791     1233.714        0.473        0.215       59.708       26.021        0.190      343.312       19.335      865.877
10/29/2014  13:20:00       20.114       -5.494       23.584       21.817       44.162       24.342      475.978     1950.242      592.517        0.200        0.151       20.851       22.827        1.198      343.069       18.921      865.852
10/29/2014  13:21:00       68.476       15.070        7.528       46.998       25.007       26.572     2208.844      625.372      706.052        0.426        0.177       70.115       24.034        0.117      343.016       18.831      865.851
10/29/2014  13:22:00       70.176       32.479       -1.048       39.159       34.619       25.383     1533.395     1198.508      644.292        0.468        0.169       77.328       15.216        0.039      343.129       19.024      865.847
10/29/2014  13:23:00       51.528       23.872        5.708       30.550       43.344       23.992      933.307     1878.742      575.613        0.332        0.169       56.789       23.120        0.166      343.038       18.868      865.847
10/29/2014  13:24:00       42.278      -37.091       -0.064       50.449       39.982       30.497     2545.140     1598.536      930.093        0.412        0.254       56.242       17.141        0.093      343.122       19.012      865.830
10/29/2014  13:25:00       27.583      -50.732        5.374       25.949       39.833       26.283      673.347     1586.656      690.800        0.316        0.148       57.745       15.888        0.076      343.324       19.356      865.828
10/29/2014  13:26:00       97.300      -51.630       28.626       66.510       70.949       48.563     4423.524     5033.768     2358.372        1.238        0.591      110.150       56.389        0.262      343.373       19.437      865.828
10/29/2014  13:27:00       90.166     -113.040       -1.457       64.450       82.972       39.553     4153.826     6884.363     1564.477        1.675        0.630      144.596       51.424        0.126      343.327       19.358      865.808
10/29/2014  13:28:00      115.847     -113.512      -17.020       28.860       31.622       22.955      832.892      999.952      526.921        1.448        0.118      162.190       17.326        0.011      343.138       19.039      865.789
10/29/2014  13:29:00      122.940     -129.620      -29.907       29.616       43.696       19.123      877.101     1909.299      365.695        1.798        0.158      178.649       16.650        0.009      343.128       19.023      865.753
10/29/2014  13:30:00      121.379     -170.674      -16.581       40.715       45.428       33.304     1657.738     2063.708     1109.139        2.448        0.242      209.433       30.349        0.021      343.232       19.196      865.716
10/29/2014  13:31:00       68.908      -84.865        5.601       44.974       46.930       32.338     2022.689     2202.452     1045.752        0.863        0.264      109.318       22.783        0.043      343.407       19.496      865.691
10/29/2014  13:32:00       61.695      -97.058      -14.325       38.038       43.871       28.191     1446.888     1924.653      794.711        0.880        0.208      115.006       24.848        0.047      343.304       19.322      865.656
10/29/2014  13:33:00       16.971      -15.145       25.546       25.742       29.914       26.866      662.643      894.840      721.773        0.172        0.114       22.746       23.997        1.113      343.703       20.003      865.638
10/29/2014  13:34:00       -0.484       21.828       34.500       27.502       21.343       20.039      756.366      455.513      401.576        0.164        0.081       21.833       10.587        0.235      343.650       19.911      865.621
10/29/2014  13:35:00       14.304      -32.273       37.890       32.492       47.833       29.931     1055.740     2287.950      895.859        0.346        0.212       35.301       21.529        0.372      343.776       20.127      865.598
10/29/2014  13:36:00        4.373      -61.209       19.051       45.930       93.679       37.995     2109.540     8775.719     1443.644        0.823        0.616       61.365       48.410        0.622      343.834       20.225      865.597
10/29/2014  13:37:00       72.409      -97.792       14.919       96.149       98.782       49.739     9244.611     9757.959     2474.016        1.825        1.074      121.681       55.535        0.208      343.763       20.103      865.606
10/29/2014  13:38:00       26.708      -69.114        4.066       48.279       63.699       42.422     2330.860     4057.508     1799.640        0.685        0.409       74.095       40.387        0.297      343.669       19.943      865.618
10/29/2014  13:39:00       97.228     -116.532      -33.260       61.069       71.230       41.196     3729.399     5073.721     1697.122        1.732        0.525      151.766       34.438        0.051      343.534       19.711      865.613
10/29/2014  13:40:00       50.058      -68.053        8.194       32.185       53.987       25.663     1035.896     2914.646      658.595        0.591        0.230       84.481       27.950        0.109      343.517       19.684      865.627
10/29/2014  13:41:00       -3.414       -4.188       21.475       16.124       23.220       21.637      259.984      539.161      468.168        0.088        0.063        5.403       14.754        7.456      343.836       20.229      865.634
10/29/2014  13:42:00       -9.467        0.382       14.844       23.657       17.965       17.916      559.668      322.736      320.999        0.076        0.060        9.475        5.952        0.395      343.808       20.181      865.633
10/29/2014  13:43:00      -26.042       16.616       20.577       24.515       19.484       21.619      601.009      379.612      467.384        0.141        0.072       30.891       12.658        0.168      343.815       20.193      865.617
10/29/2014  13:44:00        4.809      -27.673       17.268       16.875       18.602       13.587      284.780      346.049      184.616        0.095        0.041       28.087        6.857        0.060      343.487       19.634      865.613
10/29/2014  13:45:00       -4.739      -11.140       -3.060       13.804       14.616       12.900      190.553      213.621      166.418        0.036        0.029       12.106       12.256        1.025      343.473       19.610      865.608
10/29/2014  13:46:00       25.518      -11.476       10.548       16.699       14.155       18.068      278.849      200.355      326.465        0.085        0.040       27.979        7.574        0.073      343.349       19.398      865.583
10/29/2014  13:47:00       44.774       35.402       16.230       29.735       22.387       20.295      884.177      501.192      411.871        0.266        0.090       57.079       12.666        0.049      343.638       19.891      865.566
10/29/2014  13:48:00       62.256       17.953       25.458       52.317       81.084       47.089     2737.068     6574.605     2217.346        0.819        0.576       64.793       45.756        0.499      343.451       19.572      865.535
10/29/2014  13:49:00       47.856       81.136       61.748       60.490       35.209       40.492     3659.092     1239.676     1639.634        0.961        0.327       94.198       40.391        0.184      343.532       19.710      865.498
10/29/2014  13:50:00       37.870       49.180       26.126       56.390       34.065       36.769     3179.799     1160.407     1351.944        0.511        0.285       62.070       28.410        0.209      343.892       20.325      865.461
10/29/2014  13:51:00       26.097       20.562       27.928       21.950       26.721       18.389      481.807      714.026      338.147        0.171        0.077       33.224       11.809        0.126      343.894       20.329      865.431
10/29/2014  13:52:00       77.503       27.309       41.354       51.757       49.066       38.007     2678.764     2407.435     1444.541        0.750        0.327       82.174       32.107        0.153      343.558       19.754      865.398
10/29/2014  13:53:00       32.660       45.922       13.269       28.626       21.919       23.650      819.448      480.447      559.333        0.261        0.093       56.352       10.465        0.034      343.761       20.101      865.376
10/29/2014  13:54:00       14.294       11.847       -3.558       20.431       25.449       17.758      417.417      647.644      315.353        0.087        0.069       18.565       13.673        0.542      343.790       20.150      865.346
10/29/2014  13:55:00       -1.927        5.241       10.193       23.795       33.441       20.787      566.222     1118.330      432.105        0.113        0.106        5.584       15.727        7.933      344.054       20.602      865.322
10/29/2014  13:56:00       18.152       -7.714       23.229       18.472       27.241       21.732      341.217      742.050      472.293        0.124        0.078       19.723        3.550        0.032      344.170       20.799      865.318
10/29/2014  13:57:00       85.928     -103.337       -8.873       38.430       59.199       38.234     1476.899     3504.552     1461.871        1.229        0.322      134.396       30.103        0.050      343.793       20.155      865.332
10/29/2014  13:58:00       26.551       19.133       45.695       45.818       57.360       20.451     2099.306     3290.113      418.254        0.448        0.290       32.726       13.485        0.170      343.993       20.497      865.365
10/29/2014  13:59:00       36.600       -7.447       56.067       64.099      113.363       67.250     4108.625    12851.109     4522.520        1.301        1.074       37.350       82.791        4.914      344.108       20.691      865.398
10/29/2014  14:00:00       21.410       -6.711       10.487       34.762       33.050       26.993     1208.400     1092.328      728.644        0.182        0.151       22.437       21.784        0.943      343.977       20.468      865.410
10/29/2014  14:01:00       25.502      -46.558        8.098       45.728       44.836       33.322     2091.061     2010.274     1110.357        0.405        0.261       53.085       24.484        0.213      343.900       20.338      865.397
10/29/2014  14:02:00       75.738       41.699       28.902       67.407       56.296       36.377     4543.678     3169.273     1323.258        0.867        0.452       86.458       30.950        0.128      343.646       19.904      865.361
10/29/2014  14:03:00       89.185       55.521       32.672       43.828       37.782       38.789     1920.876     1427.458     1504.610        0.848        0.243      105.055       26.035        0.061      343.660       19.929      865.320
10/29/2014  14:04:00       88.405      -89.097      -15.084       64.563       96.743       28.598     4168.415     9359.167      817.873        1.516        0.717      125.514       15.542        0.015      343.788       20.146      865.288
10/29/2014  14:05:00      109.786     -143.040      -14.389       51.112       57.012       39.647     2612.438     3250.400     1571.915        2.008        0.372      180.315       31.159        0.030      343.963       20.443      865.257
10/29/2014  14:06:00       73.489     -109.351        5.608       56.072       70.070       46.728     3144.110     4909.862     2183.508        1.381        0.512      131.751       44.133        0.112      343.968       20.453      865.225
10/29/2014  14:07:00       96.522     -100.050       32.618       68.221      100.980       60.739     4654.162    10196.876     3689.219        1.946        0.927      139.020       63.456        0.208      344.070       20.626      865.191
10/29/2014  14:08:00       41.629      -73.079       24.159       58.254       94.808       59.855     3393.494     8988.548     3582.630        1.181        0.798       84.104       67.879        0.651      343.993       20.496      865.166
10/29/2014  14:09:00        7.971      -67.662      -23.980       42.887       50.333       29.057     1839.262     2533.395      844.305        0.522        0.261       68.130       22.551        0.110      343.904       20.345      865.154
10/29/2014  14:10:00       31.426      -60.403        9.551       33.312       39.350       38.541     1109.710     1548.457     1485.381        0.443        0.207       68.089       26.531        0.152      344.065       20.619      865.164
10/29/2014  14:11:00      104.641      -24.467       35.894       83.411       74.280       46.222     6957.433     5517.568     2136.443        1.372        0.731      107.464       57.028        0.282      343.801       20.168      865.170
10/29/2014  14:12:00       43.335        4.636       23.014       34.211       19.806       24.025     1170.413      392.279      577.210        0.228        0.107       43.582       22.807        0.274      343.719       20.028      865.170
10/29/2014  14:13:00        3.531      -11.566       24.135       42.037       27.865       24.674     1767.096      776.434      608.809        0.194        0.158       12.093       11.092        0.841      344.184       20.823      865.157
10/29/2014  14:14:00       52.649     -125.578       -1.065      103.541      112.920       49.162    10720.785    12750.824     2416.859        2.221        1.294      136.168       64.064        0.221      344.269       20.967      865.137
10/29/2014  14:15:00      104.786     -134.819       -9.359       55.012       92.756       30.558     3026.323     8603.767      933.816        2.090        0.628      170.752       42.918        0.063      343.770       20.112      865.134
10/29/2014  14:16:00      -32.065      -25.765        6.007       47.253       49.302       21.231     2232.851     2430.673      450.774        0.342        0.256       41.134       23.430        0.324      344.123       20.719      865.108
10/29/2014  14:17:00        9.908       22.563       17.072       52.030       30.449       22.236     2707.115      927.121      494.451        0.251        0.206       24.642       11.021        0.200      343.964       20.448      865.094
10/29/2014  14:18:00      143.697       85.772       30.525       52.128       32.426       33.367     2717.343     1051.434     1113.379        1.691        0.244      167.349       21.769        0.017      343.851       20.253      865.095
10/29/2014  14:19:00       59.637      -38.718       19.379       66.083      130.566       63.778     4366.979    17047.359     4067.620        1.545        1.274       71.103       80.533        1.283      343.889       20.318      865.094
10/29/2014  14:20:00      100.820     -137.786      -18.755       43.193       67.213       30.859     1865.631     4517.582      952.274        1.842        0.367      170.732       31.970        0.035      343.802       20.169      865.097
10/29/2014  14:21:00       53.060      -88.635      -11.199       25.067       37.284       23.946      628.341     1390.085      573.424        0.669        0.130      103.303       19.153        0.034      343.855       20.260      865.094
10/29/2014  14:22:00       -5.369      -16.594        1.434       47.107       42.051       20.315     2219.093     1768.264      412.691        0.235        0.220       17.441       19.518        1.252      344.042       20.581      865.061
10/29/2014  14:23:00       31.445      -10.292       14.642       44.802       30.858       23.944     2007.205      952.217      573.306        0.242        0.177       33.086       24.284        0.539      344.035       20.568      865.026
10/29/2014  14:24:00       32.539      -12.469        2.182       25.609       27.240       26.626      655.815      742.040      708.923        0.166        0.105       34.847       19.516        0.314      343.742       20.069      865.018
10/29/2014  14:25:00       25.551      -34.208       17.294       43.089       54.518       38.335     1856.667     2972.177     1469.562        0.421        0.315       42.697       23.801        0.311      343.980       20.474      865.005
10/29/2014  14:26:00      123.354     -132.754       -3.817       53.909       67.881       29.555     2906.193     4607.807      873.498        2.062        0.419      181.218       17.174        0.009      343.816       20.193      864.995
10/29/2014  14:27:00       76.688     -104.457      -10.425       54.703       43.430       33.379     2992.472     1886.124     1114.169        1.145        0.300      129.585       18.226        0.020      344.099       20.678      864.992
10/29/2014  14:28:00       30.348     -104.648        7.247       54.609       64.048       40.183     2982.090     4102.145     1614.703        1.031        0.435      108.960       32.392        0.088      344.268       20.966      864.985
10/29/2014  14:29:00       78.425      -24.223       41.167       71.508      113.520       72.171     5113.464    12886.799     5208.725        1.582        1.160       82.081       74.639        0.827      344.174       20.804      864.990
10/29/2014  14:30:00      105.745       37.725       34.330       82.817       61.409       36.026     6858.620     3771.058     1297.845        1.285        0.596      112.273       18.352        0.027      344.014       20.532      864.981
10/29/2014  14:31:00      -14.422      -36.104       24.859       31.832       71.881       40.249     1013.274     5166.856     1619.975        0.496        0.390       38.878       26.301        0.458      344.331       21.075      864.982
10/29/2014  14:32:00       41.997      -27.114       25.402       50.670       79.744       51.307     2567.416     6359.179     2632.420        0.735        0.578       49.989       48.127        0.927      344.257       20.948      864.961
10/29/2014  14:33:00      111.405        1.527       59.309       82.953       67.509       56.045     6881.248     4557.468     3141.052        1.525        0.729      111.415       29.969        0.072      344.073       20.633      864.930
10/29/2014  14:34:00      110.089     -100.596       -6.524       52.688       45.467       22.677     2776.011     2067.238      514.246        1.382        0.268      149.128       20.885        0.020      343.931       20.389      864.907
10/29/2014  14:35:00      -13.863        9.307        4.562       19.723       23.803       19.118      388.984      566.560      365.514        0.081        0.066       16.697       11.881        0.506      344.266       20.963      864.865
10/29/2014  14:36:00       41.226      -26.456       14.810       45.040       76.036       38.690     2028.646     5781.466     1496.880        0.596        0.465       48.984       45.575        0.866      344.083       20.651      864.845
10/29/2014  14:37:00        0.795       16.076       52.560       26.076       58.333       34.990      679.971     3402.709     1224.326        0.416        0.265       16.096       41.665        6.701      344.324       21.060      864.841
10/29/2014  14:38:00       48.676       24.982       42.782       36.808       38.034       49.206     1354.866     1446.563     2421.230        0.502        0.261       54.713       34.210        0.391      344.185       20.825      864.835
10/29/2014  14:39:00       22.943       13.172       32.999       45.810       57.279       40.962     2098.593     3280.875     1677.888        0.442        0.353       26.455       42.764        2.613      344.333       21.078      864.807
10/29/2014  14:40:00      103.480       74.266       60.610       48.276       60.611       48.974     2330.585     3673.675     2398.453        1.415        0.420      127.372       42.334        0.110      344.147       20.759      864.804
10/29/2014  14:41:00       51.394      -14.188       49.459       62.176      103.900       56.438     3865.896    10795.228     3185.226        1.156        0.892       53.317       62.928        1.393      344.529       21.413      864.801
10/29/2014  14:42:00       68.696     -164.260      -16.262       34.467       55.776       33.247     1187.953     3110.926     1105.376        1.868        0.270      178.046       11.605        0.004      344.040       20.575      864.782
10/29/2014  14:43:00       62.447      -36.198       19.046       57.763       56.334       27.793     3336.534     3173.559      772.468        0.643        0.364       72.180       29.567        0.168      344.421       21.227      864.761
10/29/2014  14:44:00       89.534      -99.495        8.577       85.794      118.186       61.329     7360.625    13967.952     3761.280        2.153        1.254      133.849       80.173        0.359      344.322       21.055      864.757
10/29/2014  14:45:00       58.936      -91.446       -6.066       67.845       64.998       44.294     4602.957     4224.778     1961.977        1.133        0.539      108.793       40.518        0.139      344.444       21.266      864.752
10/29/2014  14:46:00       17.145      -47.410       37.911       38.336       70.659       50.874     1469.624     4992.737     2588.186        0.651        0.453       50.415       47.829        0.900      344.363       21.129      864.748
10/29/2014  14:47:00       77.204      -79.238        5.661       43.073       89.023       45.218     1855.278     7925.123     2044.677        1.205        0.591      110.631       60.250        0.297      344.276       20.980      864.722
10/29/2014  14:48:00       58.531       70.957       62.084       97.738       73.416       49.134     9552.785     5389.932     2414.174        1.483        0.868       91.982       51.319        0.311      344.547       21.442      864.713
10/29/2014  14:49:00      163.061       92.953       55.846       72.935       65.958       61.390     5319.467     4350.426     3768.672        2.589        0.672      187.695       39.831        0.045      344.285       20.991      864.709
10/29/2014  14:50:00       98.772       62.637       49.585       68.369       50.454       40.901     4674.324     2545.585     1672.876        1.251        0.445      116.958       31.525        0.073      344.412       21.212      864.694
10/29/2014  14:51:00       82.420       95.660       80.998       86.345       63.568       76.303     7455.506     4040.896     5822.092        1.991        0.866      126.269       66.926        0.281      344.599       21.530      864.666
10/29/2014  14:52:00       89.474        9.725       60.817       86.429       85.771       48.888     7469.920     7356.614     2390.013        1.450        0.861       90.001       50.343        0.313      344.521       21.399      864.646
10/29/2014  14:53:00      150.326       86.249      117.654      112.458       98.423       75.279    12646.847     9687.070     5666.860        3.593        1.400      173.311       75.641        0.190      344.418       21.219      864.626
10/29/2014  14:54:00      113.216      101.116      106.544       90.796       70.188       62.616     8243.982     4926.295     3920.705        2.574        0.855      151.797       56.138        0.137      344.428       21.237      864.614
10/29/2014  14:55:00      155.727      105.377       98.678      100.968       85.812       77.225    10194.520     7363.687     5963.634        3.430        1.176      188.030       69.771        0.138      344.105       20.685      864.595
10/29/2014  14:56:00       97.894       40.334       37.170       74.170       88.846       38.030     5501.219     7893.700     1446.253        1.371        0.742      105.878       27.440        0.067      344.345       21.096      864.576
10/29/2014  14:57:00       80.835      -50.158       32.755       90.155       68.547       52.107     8127.982     4698.637     2715.092        1.283        0.777       95.132       51.723        0.296      344.348       21.101      864.553
10/29/2014  14:58:00       -2.020      -21.937       15.884       30.714       71.538       31.338      943.325     5117.707      982.088        0.389        0.352       22.029        8.917        0.164      344.421       21.227      864.530
10/29/2014  14:59:00       39.536      -76.976       -0.177       60.085       62.920       35.964     3610.161     3958.924     1293.418        0.817        0.443       86.536       33.646        0.151      344.440       21.262      864.512
10/29/2014  15:00:00      -10.966       29.451       24.540       57.164       40.061       35.638     3267.752     1604.877     1270.102        0.387        0.307       31.427       21.203        0.455      344.556       21.459      864.482
10/29/2014  15:01:00       42.750      -53.344       19.586       61.928      117.230       55.384     3835.132    13742.932     3067.421        1.285        1.032       68.361       53.511        0.613      344.586       21.511      864.473
10/29/2014  15:02:00       93.897       79.102      102.646      121.479      113.343      101.357    14757.224    12846.709    10273.154        3.174        1.894      122.775       82.664        0.453      344.435       21.250      864.459
10/29/2014  15:03:00       76.903      -20.472       52.316       75.867      118.682       58.299     5755.836    14085.528     3398.813        1.615        1.162       79.581       61.310        0.594      344.428       21.237      864.476
10/29/2014  15:04:00      109.212      -10.847       15.503       95.580       89.884       47.735     9135.501     8079.070     2278.646        1.589        0.975      109.750       55.044        0.252      344.370       21.140      864.478
10/29/2014  15:05:00       62.803       73.265       87.108       82.897       65.394       48.651     6871.991     4276.354     2366.968        1.520        0.676       96.499       51.622        0.286      344.307       21.031      864.483
10/29/2014  15:06:00       70.881       70.923       79.155       76.604       52.352       54.673     5868.139     2740.766     2989.152        1.396        0.580      100.271       51.187        0.261      344.124       20.721      864.474
10/29/2014  15:07:00       59.331       16.468       18.091       69.311       53.330       42.290     4804.059     2844.106     1788.447        0.678        0.472       61.574       25.313        0.169      344.416       21.220      864.473
10/29/2014  15:08:00       82.192      -97.751      -15.369       63.493       78.762       36.452     4031.367     6203.385     1328.778        1.405        0.578      127.714       22.331        0.031      344.217       20.878      864.471
10/29/2014  15:09:00       85.184     -133.881        2.148       52.988       73.044       34.824     2807.739     5335.400     1212.700        1.727        0.468      158.683       46.186        0.085      344.238       20.913      864.458
10/29/2014  15:10:00        8.324        2.564       35.341       27.766       16.693       19.319      770.978      278.649      373.215        0.137        0.071        8.710       16.713        3.682      344.566       21.476      864.435
10/29/2014  15:11:00       10.128       -1.539        6.607       14.042       13.051       20.560      197.184      170.332      422.727        0.047        0.040       10.244       10.169        0.985      344.486       21.338      864.430
10/29/2014  15:12:00       42.169       49.366        5.355       42.770       31.178       19.737     1829.315      972.048      389.556        0.372        0.160       64.924       19.963        0.095      344.218       20.880      864.420
10/29/2014  15:13:00       80.004       49.176       27.980       46.428       23.368       32.764     2155.585      546.053     1073.488        0.669        0.189       93.909       29.726        0.100      344.238       20.914      864.410
10/29/2014  15:14:00       31.137       17.627       17.428       28.718       25.077       25.650      824.747      628.838      657.933        0.185        0.106       35.780       13.736        0.147      344.315       21.048      864.406
10/29/2014  15:15:00       66.813      -69.318       -3.176       44.172       70.460       42.728     1951.124     4964.589     1825.644        0.901        0.437       96.275       37.388        0.151      344.268       20.966      864.404
10/29/2014  15:16:00      103.929       92.757       78.854      108.971       75.667       67.378    11874.685     5725.519     4539.728        2.388        1.107      139.302       56.489        0.164      344.500       21.361      864.396
10/29/2014  15:17:00      170.942       45.164       60.329      114.042      109.254       56.522    13005.488    11936.430     3194.715        3.151        1.407      176.808       47.017        0.071      344.279       20.983      864.417
10/29/2014  15:18:00      124.416       98.203       64.998       63.247       47.198       45.914     4000.194     2227.612     2108.087        1.884        0.417      158.503       23.446        0.022      344.481       21.328      864.431
10/29/2014  15:19:00      149.063       78.116       52.907       91.155       55.470       48.152     8309.250     3076.882     2318.586        2.241        0.685      168.291       35.796        0.045      344.501       21.362      864.441
10/29/2014  15:20:00       40.872       42.241       27.813       45.345       42.093       42.045     2056.133     1771.788     1767.784        0.491        0.280       58.778       30.474        0.269      344.476       21.321      864.432
10/29/2014  15:21:00       58.135       29.280       21.662       52.716       57.581       35.477     2778.965     3315.575     1258.619        0.603        0.368       65.092       14.050        0.047      344.403       21.197      864.418
10/29/2014  15:22:00       83.911       76.008       83.516       74.344       71.807       66.945     5527.031     5156.265     4481.697        1.748        0.758      113.218       46.604        0.169      344.629       21.583      864.406
10/29/2014  15:23:00       41.677       62.038       64.837       54.116       79.341       60.351     2928.534     6294.967     3642.212        1.133        0.643       74.737       55.543        0.552      344.413       21.215      864.408
10/29/2014  15:24:00       78.211       77.117        4.720       68.387       60.641       49.814     4676.799     3677.319     2481.394        1.146        0.542      109.837       41.919        0.146      344.477       21.323      864.393
10/29/2014  15:25:00       82.055       73.679       -2.840       50.191       34.823       30.197     2519.131     1212.607      911.850        0.841        0.232      110.280       11.108        0.010      344.339       21.088      864.385
10/29/2014  15:26:00       17.684       54.207      -12.263       25.127       26.030       23.085      631.386      677.577      532.894        0.262        0.092       57.019       19.810        0.121      344.477       21.323      864.384
10/29/2014  15:27:00       31.173      -57.737       -9.743       22.511       44.094       22.827      506.765     1944.265      521.060        0.369        0.149       65.615       15.379        0.055      344.250       20.936      864.372
10/29/2014  15:28:00       34.263      -25.657       -9.319       21.849       12.470       15.251      477.392      155.512      232.601        0.139        0.043       42.805        6.359        0.022      344.348       21.102      864.362
10/29/2014  15:29:00       29.740      -17.795       11.727       49.032       24.512       20.399     2404.096      600.820      416.114        0.238        0.171       34.657       10.478        0.091      344.770       21.825      864.354
10/29/2014  15:30:00       35.364      -16.204       17.759       34.051       54.904       33.360     1159.478     3014.400     1112.905        0.356        0.264       38.900       32.368        0.692      344.131       20.733      864.350
10/29/2014  15:31:00       -0.267      -21.573       -3.884       27.062       26.436       21.717      732.326      698.860      471.619        0.119        0.095       21.574       14.584        0.457      344.250       20.936      864.336
10/29/2014  15:32:00       69.699       49.029       35.422       87.777       64.235       32.388     7704.852     4126.177     1048.988        1.070        0.644       85.216       41.638        0.239      344.528       21.410      864.329
10/29/2014  15:33:00      175.489       84.106       36.545       87.094       70.245       53.765     7585.350     4934.320     2890.663        2.731        0.771      194.603       38.998        0.040      344.560       21.465      864.326
10/29/2014  15:34:00      164.819      101.616       23.678       68.081       47.752       46.370     4635.063     2280.298     2150.169        2.356        0.453      193.626       22.978        0.014      344.351       21.107      864.333
10/29/2014  15:35:00      140.192      116.578       18.884       52.796       39.537       34.653     2787.389     1563.148     1200.812        1.957        0.278      182.329       13.521        0.005      344.373       21.145      864.337
10/29/2014  15:36:00       84.697       43.800       11.568       57.334       46.419       30.159     3287.185     2154.741      909.541        0.779        0.318       95.353       16.688        0.031      344.543       21.436      864.324
10/29/2014  15:37:00       -0.831       21.508        7.534       40.486       34.931       21.240     1639.093     1220.208      451.123        0.191        0.166       21.524       16.020        0.554      344.776       21.835      864.309
10/29/2014  15:38:00       88.462       60.854       20.412       33.703       28.718       30.715     1135.919      824.717      943.417        0.742        0.145      107.372       11.216        0.011      344.409       21.207      864.318
10/29/2014  15:39:00       99.126      -18.078       35.677       76.728      104.009       50.425     5887.145    10817.824     2542.674        1.533        0.962      100.761       63.003        0.391      344.417       21.220      864.310
10/29/2014  15:40:00       45.389       80.513       84.597       57.198       55.440       43.036     3271.620     3073.565     1852.096        1.195        0.410       92.425       33.953        0.135      344.503       21.369      864.305
10/29/2014  15:41:00       90.897       44.088       67.164       79.510       80.347       53.303     6321.824     6455.610     2841.221        1.516        0.781      101.025       44.863        0.197      344.336       21.082      864.312
10/29/2014  15:42:00       44.996       60.551       50.626       44.498       40.630       39.564     1980.051     1650.782     1565.346        0.672        0.260       75.439       25.213        0.112      344.101       20.680      864.295
10/29/2014  15:43:00       66.494       24.809       18.203       56.486       49.986       44.502     3190.713     2498.602     1980.439        0.652        0.383       70.972       29.665        0.175      344.308       21.035      864.281
10/29/2014  15:44:00        4.219       20.809       25.061       20.142       30.001       25.915      405.693      900.031      671.581        0.153        0.099       21.232       22.377        1.111      344.343       21.095      864.262
10/29/2014  15:45:00       10.104      -14.472        7.879       22.120       33.367       24.416      489.288     1113.374      596.127        0.129        0.110       17.650       14.740        0.697      344.129       20.729      864.254
10/29/2014  15:46:00       52.184       41.973       30.624       44.464       36.918       31.058     1977.008     1362.904      964.613        0.486        0.215       66.969        7.137        0.011      344.144       20.755      864.237
10/29/2014  15:47:00       28.876       11.522       29.715       41.237       42.020       34.024     1700.508     1765.644     1157.655        0.324        0.231       31.090       32.592        1.099      344.236       20.911      864.224
10/29/2014  15:48:00       87.230      -11.309       22.549       47.103       56.991       40.214     2218.706     3247.951     1617.197        0.766        0.354       87.960       20.754        0.056      344.213       20.872      864.216
10/29/2014  15:49:00      143.120      -59.471       -0.670       55.943       47.027       37.002     3129.652     2211.549     1369.114        1.536        0.336      154.985       31.369        0.041      344.008       20.522      864.220
10/29/2014  15:50:00       70.849      -34.348       12.636       66.053       32.124       27.057     4362.946     1031.930      732.105        0.624        0.306       78.736       22.750        0.083      344.287       20.998      864.231
10/29/2014  15:51:00       19.569      -56.296       17.832       26.985       52.653       30.914      728.185     2772.370      955.668        0.416        0.223       59.600       26.904        0.204      344.568       21.479      864.213
10/29/2014  15:52:00        6.181      -20.836       13.903       31.572       34.797       25.175      996.794     1210.816      633.794        0.175        0.142       21.733       20.682        0.906      344.461       21.296      864.198
10/29/2014  15:53:00       -2.394       -0.586       25.036       20.812       19.309       13.847      433.154      372.856      191.735        0.082        0.050        2.465        8.294       11.322      344.341       21.091      864.201
10/29/2014  15:54:00       88.795       55.395       32.299       38.001       36.038       34.444     1444.112     1298.731     1186.402        0.796        0.196      104.657       19.537        0.035      344.371       21.143      864.190
10/29/2014  15:55:00       83.391       69.719       20.270       26.530       28.970       29.276      703.843      839.279      857.100        0.731        0.120      108.696       19.139        0.031      344.456       21.286      864.186
10/29/2014  15:56:00       74.073       78.814       12.303       51.625       45.099       40.082     2665.111     2033.952     1606.568        0.908        0.315      108.160       32.717        0.091      344.566       21.477      864.164
10/29/2014  15:57:00       62.398       27.179       -1.026       49.324       50.823       29.836     2432.826     2582.945      890.169        0.527        0.295       68.061       27.136        0.159      344.719       21.736      864.151
10/29/2014  15:58:00       45.074       85.722        0.979       42.918       74.693       44.950     1841.921     5579.112     2020.531        0.941        0.472       96.850       46.674        0.232      344.698       21.702      864.146
10/29/2014  15:59:00       -6.976      136.194      -19.920       36.175       51.096       23.169     1308.625     2610.791      536.781        1.172        0.223      136.373       22.916        0.028      344.675       21.660      864.148
10/29/2014  16:00:00        9.957       64.601        8.856       49.763       57.899       31.915     2476.355     3352.269     1018.562        0.560        0.342       65.364       34.945        0.286      344.762       21.811      864.149
10/29/2014  16:01:00      107.504       50.822       21.807       42.376       29.435       32.359     1795.685      866.402     1047.076        0.916        0.185      118.911       23.658        0.040      344.456       21.287      864.147
10/29/2014  16:02:00       61.778       56.312       33.802       70.477       61.008       42.399     4967.014     3722.028     1797.705        0.931        0.524       83.591       25.308        0.092      344.536       21.425      864.144
10/29/2014  16:03:00       64.658       61.228       14.098       47.666       43.915       34.884     2272.057     1928.508     1216.887        0.677        0.271       89.047       26.445        0.088      344.634       21.592      864.126
10/29/2014  16:04:00      136.690       78.307       32.442       86.389       52.397       38.517     7463.119     2745.491     1483.528        1.878        0.585      157.532       21.536        0.019      344.607       21.545      864.118
10/29/2014  16:05:00      140.164       78.707       47.704      102.375       68.859       58.247    10480.546     4741.552     3392.712        2.336        0.931      160.751       56.139        0.122      344.640       21.600      864.114
10/29/2014  16:06:00      104.723       48.412       21.775       92.399       52.129       43.605     8537.631     2717.424     1901.361        1.347        0.658      115.372       30.702        0.071      344.685       21.676      864.121
10/29/2014  16:07:00       73.621        4.679       33.108       77.562       88.024       58.032     6015.868     7748.201     3367.753        1.183        0.857       73.769       41.545        0.317      344.486       21.339      864.135
10/29/2014  16:08:00       76.686       55.895       34.686       49.264       45.605       29.428     2426.903     2079.782      865.993        0.779        0.269       94.895       21.940        0.053      344.624       21.576      864.137
10/29/2014  16:09:00       40.398      -58.158       -8.050       33.119       38.115       21.803     1096.896     1452.744      475.380        0.405        0.151       70.812       18.255        0.066      344.728       21.750      864.136
10/29/2014  16:10:00        3.992      -45.986       21.319       23.377       44.903       21.091      546.493     2016.280      444.850        0.280        0.150       46.158        8.873        0.037      344.743       21.778      864.142
10/29/2014  16:11:00       10.670      -52.227        5.184       29.915       40.776       25.246      894.881     1662.678      637.337        0.303        0.160       53.306       23.757        0.199      344.616       21.563      864.141
10/29/2014  16:12:00       92.176       47.481       37.293       98.032       72.345       69.572     9610.358     5233.832     4840.321        1.591        0.984      103.686       41.279        0.158      344.396       21.184      864.136
10/29/2014  16:13:00      119.743       58.238       29.777       57.984       50.124       50.928     3362.140     2512.440     2593.617        1.354        0.423      133.154       31.004        0.054      344.247       20.930      864.142
10/29/2014  16:14:00       50.145       49.228       62.497       65.082       38.945       43.348     4235.716     1516.704     1879.034        0.824        0.382       70.270       29.665        0.178      344.314       21.045      864.139
10/29/2014  16:15:00       47.390       15.336       54.149       55.609       62.062       52.764     3092.336     3851.631     2784.064        0.757        0.486       49.810       38.979        0.612      344.355       21.114      864.131
10/29/2014  16:16:00       77.667       96.167      100.633       92.035       94.641       84.561     8470.497     8956.978     7150.581        2.499        1.229      123.614       74.130        0.360      344.335       21.079      864.124
10/29/2014  16:17:00       80.643      133.988      108.944       74.803       80.112       74.461     5595.509     6417.957     5544.463        2.694        0.878      156.385       61.289        0.154      344.213       20.869      864.121
10/29/2014  16:18:00       49.404       46.276       66.471       92.722       89.048       58.510     8597.284     7929.611     3423.411        1.447        0.998       67.692       61.100        0.815      344.275       20.977      864.122
10/29/2014  16:19:00       30.222       69.600       82.829       46.866       65.543       39.357     2196.382     4295.926     1548.972        1.033        0.402       75.878       35.569        0.220      344.348       21.103      864.131
10/29/2014  16:20:00       78.029       67.290       53.034       65.695       38.404       41.932     4315.887     1474.889     1758.265        1.049        0.377      103.036       39.839        0.149      344.330       21.072      864.131
10/29/2014  16:21:00      166.289       83.970       29.792       69.186       45.816       48.033     4786.736     2099.091     2307.213        2.239        0.460      186.288       28.726        0.024      344.589       21.512      864.125
10/29/2014  16:22:00      155.150       91.581       34.697       57.481       52.218       52.803     3304.032     2726.697     2788.117        2.124        0.441      180.162       34.239        0.036      344.414       21.215      864.114
10/29/2014  16:23:00      114.486       80.395       24.178       47.944       39.512       40.613     2298.640     1561.159     1649.454        1.283        0.275      139.894       25.320        0.033      344.525       21.405      864.095
10/29/2014  16:24:00      134.761       39.922       10.385       73.664       52.038       42.466     5426.350     2707.971     1803.391        1.490        0.497      140.550       30.758        0.048      344.586       21.509      864.076
10/29/2014  16:25:00       33.823       63.129       51.989       76.544       42.270       31.132     5858.934     1786.769      969.184        0.822        0.431       71.619       21.926        0.094      344.407       21.203      864.068
10/29/2014  16:26:00      112.184       90.304       32.349       79.915       63.462       60.812     6386.347     4027.368     3698.057        1.795        0.706      144.014       51.759        0.129      344.527       21.408      864.058
10/29/2014  16:27:00      118.030       93.342       15.096       58.002       40.200       33.108     3364.208     1616.013     1096.145        1.447        0.304      150.479       26.717        0.032      344.574       21.490      864.052
10/29/2014  16:28:00       62.331       47.228       22.162       30.360       39.384       37.180      921.727     1551.078     1382.355        0.523        0.193       78.203       29.572        0.143      344.455       21.287      864.050
10/29/2014  16:29:00      111.539       63.231       48.347       66.856       58.982       45.386     4469.659     3478.911     2059.893        1.439        0.500      128.215       29.513        0.053      344.418       21.222      864.046
10/29/2014  16:30:00       88.851       73.345       55.880      109.450       58.063       63.623    11979.387     3371.256     4047.832        1.789        0.970      115.212       63.289        0.302      344.511       21.381      864.033
10/29/2014  16:31:00      134.886      109.214       64.877       88.940       52.698       56.310     7910.354     2777.103     3170.767        2.409        0.693      173.556       31.415        0.033      344.635       21.592      864.023
10/29/2014  16:32:00       70.762       35.939       28.757       64.644       40.056       30.440     4178.846     1604.495      926.582        0.692        0.335       79.366        8.787        0.012      344.549       21.445      864.025
10/29/2014  16:33:00      101.048       51.459       38.801       99.324       48.024       40.684     9865.315     2306.321     1655.198        1.409        0.691      113.397       28.364        0.063      344.476       21.320      864.003
10/29/2014  16:34:00       98.745       44.775       35.305       52.698       38.549       37.474     2777.053     1486.046     1404.294        0.933        0.283      108.423       18.411        0.029      344.552       21.451      863.996
10/29/2014  16:35:00      207.724      138.293       29.369       70.805       47.779       47.055     5013.393     2282.831     2214.160        3.632        0.476      249.548       35.640        0.020      344.535       21.418      863.973
10/29/2014  16:36:00      185.105      130.450       36.672       54.683       48.540       41.179     2990.195     2356.179     1695.746        2.983        0.352      226.453       20.996        0.009      344.478       21.320      863.959
10/29/2014  16:37:00      116.721       80.448       13.455       70.946       48.146       33.245     5033.349     2317.993     1105.260        1.436        0.423      141.759       17.770        0.016      344.571       21.482      863.945
10/29/2014  16:38:00      104.528       52.620       15.693       44.781       32.127       33.314     2005.299     1032.116     1109.840        0.904        0.207      117.026       18.296        0.024      344.458       21.291      863.933
10/29/2014  16:39:00       36.127       26.155        7.155       46.257       23.033       17.136     2139.716      530.531      293.655        0.250        0.148       44.601       13.575        0.093      344.466       21.305      863.930
10/29/2014  16:40:00       31.968       15.742       15.236       35.785       25.798       14.989     1280.534      665.542      224.657        0.184        0.109       35.634       10.610        0.089      344.302       21.024      863.918
10/29/2014  16:41:00       88.681       35.387       12.201       51.390       34.162       26.806     2640.906     1167.036      718.564        0.690        0.226       95.481       12.836        0.018      344.217       20.879      863.924
10/29/2014  16:42:00      108.700       81.093       16.738       40.993       34.818       32.956     1680.435     1212.278     1086.099        1.132        0.199      135.616       22.527        0.028      344.525       21.406      863.912
10/29/2014  16:43:00      129.018       74.804       18.965       74.100       55.785       38.285     5490.818     3111.975     1465.763        1.633        0.503      149.135       24.917        0.028      344.509       21.377      863.917
10/29/2014  16:44:00       42.799       50.909       28.968       51.320       62.384       38.128     2633.767     3891.790     1453.725        0.662        0.399       66.509       37.805        0.323      344.261       20.953      863.915
10/29/2014  16:45:00      114.081       39.665       19.918       60.978       36.255       38.657     3718.284     1314.426     1494.356        1.075        0.326      120.780       24.469        0.041      344.444       21.268      863.907
10/29/2014  16:46:00      168.111       81.145       39.810       76.137       64.787       51.348     5796.788     4197.343     2636.617        2.453        0.632      186.670       33.005        0.031      344.495       21.351      863.895
10/29/2014  16:47:00      109.595       87.065       41.993      102.160       64.570       48.414    10436.616     4169.272     2343.919        1.915        0.847      139.969       39.316        0.079      344.434       21.248      863.882
10/29/2014  16:48:00      161.796      120.429       72.436       92.135       77.469       53.771     8488.780     6001.410     2891.312        3.165        0.869      201.695       48.803        0.059      344.394       21.179      863.876
10/29/2014  16:49:00      128.563      118.115       69.033      116.525       73.320       80.312    13578.036     5375.789     6450.023        3.032        1.270      174.584       67.452        0.149      344.353       21.110      863.867
10/29/2014  16:50:00      240.721      180.752       24.456       95.913       78.310       69.667     9199.359     6132.513     4853.503        5.570        1.009      301.028       45.011        0.022      344.474       21.315      863.848
10/29/2014  16:51:00      127.381       86.711       53.770       70.680       50.392       45.842     4995.696     2539.380     2101.507        1.813        0.482      154.093       27.335        0.031      344.364       21.130      863.849
10/29/2014  16:52:00      162.051       99.490       29.081       80.423       68.498       48.081     6467.930     4692.031     2311.749        2.524        0.674      190.155       37.192        0.038      344.430       21.238      863.832
10/29/2014  16:53:00      171.089      138.584       38.878       76.742       60.865       53.741     5889.371     3704.493     2888.121        3.123        0.624      220.175       33.640        0.023      344.442       21.260      863.832
10/29/2014  16:54:00      199.588      123.201       36.784       74.684       50.241       49.473     5577.645     2524.140     2447.618        3.346        0.527      234.551       12.774        0.003      344.466       21.301      863.835
10/29/2014  16:55:00       69.142       61.096        7.753       66.763       42.893       32.608     4457.284     1839.791     1063.296        0.797        0.368       92.267       22.179        0.058      344.461       21.295      863.834
10/29/2014  16:56:00      185.809       95.489       33.996       84.449       51.073       46.508     7131.590     2608.487     2162.998        2.835        0.595      208.910       17.350        0.007      344.452       21.278      863.832
10/29/2014  16:57:00      218.508      159.833       20.240       83.543       47.201       53.891     6979.432     2227.894     2904.264        4.290        0.606      270.725       37.913        0.020      344.466       21.302      863.831
10/29/2014  16:58:00      113.265       88.950       13.444       77.266       52.586       43.932     5970.020     2765.302     1930.050        1.579        0.533      144.018       19.698        0.019      344.470       21.309      863.818
10/29/2014  16:59:00      147.477      130.193        6.697       63.488       74.640       63.093     4030.736     5571.140     3980.748        2.616        0.679      196.722       52.483        0.071      344.459       21.289      863.801
10/29/2014  17:00:00      174.172      127.459       24.873       64.914       47.478       48.877     4213.764     2254.169     2388.923        2.803        0.443      215.828       37.838        0.031      344.467       21.303      863.791
10/29/2014  17:01:00      106.835       44.312        7.743       63.461       59.640       38.103     4027.337     3556.905     1451.868        1.123        0.452      115.660       16.743        0.021      344.422       21.231      863.780
10/29/2014  17:02:00      101.348       95.206        6.161       54.698       56.027       49.543     2991.885     3139.043     2454.495        1.398        0.429      139.053       38.845        0.078      344.457       21.288      863.768
10/29/2014  17:03:00      150.411      102.896       27.900       83.896       51.416       50.945     7038.561     2643.584     2595.438        2.313        0.614      182.239       28.008        0.024      344.488       21.340      863.758
10/29/2014  17:04:00      158.971       84.463       21.705       60.735       51.641       37.816     3688.756     2666.815     1430.018        2.033        0.389      180.016       10.148        0.003      344.342       21.090      863.753
10/29/2014  17:05:00      177.887      110.131       22.680       59.832       53.493       44.277     3579.859     2861.471     1960.430        2.634        0.420      209.218       31.089        0.022      344.453       21.280      863.753
10/29/2014  17:06:00      175.492       58.195       37.691       92.759       78.950       48.705     8604.178     6233.066     2372.201        2.640        0.860      184.890       39.772        0.046      344.334       21.076      863.746
10/29/2014  17:07:00      106.577       26.695       49.165       60.819       70.860       39.929     3698.958     5021.137     1594.312        1.240        0.516      109.869       29.421        0.072      344.047       20.587      863.743
10/29/2014  17:08:00      128.404       64.841       44.125       99.151       58.132       36.768     9830.859     3379.337     1351.863        1.860        0.728      143.847       41.965        0.085      344.185       20.821      863.737
10/29/2014  17:09:00      102.551       19.336       37.059       68.211       70.553       33.097     4652.710     4977.679     1095.435        1.149        0.536      104.358       25.651        0.060      344.004       20.514      863.726
10/29/2014  17:10:00      142.506       59.194       26.122       66.562       63.633       42.243     4430.476     4049.164     1784.443        1.738        0.513      154.311       30.470        0.039      344.214       20.872      863.738
10/29/2014  17:11:00      226.265      106.342       38.845      102.528       83.509       65.900    10511.894     6973.750     4342.832        4.292        1.091      250.009       52.631        0.044      344.329       21.068      863.727
10/29/2014  17:12:00      183.926      111.690       29.716       83.005       53.696       47.803     6889.756     2883.240     2285.126        2.962        0.603      215.182       26.169        0.015      344.329       21.068      863.736
10/29/2014  17:13:00      116.170       80.641       29.493       45.849       41.836       37.761     2102.173     1750.265     1425.888        1.307        0.264      141.416       18.711        0.018      344.239       20.917      863.748
10/29/2014  17:14:00      149.860       65.150       32.220       84.006       68.972       47.215     7056.981     4757.189     2229.232        2.089        0.702      163.409       28.680        0.031      344.193       20.837      863.763
10/29/2014  17:15:00      150.749      115.989       78.742       89.061       57.647       49.438     7931.904     3323.222     2444.107        2.804        0.685      190.208       45.043        0.056      344.192       20.834      863.757
10/29/2014  17:16:00       95.723       58.008       17.379       53.590       34.790       33.655     2871.892     1210.372     1132.656        0.902        0.261      111.927       17.053        0.023      344.253       20.940      863.765
10/29/2014  17:17:00      116.222       86.917       39.351       59.830       43.454       48.798     3579.683     1888.215     2381.259        1.523        0.392      145.128       22.721        0.025      344.175       20.805      863.769
10/29/2014  17:18:00      167.676      119.084       21.486       75.419       50.099       55.921     5688.012     2509.951     3127.178        2.704        0.566      205.660       31.399        0.023      344.327       21.066      863.758
10/29/2014  17:19:00      118.549       90.683       55.023       46.361       42.445       42.925     2149.299     1801.584     1842.547        1.555        0.290      149.256       24.288        0.026      344.064       20.618      863.750
10/29/2014  17:20:00       90.068       77.493       47.324       30.738       27.431       38.542      944.795      752.475     1485.480        0.977        0.159      118.817       23.941        0.041      344.124       20.721      863.747
10/29/2014  17:21:00       70.750       56.865       12.006       46.772       29.388       29.139     2187.613      863.678      849.099        0.614        0.195       90.770       24.415        0.072      344.203       20.856      863.754
10/29/2014  17:22:00       87.617       78.924        3.148       55.193       46.036       38.637     3046.236     2119.355     1492.833        1.029        0.333      117.922       29.575        0.063      344.283       20.991      863.747
10/29/2014  17:23:00       78.353       60.225       -0.913       50.894       31.140       30.268     2590.223      969.713      916.142        0.712        0.224       98.824       25.804        0.068      344.273       20.973      863.746
10/29/2014  17:24:00       45.833       72.343        1.335       51.559       35.761       27.941     2658.307     1278.825      780.704        0.603        0.236       85.640       17.877        0.044      344.197       20.843      863.759
10/29/2014  17:25:00       96.674       79.209       12.584       43.673       39.951       39.795     1907.349     1596.071     1583.658        1.043        0.254      124.980       31.147        0.062      344.275       20.977      863.760
10/29/2014  17:26:00       62.155       49.044        3.705       42.821       29.615       26.980     1833.668      877.036      727.943        0.486        0.172       79.174       15.945        0.041      344.239       20.917      863.764
10/29/2014  17:27:00       86.176       55.268       10.270       33.763       24.775       23.878     1139.953      613.814      570.138        0.645        0.116      102.375       14.844        0.021      344.091       20.664      863.763
10/29/2014  17:28:00       96.895       66.161       27.010       28.832       24.808       25.191      831.312      615.460      634.585        0.829        0.104      117.328        9.786        0.007      344.098       20.677      863.767
10/29/2014  17:29:00       49.013       29.732        7.952       36.969       34.026       22.974     1366.698     1157.791      527.812        0.320        0.153       57.326       17.858        0.097      344.020       20.542      863.769
10/29/2014  17:30:00       28.960       28.320       11.545       32.166       22.383       16.262     1034.683      500.999      264.462        0.179        0.090       40.506        5.334        0.017      343.995       20.499      863.773
10/29/2014  17:31:00       52.922       40.244       17.034       25.940       21.355       27.340      672.908      456.023      747.460        0.329        0.094       66.485        8.275        0.015      343.773       20.120      863.781
10/29/2014  17:32:00       39.916       39.053       -1.756       27.211       21.784       17.110      740.457      474.554      292.759        0.231        0.075       55.843       10.186        0.033      343.901       20.338      863.786
10/29/2014  17:33:00       42.420       67.494        2.519       32.636       30.696       20.801     1065.118      942.236      432.685        0.440        0.122       79.717       19.764        0.061      344.140       20.747      863.787
10/29/2014  17:34:00       51.623       73.619        7.359       33.526       53.511       37.588     1124.020     2863.389     1412.884        0.677        0.270       89.915       35.732        0.158      344.126       20.723      863.782
10/29/2014  17:35:00       61.446       53.509       19.278       32.443       24.952       21.786     1052.542      622.592      474.637        0.458        0.107       81.479        9.358        0.013      344.118       20.712      863.789
10/29/2014  17:36:00       47.050       54.584       17.325       29.070       36.673       26.546      845.079     1344.937      704.675        0.419        0.145       72.064       24.286        0.114      344.083       20.650      863.794
10/29/2014  17:37:00      101.401       67.002       14.142       37.462       25.841       28.292     1403.430      667.753      800.427        0.892        0.144      121.538       17.691        0.021      343.989       20.489      863.800
10/29/2014  17:38:00       79.169       56.109       15.936       27.658       21.797       15.608      764.940      475.088      243.603        0.558        0.074       97.036        8.351        0.007      344.008       20.522      863.808
10/29/2014  17:39:00       91.951       59.818       15.599       45.765       33.976       23.087     2094.454     1154.345      532.992        0.803        0.189      109.696       19.167        0.031      344.003       20.514      863.816
10/29/2014  17:40:00       67.129       51.992        2.272       36.576       25.684       24.806     1337.791      659.693      615.328        0.491        0.131       84.909       13.939        0.027      343.645       19.902      863.824
10/29/2014  17:41:00       28.910       61.149        9.628       38.389       51.124       34.580     1473.681     2613.645     1195.791        0.497        0.264       67.639       31.377        0.215      343.936       20.399      863.834
10/29/2014  17:42:00       61.098       57.996        7.273       40.939       32.712       29.465     1675.965     1070.044      868.216        0.538        0.181       84.241       22.661        0.072      343.770       20.116      863.843
10/29/2014  17:43:00       63.635       41.701       18.973       37.847       25.898       24.011     1432.381      670.694      576.539        0.441        0.134       76.082       11.202        0.022      343.772       20.119      863.851
10/29/2014  17:44:00       63.282       60.361        2.029       45.510       41.095       34.788     2071.170     1688.827     1210.180        0.631        0.249       87.453       28.674        0.108      343.787       20.145      863.857
10/29/2014  17:45:00       66.141       66.050       -0.999       38.225       34.174       28.929     1461.121     1167.896      836.877        0.610        0.173       93.473       23.138        0.061      343.885       20.311      863.868
10/29/2014  17:46:00       67.619       60.439       16.100       35.595       25.424       27.960     1266.988      646.373      781.735        0.559        0.135       90.693       20.600        0.052      343.818       20.199      863.875
10/29/2014  17:47:00       83.085       42.257       19.319       27.622       24.040       23.263      762.972      577.923      541.184        0.547        0.094       93.214       16.062        0.030      343.605       19.835      863.883
10/29/2014  17:48:00       82.443       52.889       20.565       30.179       26.144       24.355      910.755      683.502      593.161        0.610        0.109       97.949        8.299        0.007      343.377       19.446      863.887
10/29/2014  17:49:00       85.994       51.208        8.678       24.826       19.525       23.047      616.335      381.222      531.148        0.581        0.076      100.086       10.412        0.011      343.242       19.217      863.886
10/29/2014  17:50:00       86.424       58.666       22.435       30.741       18.521       21.108      945.022      343.009      445.562        0.657        0.087      104.455       10.789        0.011      343.723       20.037      863.883
10/29/2014  17:51:00       78.338       58.902       30.605       28.625       21.243       22.920      819.368      451.283      525.332        0.617        0.090       98.012       15.613        0.025      343.738       20.060      863.886
10/29/2014  17:52:00      105.245       69.103       28.377       30.098       22.799       25.516      905.867      519.810      651.090        0.937        0.104      125.903       14.679        0.014      343.670       19.944      863.884
10/29/2014  17:53:00       63.928       58.178       15.757       31.944       26.515       28.957     1020.417      703.049      838.483        0.514        0.128       86.438       20.746        0.058      343.690       19.979      863.897
10/29/2014  17:54:00       64.753       61.275       16.422       34.442       30.793       27.937     1186.255      948.216      780.481        0.557        0.146       89.149       21.139        0.056      343.692       19.983      863.906
10/29/2014  17:55:00       46.006       56.770       11.824       39.166       36.348       34.076     1534.010     1321.197     1161.165        0.475        0.201       73.071       25.869        0.125      343.689       19.977      863.904
10/29/2014  17:56:00       77.506       67.109       12.987       44.382       36.143       34.434     1969.793     1306.326     1185.688        0.757        0.223      102.522       26.044        0.065      343.732       20.051      863.901
10/29/2014  17:57:00       96.637       65.171       19.316       44.732       30.165       28.473     2000.987      909.951      810.727        0.884        0.186      116.559       17.813        0.023      343.697       19.991      863.913
10/29/2014  17:58:00       70.723       58.055       22.509       33.355       34.942       22.646     1112.556     1220.923      512.856        0.586        0.142       91.499       15.657        0.029      343.458       19.584      863.932
10/29/2014  17:59:00      100.004       66.167       25.393       32.118       22.524       22.583     1031.590      507.322      510.010        0.854        0.102      119.912       13.003        0.012      343.470       19.604      863.933
10/29/2014  18:00:00       55.575       46.754        5.470       30.533       17.707       19.328      932.260      313.549      373.581        0.346        0.081       72.625        9.798        0.018      343.407       19.496      863.939
10/29/2014  18:01:00       82.870       61.784       13.783       29.942       25.912       25.368      896.519      671.427      643.517        0.654        0.111      103.367       16.348        0.025      343.475       19.613      863.945
10/29/2014  18:02:00       70.068       51.337       19.395       24.947       17.588       25.689      622.378      309.334      659.917        0.476        0.080       86.862       16.414        0.036      343.511       19.675      863.957
10/29/2014  18:03:00       78.536       55.789       18.835       31.836       24.490       25.283     1013.559      599.752      639.253        0.594        0.113       96.334       15.290        0.025      343.534       19.713      863.955
10/29/2014  18:04:00       81.564       56.701       21.884       33.257       27.401       32.875     1106.021      750.811     1080.794        0.664        0.147       99.336       22.330        0.051      343.584       19.798      863.954
10/29/2014  18:05:00      124.028       81.811       26.689       40.939       28.768       28.475     1675.963      827.587      810.831        1.305        0.166      148.579       20.394        0.019      343.648       19.907      863.962
10/29/2014  18:06:00      114.705       73.142       28.112       35.731       26.353       22.882     1276.708      694.500      523.601        1.090        0.125      136.040       16.027        0.014      343.398       19.483      863.974
10/29/2014  18:07:00      103.631       60.001       30.769       28.040       24.292       19.863      786.263      590.083      394.551        0.853        0.089      119.748       12.738        0.011      343.506       19.666      863.982
10/29/2014  18:08:00       49.777       43.652       16.461       34.024       21.174       27.627     1157.618      448.349      763.265        0.351        0.118       66.207       19.833        0.090      343.455       19.578      863.991
10/29/2014  18:09:00       89.634       62.404       34.429       32.165       27.937       25.742     1034.587      780.478      662.627        0.780        0.124      109.218       19.025        0.030      343.551       19.742      864.001
10/29/2014  18:10:00       63.426       65.186        8.708       44.137       29.079       28.451     1948.098      845.599      809.460        0.597        0.180       90.951       24.165        0.071      343.478       19.616      864.007
10/29/2014  18:11:00       13.545       57.444        1.762       21.911       35.177       20.766      480.093     1237.413      431.243        0.282        0.107       59.019       20.625        0.122      343.507       19.669      864.020
10/29/2014  18:12:00       -0.048      100.610      -13.865       13.687       15.558        9.438      187.324      242.052       89.073        0.542        0.026      100.610        6.366        0.004      343.639       19.892      864.021
10/29/2014  18:13:00       -3.146      117.093      -17.778       16.015       23.070        8.743      256.490      532.229       76.438        0.745        0.043      117.136        9.535        0.007      343.598       19.822      864.019
10/29/2014  18:14:00        1.160      134.650      -20.781       17.429       24.392       14.159      303.779      594.948      200.470        0.983        0.055      134.655       11.418        0.007      343.536       19.717      864.028
10/29/2014  18:15:00        2.680      136.480      -20.700       20.422       19.624       13.737      417.047      385.096      188.701        1.003        0.050      136.507       12.407        0.008      343.506       19.666      864.034
10/29/2014  18:16:00       -2.660      118.051      -13.447       22.824       25.166       16.353      520.958      633.326      267.430        0.777        0.071      118.081       14.760        0.016      343.473       19.609      864.046
10/29/2014  18:17:00       -4.634      123.095      -14.907       19.310       20.533       12.514      372.877      421.609      156.595        0.817        0.048      123.182        6.528        0.003      343.501       19.658      864.056
10/29/2014  18:18:00        9.455       74.472       -3.486       21.288       33.025       17.541      453.192     1090.650      307.699        0.375        0.093       75.070       16.056        0.046      343.361       19.418      864.053
10/29/2014  18:19:00       24.742       52.702        5.671       28.158       26.617       20.847      792.869      708.460      434.603        0.268        0.097       58.221       20.204        0.120      343.323       19.352      864.055
10/29/2014  18:20:00       14.986       69.678        2.317       25.772       29.641       17.790      664.175      878.571      316.482        0.347        0.093       71.271       16.141        0.051      343.312       19.335      864.055
10/29/2014  18:21:00       42.497       73.857       -3.140       30.812       27.998       24.991      949.402      783.872      624.539        0.481        0.118       85.211       20.614        0.059      343.266       19.256      864.048
10/29/2014  18:22:00       37.898      103.455      -10.890       30.068       34.063       26.597      904.104     1160.280      707.423        0.751        0.139      110.178       24.330        0.049      343.279       19.279      864.056
10/29/2014  18:23:00       57.627       53.527        7.860       30.733       30.036       33.576      944.509      902.139     1127.375        0.461        0.149       78.651       21.281        0.073      343.266       19.257      864.059
10/29/2014  18:24:00       49.951       71.321        6.499       35.537       37.752       27.348     1262.855     1425.177      747.940        0.553        0.172       87.073       24.695        0.080      343.261       19.247      864.059
10/29/2014  18:25:00       27.328       61.225        9.363       21.246       27.955       23.084      451.408      781.491      532.889        0.317        0.088       67.047       19.698        0.086      343.225       19.187      864.066
10/29/2014  18:26:00       15.611       67.501       -2.011       23.221       19.780       14.838      539.214      391.238      220.163        0.298        0.058       69.282        9.905        0.020      343.189       19.127      864.065
10/29/2014  18:27:00       22.689      101.063       -9.005       24.592       26.191       12.739      604.773      685.975      162.271        0.613        0.073      103.579        8.163        0.006      343.186       19.120      864.067
10/29/2014  18:28:00       27.962      130.563      -20.511       20.175       22.616       12.902      407.019      511.483      166.460        0.967        0.054      133.524        8.020        0.004      343.252       19.232      864.064
10/29/2014  18:29:00       30.568      123.345      -19.406       22.396       23.293       14.737      501.593      542.543      217.186        0.889        0.063      127.076        9.102        0.005      343.174       19.099      864.068
10/29/2014  18:30:00       32.934       90.356       -1.233       27.266       46.979       26.440      743.447     2207.052      699.069        0.645        0.182       96.171       28.756        0.089      343.125       19.017      864.070
10/29/2014  18:31:00       20.659       73.427       -1.864       25.261       44.038       28.740      638.142     1939.310      825.987        0.461        0.170       76.278       28.586        0.140      343.086       18.951      864.062
10/29/2014  18:32:00       20.475      125.307      -14.151       21.768       26.582       13.905      473.841      706.577      193.345        0.885        0.069      126.969       13.553        0.011      343.131       19.026      864.073
10/29/2014  18:33:00       28.857      125.082      -14.108       27.050       29.818       25.965      731.689      889.098      674.161        0.949        0.115      128.367       24.315        0.036      343.096       18.968      864.069
10/29/2014  18:34:00       24.376      125.675      -14.056       28.711       31.791       20.974      824.320     1010.637      439.912        0.943        0.114      128.017       16.107        0.016      343.100       18.974      864.073
10/29/2014  18:35:00       33.130      131.204      -16.555       26.855       28.913       19.761      721.192      835.945      390.488        1.027        0.097      135.322       15.166        0.013      343.079       18.938      864.085
10/29/2014  18:36:00       21.553      119.368      -13.284       21.132       40.011       21.334      446.546     1600.886      455.131        0.870        0.125      121.298       23.526        0.038      343.065       18.915      864.082
10/29/2014  18:37:00       20.462      104.020      -18.526       22.984       49.210       18.554      528.276     2421.603      344.266        0.744        0.165      106.014       26.028        0.060      343.038       18.867      864.093
10/29/2014  18:38:00       25.092      137.980      -19.044       26.275       33.012       19.602      690.362     1089.806      384.243        1.110        0.108      140.243       17.651        0.016      343.016       18.831      864.086
10/29/2014  18:39:00       -5.697      120.269      -16.618       25.374       22.242       16.684      643.842      494.691      278.366        0.809        0.071      120.403       14.486        0.014      343.064       18.911      864.087
10/29/2014  18:40:00       -7.715      123.662      -13.342       36.569       35.621       22.297     1337.267     1268.865      497.159        0.932        0.155      123.903       22.854        0.034      342.995       18.796      864.092
10/29/2014  18:41:00      -10.899      130.662      -21.505       26.354       20.440       13.869      694.534      417.811      192.344        0.948        0.065      131.116       12.560        0.009      343.049       18.886      864.085
10/29/2014  18:42:00       -8.207      108.929      -19.693       24.242       43.277       19.550      587.685     1872.938      382.204        0.758        0.142      109.238       22.237        0.041      343.015       18.830      864.090
10/29/2014  18:43:00      -22.158       89.228      -10.982       22.126       39.379       22.893      489.571     1550.735      524.081        0.557        0.128       91.938       23.194        0.064      342.958       18.733      864.088
10/29/2014  18:44:00      -17.171       79.976       -5.486       26.554       25.212       17.107      705.115      635.663      292.636        0.418        0.082       81.798       15.782        0.037      342.934       18.691      864.093
10/29/2014  18:45:00       -9.111       64.004       -1.571       19.964       18.866       16.722      398.566      355.933      279.630        0.261        0.052       64.650       12.213        0.036      342.830       18.514      864.091
10/29/2014  18:46:00      -11.075       90.291       -8.274       23.731       38.933       11.643      563.157     1515.765      135.553        0.528        0.111       90.967        8.445        0.009      342.843       18.537      864.103
10/29/2014  18:47:00       -6.275      116.563      -14.229       19.326       20.979       12.436      373.489      440.119      154.652        0.740        0.048      116.732        9.283        0.006      342.900       18.635      864.107
10/29/2014  18:48:00      -18.865      102.185      -11.891       21.154       29.224       14.878      447.476      854.062      221.349        0.623        0.076      103.912       13.865        0.018      342.885       18.608      864.118
10/29/2014  18:49:00       -7.223      122.235      -15.445       29.663       31.135       16.458      879.902      969.407      270.852        0.868        0.106      122.448       16.581        0.018      342.901       18.636      864.115
10/29/2014  18:50:00      -10.815      142.100      -21.604       22.310       21.787       15.135      497.727      474.666      229.066        1.099        0.060      142.511        8.246        0.003      342.901       18.636      864.124
10/29/2014  18:51:00       -1.472      128.824      -18.881       20.884       22.179       11.238      436.155      491.892      126.293        0.900        0.053      128.832        4.678        0.001      342.860       18.566      864.131
10/29/2014  18:52:00       -7.938      108.817      -11.723       31.156       35.069       21.031      970.677     1229.845      442.311        0.734        0.132      109.107       18.868        0.030      342.882       18.604      864.133
10/29/2014  18:53:00       -1.455      123.554      -15.697       23.636       22.981       14.230      558.639      528.116      202.480        0.840        0.064      123.563        9.141        0.005      342.871       18.584      864.146
10/29/2014  18:54:00       -4.264      133.175      -17.324       22.150       20.837       12.477      490.603      434.179      155.672        0.957        0.054      133.244       10.512        0.006      342.856       18.559      864.155
10/29/2014  18:55:00      -20.065       99.579      -11.930       24.123       34.867       18.431      581.917     1215.689      339.695        0.630        0.107      101.581       15.604        0.024      342.784       18.436      864.166
10/29/2014  18:56:00       -6.349       86.024       -6.517       21.088       27.542       12.720      444.725      758.568      161.804        0.442        0.068       86.258        9.538        0.012      342.879       18.598      864.183
10/29/2014  18:57:00       10.831       50.606        7.107       24.724       31.467       17.576      611.291      990.196      308.918        0.232        0.096       51.752       19.153        0.137      342.698       18.290      864.183
10/29/2014  18:58:00        8.869       56.190       -3.196       22.960       33.748       13.595      527.172     1138.942      184.815        0.255        0.093       56.885       13.817        0.059      342.718       18.324      864.192
10/29/2014  18:59:00      -10.041       38.671       -9.561       21.323       22.549       11.896      454.652      508.448      141.521        0.140        0.055       39.953        9.591        0.058      342.481       17.922      864.191
10/29/2014  19:00:00       -1.845       62.605      -10.644       24.169       33.774       19.207      584.137     1140.695      368.900        0.306        0.105       62.632       21.982        0.123      342.725       18.334      864.180
10/29/2014  19:01:00       -0.216       34.742        5.593       26.346       27.541       15.158      694.093      758.490      229.780        0.146        0.084       34.743       14.087        0.164      342.502       17.957      864.187
10/29/2014  19:02:00       12.002       45.464       10.609       14.579       25.244       15.563      212.548      637.254      242.196        0.171        0.055       47.021       16.211        0.119      342.627       18.168      864.173
10/29/2014  19:03:00       -6.920       38.766        7.925       25.735       28.520       16.608      662.297      813.400      275.819        0.168        0.088       39.379       13.783        0.123      342.483       17.923      864.176
10/29/2014  19:04:00      -32.338        5.701       -6.480       18.945       16.120        9.585      358.898      259.859       91.876        0.092        0.036       32.837        9.912        0.091      342.161       17.378      864.177
10/29/2014  19:05:00      -53.142      -11.422      -12.853        6.649        8.910        6.237       44.216       79.392       38.906        0.164        0.008       54.356        4.180        0.006      341.881       16.900      864.184
10/29/2014  19:06:00      -85.382      -10.682      -17.908       19.033       12.848        8.119      362.244      165.069       65.926        0.416        0.030       86.047        5.968        0.005      341.867       16.878      864.198
10/29/2014  19:07:00      -68.422      -22.480      -13.976       19.632       23.892       14.441      385.416      570.810      208.531        0.327        0.058       72.020        7.751        0.012      341.763       16.703      864.202
10/29/2014  19:08:00      -89.106       -2.870      -14.683       29.463       19.795       15.807      868.081      391.844      249.862        0.484        0.075       89.152       14.980        0.028      341.693       16.583      864.207
10/29/2014  19:09:00      -56.038       -0.621       -7.436       41.484       25.060       19.978     1720.903      628.027      399.115        0.297        0.137       56.041       11.087        0.039      341.784       16.737      864.232
10/29/2014  19:10:00      -79.890       -0.467      -11.033       47.941       21.708       17.145     2298.346      471.216      293.959        0.478        0.153       79.892       19.660        0.061      341.676       16.553      864.238
10/29/2014  19:11:00      -81.766      -10.894      -13.646       28.975       18.947       10.635      839.547      358.982      113.111        0.415        0.066       82.489       10.726        0.017      341.673       16.549      864.249
10/29/2014  19:12:00      -50.819       -2.146       -9.808       28.362       20.625       14.582      804.402      425.405      212.624        0.206        0.072       50.864       12.055        0.056      341.628       16.472      864.261
10/29/2014  19:13:00      -48.445        8.916       -7.395       26.609       20.058       12.467      708.061      402.337      155.430        0.187        0.063       49.258       10.490        0.045      341.652       16.515      864.259
10/29/2014  19:14:00      -78.704        6.973       -9.444       30.547       22.401       15.866      933.137      501.787      251.718        0.401        0.084       79.013       14.833        0.035      341.648       16.507      864.259
10/29/2014  19:15:00      -98.072        0.410      -10.395       27.972       17.755       15.630      782.460      315.232      244.292        0.553        0.067       98.073       14.508        0.022      341.553       16.344      864.258
10/29/2014  19:16:00     -105.747        2.530      -15.796       23.361       23.775       18.172      545.739      565.228      330.212        0.644        0.072      105.777        8.683        0.007      341.619       16.458      864.261
10/29/2014  19:17:00     -109.626       -0.835      -15.632       29.606       21.633       16.574      876.507      467.973      274.710        0.694        0.081      109.629       13.098        0.014      341.573       16.379      864.254
10/29/2014  19:18:00     -110.562        7.673      -18.085       39.024       22.078       22.385     1522.896      487.432      501.087        0.756        0.126      110.828       21.574        0.038      341.600       16.426      864.264
10/29/2014  19:19:00     -120.789        5.138      -16.576       27.982       16.577       18.041      782.972      274.804      325.469        0.814        0.069      120.898       13.959        0.013      341.637       16.488      864.267
10/29/2014  19:20:00     -113.470        6.185       -9.628       36.036       24.633       17.161     1298.604      606.778      294.487        0.760        0.110      113.639       19.526        0.030      341.577       16.384      864.277
10/29/2014  19:21:00     -125.276        7.916      -18.195       33.106       22.512       21.511     1096.011      506.810      462.723        0.908        0.103      125.525       17.949        0.020      341.546       16.332      864.277
10/29/2014  19:22:00     -109.354       13.322      -21.526       28.285       28.797       18.489      800.028      829.243      341.844        0.728        0.099      110.162        9.646        0.008      341.466       16.197      864.277
10/29/2014  19:23:00     -134.287       23.059      -20.242       45.773       24.125       20.296     2095.159      582.009      411.931        1.103        0.154      136.253       18.544        0.019      341.492       16.241      864.286
10/29/2014  19:24:00      -99.311        0.427      -14.342       37.064       28.265       17.979     1373.751      798.884      323.262        0.628        0.125       99.312       16.913        0.029      341.407       16.098      864.293
10/29/2014  19:25:00     -113.101       -3.623      -13.890       37.685       25.546       21.845     1420.161      652.581      477.208        0.777        0.127      113.159       20.411        0.033      341.471       16.206      864.301
10/29/2014  19:26:00     -146.703       -2.693      -25.743       30.176       33.972       18.821      910.602     1154.119      354.228        1.230        0.121      146.728        8.342        0.003      341.635       16.485      864.305
10/29/2014  19:27:00      -79.117       -1.744      -10.475       45.772       38.036       22.079     2095.039     1446.770      487.464        0.520        0.201       79.136       11.202        0.020      341.652       16.514      864.316
10/29/2014  19:28:00      -75.634       -9.118      -18.178       35.485       33.092       26.155     1259.191     1095.058      684.104        0.459        0.152       76.182       13.988        0.034      341.581       16.393      864.317
10/29/2014  19:29:00      -67.562        8.853      -11.906       42.858       50.956       25.886     1836.810     2596.559      670.063        0.494        0.255       68.139       23.687        0.121      341.750       16.678      864.329
10/29/2014  19:30:00     -102.016        0.169      -24.993       50.821       38.460       27.766     2582.782     1479.206      770.954        0.793        0.242      102.016       23.506        0.053      341.794       16.756      864.336
10/29/2014  19:31:00      -79.490      -11.749       -8.456       49.078       28.988       28.804     2408.654      840.310      829.672        0.530        0.204       80.354       20.173        0.063      341.606       16.436      864.354
10/29/2014  19:32:00     -134.724        2.716      -21.381       68.424       33.658       28.221     4681.889     1132.889      796.429        1.261        0.331      134.752       25.876        0.037      341.749       16.677      864.357
10/29/2014  19:33:00      -69.603      -10.971       -8.732       66.016       33.151       28.201     4358.159     1098.958      795.300        0.565        0.313       70.462       33.949        0.232      341.469       16.202      864.370
10/29/2014  19:34:00      -28.481       12.106        2.921       40.248       29.654       21.535     1619.898      879.333      463.747        0.196        0.148       30.947       18.912        0.373      341.447       16.167      864.373
10/29/2014  19:35:00      -74.823       -0.490      -17.776       49.229       40.803       25.354     2423.529     1664.879      642.803        0.532        0.237       74.824       15.488        0.043      341.618       16.456      864.372
10/29/2014  19:36:00      -71.389       -6.571      -13.031       39.802       40.467       28.790     1584.197     1637.569      828.840        0.468        0.203       71.691       23.842        0.111      341.638       16.490      864.371
10/29/2014  19:37:00        2.495       -8.618        3.416       36.285       32.952       22.024     1316.589     1085.803      485.042        0.149        0.144        8.972       14.572        2.638      341.455       16.177      864.378
10/29/2014  19:38:00      -13.969        2.368       -4.042       39.223       33.240       22.345     1538.461     1104.908      499.287        0.168        0.157       14.168       18.359        1.679      341.399       16.086      864.382
10/29/2014  19:39:00      -33.830      -10.521        4.143       55.380       48.151       35.785     3066.974     2318.520     1280.573        0.397        0.333       35.428       26.758        0.570      341.370       16.036      864.379
10/29/2014  19:40:00      -84.697       -1.364       -6.379       65.208       38.759       32.945     4252.125     1502.254     1085.373        0.703        0.342       84.708       32.448        0.147      341.467       16.200      864.379
10/29/2014  19:41:00      -99.878       10.517      -26.313       67.772       45.569       31.789     4593.091     2076.516     1010.516        0.923        0.384      100.430       21.863        0.047      341.405       16.094      864.385
10/29/2014  19:42:00     -109.256       16.937      -19.386       52.895       47.446       32.995     2797.912     2251.118     1088.682        0.937        0.307      110.561       24.588        0.049      341.334       15.974      864.383
10/29/2014  19:43:00      -83.682       -7.175       -8.198       58.987       55.710       35.099     3479.456     3103.567     1231.906        0.747        0.391       83.989       31.619        0.142      341.336       15.978      864.385
10/29/2014  19:44:00      -95.577        0.600      -12.063       41.223       43.417       30.322     1699.357     1885.007      919.395        0.689        0.225       95.579       21.821        0.052      341.272       15.870      864.389
10/29/2014  19:45:00     -122.747       -6.020      -17.209       54.638       49.357       34.026     2985.274     2436.110     1157.738        1.099        0.329      122.895       29.357        0.057      341.214       15.772      864.398
10/29/2014  19:46:00     -141.715      -24.694      -15.523       38.796       52.004       22.030     1505.106     2704.445      485.343        1.281        0.235      143.850       15.708        0.012      341.060       15.510      864.405
10/29/2014  19:47:00     -147.142       -9.241      -13.797       38.282       40.499       23.795     1465.534     1640.132      566.211        1.280        0.184      147.432       12.273        0.007      340.994       15.401      864.408
10/29/2014  19:48:00     -125.580      -26.171      -19.260       37.743       25.459       21.232     1424.548      648.181      450.786        0.967        0.126      128.278        7.126        0.003      341.079       15.542      864.408
10/29/2014  19:49:00      -72.518       -1.591       -6.773       50.285       37.490       29.127     2528.601     1405.488      848.398        0.504        0.239       72.535       29.408        0.164      341.186       15.724      864.402
10/29/2014  19:50:00      -67.219       -7.785       -4.082       53.740       37.554       27.742     2887.966     1410.277      769.621        0.483        0.253       67.668       24.536        0.131      341.118       15.608      864.391
10/29/2014  19:51:00      -78.269      -15.416       -9.095       55.944       35.100       24.544     3129.731     1232.042      602.400        0.570        0.248       79.772       22.262        0.078      341.044       15.484      864.388
10/29/2014  19:52:00      -88.932        0.981      -14.157       53.813       39.595       24.607     2895.858     1567.782      605.516        0.659        0.253       88.937       20.444        0.053      341.176       15.706      864.388
10/29/2014  19:53:00     -109.267      -11.899      -10.818       48.286       32.381       21.786     2331.523     1048.519      474.609        0.803        0.193      109.913       22.938        0.044      341.061       15.512      864.388
10/29/2014  19:54:00      -92.244      -37.034      -17.372       28.112       31.569       18.878      790.277      996.603      356.367        0.616        0.107       99.400        8.918        0.008      340.917       15.269      864.382
10/29/2014  19:55:00     -112.387      -47.247      -22.361       42.016       29.055       21.000     1765.319      844.166      441.007        0.921        0.153      121.915       16.040        0.017      340.755       14.993      864.383
10/29/2014  19:56:00     -109.667      -54.309      -17.731       56.468       45.174       21.194     3188.675     2040.652      449.169        1.048        0.284      122.377       19.434        0.025      340.816       15.098      864.378
10/29/2014  19:57:00     -121.812      -13.328      -30.425       21.267       30.291       18.977      452.295      917.544      360.122        0.884        0.086      122.539        6.201        0.003      340.779       15.035      864.382
10/29/2014  19:58:00     -124.473      -10.862      -21.205       15.523       25.205       16.285      240.973      635.270      265.217        0.860        0.057      124.946        7.025        0.003      340.819       15.102      864.390
10/29/2014  19:59:00     -115.879      -18.623      -14.949       17.390       19.133       15.054      302.408      366.079      226.624        0.745        0.045      117.366       10.335        0.008      340.806       15.081      864.387
10/29/2014  20:00:00     -127.210      -17.525      -22.361       14.307       16.450       12.386      204.676      270.612      153.420        0.881        0.031      128.411       11.163        0.008      340.752       14.992      864.395
10/29/2014  20:01:00     -111.852      -53.045      -21.522       21.582       25.851       14.116      465.798      668.265      199.257        0.856        0.067      123.793       13.407        0.012      340.740       14.970      864.388
10/29/2014  20:02:00     -140.456      -29.306      -27.756       23.047       22.449       16.845      531.177      503.942      283.766        1.134        0.066      143.481       14.944        0.011      340.693       14.890      864.395
10/29/2014  20:03:00     -119.866      -35.533      -17.764       28.511       26.726       20.296      812.849      714.303      411.922        0.894        0.097      125.022       13.770        0.012      340.841       15.140      864.400
10/29/2014  20:04:00      -97.691      -33.060      -23.924       15.743       16.229       10.634      247.835      263.387      113.077        0.592        0.031      103.133       10.083        0.010      340.712       14.922      864.414
10/29/2014  20:05:00     -129.568       -7.794      -29.392       20.223       27.806       20.623      408.951      773.161      425.327        0.966        0.080      129.802       18.637        0.021      340.791       15.056      864.412
10/29/2014  20:06:00     -110.840      -25.765      -28.008       25.594       26.820       21.242      655.055      719.297      451.227        0.778        0.091      113.796       11.034        0.009      340.878       15.203      864.398
10/29/2014  20:07:00      -92.662      -39.017      -25.731       22.550       24.619       22.229      508.486      606.077      494.149        0.619        0.080      100.541       16.401        0.027      340.672       14.853      864.406
10/29/2014  20:08:00      -80.456      -29.405       -4.875       36.379       33.480       20.701     1323.409     1120.884      428.539        0.512        0.144       85.661       15.776        0.034      340.734       14.960      864.396
10/29/2014  20:09:00      -81.177      -54.537      -19.191       26.300       23.564       15.730      691.671      555.242      247.422        0.571        0.075       97.796        9.783        0.010      340.681       14.870      864.393
10/29/2014  20:10:00      -65.687      -41.273      -14.659       47.311       29.130       21.688     2238.360      848.560      470.377        0.489        0.178       77.577       16.257        0.044      340.550       14.649      864.389
10/29/2014  20:11:00     -137.116      -46.540      -15.546       32.292       31.069       19.363     1042.745      965.301      374.924        1.180        0.119      144.799       11.877        0.007      340.473       14.518      864.377
10/29/2014  20:12:00     -122.566      -74.977       -8.002       41.401       26.021       20.262     1714.003      677.079      410.559        1.175        0.140      143.680       12.999        0.008      340.442       14.465      864.388
10/29/2014  20:13:00     -153.602      -46.890       -6.324       31.531       31.674       21.138      994.217     1003.243      446.795        1.414        0.122      160.600       15.653        0.009      340.518       14.594      864.391
10/29/2014  20:14:00     -135.950      -39.263      -10.216       25.990       26.978       17.386      675.456      727.814      302.264        1.092        0.085      141.506       10.879        0.006      340.553       14.654      864.392
10/29/2014  20:15:00     -142.772      -52.907      -11.866       16.908       18.957       13.641      285.892      359.375      186.085        1.208        0.042      152.260        5.602        0.001      340.529       14.614      864.405
10/29/2014  20:16:00     -116.017      -42.085       -3.395       39.793       25.023       19.644     1583.482      626.126      385.888        0.892        0.130      123.415       19.996        0.026      340.471       14.516      864.403
10/29/2014  20:17:00      -81.567      -54.862       -2.954       31.722       31.556       23.320     1006.269      995.781      543.829        0.611        0.127       98.300       16.587        0.028      340.431       14.446      864.419
10/29/2014  20:18:00     -132.282      -65.167       -7.308       26.516       20.816       18.199      703.083      433.301      331.207        1.163        0.073      147.463       12.506        0.007      340.456       14.489      864.425
10/29/2014  20:19:00     -124.933      -41.898       -9.194       18.670       22.890       13.325      348.553      523.975      177.553        0.925        0.053      131.772        7.024        0.003      340.408       14.408      864.439
10/29/2014  20:20:00     -108.084      -46.585      -11.247       21.347       18.865       17.367      455.706      355.889      301.620        0.755        0.056      117.695       15.673        0.018      340.400       14.394      864.439
10/29/2014  20:21:00      -95.310      -54.986       -6.791       34.174       28.228       18.989     1167.887      796.826      360.578        0.724        0.116      110.034        6.565        0.004      340.390       14.377      864.436
10/29/2014  20:22:00      -93.614      -75.461       -2.787       32.360       34.521       20.118     1047.146     1191.668      404.753        0.855        0.132      120.241       12.276        0.010      340.344       14.300      864.441
10/29/2014  20:23:00     -145.388      -40.272       -9.599       22.693       26.428       18.417      514.967      698.460      339.191        1.220        0.078      150.862        8.725        0.003      340.296       14.219      864.435
10/29/2014  20:24:00     -140.412      -50.500       -1.394       19.591       21.814       13.255      383.818      475.865      175.692        1.165        0.052      149.217        8.896        0.004      340.303       14.231      864.430
10/29/2014  20:25:00     -137.098      -58.037       -0.926       28.321       21.789       16.963      802.065      474.743      287.748        1.186        0.078      148.876       15.710        0.011      340.309       14.240      864.434
10/29/2014  20:26:00     -103.155      -61.480       -5.439       36.767       20.408       18.436     1351.798      416.498      339.899        0.828        0.105      120.086       17.536        0.021      340.286       14.201      864.440
10/29/2014  20:27:00     -126.887      -57.117       -8.271       25.597       21.916       17.073      655.208      480.304      291.476        1.043        0.071      139.150       14.819        0.011      340.261       14.159      864.449
10/29/2014  20:28:00      -93.810      -60.658       -6.488       35.031       31.311       22.294     1227.158      980.405      497.038        0.761        0.135      111.713       19.610        0.031      340.264       14.164      864.468
10/29/2014  20:29:00     -104.720      -50.543       -4.846       33.808       14.477       14.955     1142.991      209.578      223.659        0.756        0.079      116.279       17.534        0.023      340.207       14.069      864.476
10/29/2014  20:30:00     -110.110      -58.485      -14.061       15.963       11.639       10.967      254.830      135.463      120.281        0.813        0.026      124.679        7.315        0.003      340.231       14.108      864.491
10/29/2014  20:31:00     -132.671      -62.146       -9.990       22.908       16.759       12.606      524.765      280.856      158.920        1.126        0.048      146.505       10.387        0.005      340.221       14.091      864.502
10/29/2014  20:32:00     -143.150      -51.097      -17.328       12.118       15.427       11.351      146.841      237.980      128.842        1.196        0.026      151.996        7.864        0.003      340.175       14.014      864.499
10/29/2014  20:33:00     -134.676      -65.298      -20.423       15.329       17.842       12.515      234.978      318.322      156.613        1.176        0.035      149.671        6.707        0.002      340.150       13.973      864.512
10/29/2014  20:34:00     -133.824      -56.709      -19.841       18.739       23.538       15.501      351.135      554.055      240.275        1.133        0.057      145.344       11.019        0.006      340.071       13.839      864.518
10/29/2014  20:35:00     -151.101      -62.865      -14.814       19.725       22.439       12.296      389.071      503.526      151.184        1.402        0.052      163.656        8.982        0.003      340.052       13.808      864.517
10/29/2014  20:36:00     -140.221      -54.805       -7.243       31.605       21.597       17.470      998.864      466.451      305.183        1.224        0.089      150.550       17.009        0.013      340.057       13.816      864.528
10/29/2014  20:37:00     -146.594      -38.821      -11.884       18.606       28.015       14.150      346.192      784.829      200.212        1.223        0.067      151.647       10.579        0.005      340.065       13.828      864.531
10/29/2014  20:38:00     -136.765      -62.770       -8.512       19.009       18.633       13.558      361.338      347.182      183.816        1.180        0.045      150.481        9.725        0.004      340.096       13.880      864.526
10/29/2014  20:39:00     -148.482      -50.610      -12.011       16.991       21.692       14.952      288.706      470.537      223.549        1.287        0.049      156.870       11.133        0.005      340.048       13.801      864.534
10/29/2014  20:40:00     -143.235      -49.490      -13.622       16.337       17.630       12.493      266.887      310.829      156.086        1.194        0.037      151.544        6.909        0.002      340.006       13.729      864.539
10/29/2014  20:41:00     -133.944      -49.397      -11.942       10.232        9.167       11.735      104.699       84.043      137.705        1.043        0.016      142.763        6.053        0.002      339.934       13.607      864.541
10/29/2014  20:42:00     -127.986      -54.699      -19.272       11.087       15.403       10.436      122.928      237.257      108.901        1.011        0.023      139.185        7.224        0.003      339.931       13.603      864.550
10/29/2014  20:43:00     -119.425      -62.043      -19.114       23.442       24.680       17.257      549.538      609.124      297.793        0.997        0.073      134.579       15.528        0.013      339.945       13.626      864.548
10/29/2014  20:44:00      -70.470      -60.581       -4.061       37.526       36.538       26.970     1408.206     1335.035      727.393        0.606        0.174       92.930       22.183        0.057      339.911       13.570      864.551
10/29/2014  20:45:00      -45.024      -48.122       -4.365       40.905       33.619       21.849     1673.209     1130.236      477.364        0.382        0.164       65.901       23.852        0.131      339.896       13.543      864.543
10/29/2014  20:46:00     -106.353      -45.274      -11.762       37.853       26.008       18.015     1432.836      676.393      324.535        0.797        0.122      115.588       10.858        0.009      339.927       13.595      864.533
10/29/2014  20:47:00     -110.504      -56.770       -5.910       29.265       26.635       18.134      856.414      709.414      328.825        0.868        0.095      124.234       12.038        0.009      339.961       13.653      864.536
10/29/2014  20:48:00      -71.304      -18.304        1.655       41.078       37.923       17.206     1687.385     1438.173      296.062        0.442        0.171       73.616        7.843        0.011      339.994       13.709      864.531
10/29/2014  20:49:00      -68.290      -14.053       -3.348       40.991       25.154       21.533     1680.233      632.716      463.654        0.382        0.139       69.721       19.005        0.074      339.968       13.665      864.528
10/29/2014  20:50:00      -62.312      -47.461       -6.676       31.983       26.301       20.230     1022.937      691.734      409.264        0.415        0.106       78.329       10.468        0.018      339.949       13.633      864.537
10/29/2014  20:51:00      -54.507      -30.835        8.673       31.101       29.684       20.561      967.264      881.152      422.747        0.313        0.114       62.624       14.147        0.051      339.859       13.482      864.539
10/29/2014  20:52:00      -59.270      -39.093        6.611       27.985       31.381       19.500      783.141      984.749      380.258        0.362        0.107       71.001       12.879        0.033      339.862       13.486      864.545
10/29/2014  20:53:00      -77.786      -24.332      -10.787       36.710       22.547       20.993     1347.622      508.349      440.717        0.453        0.115       81.503       15.970        0.038      339.890       13.533      864.561
10/29/2014  20:54:00      -77.429      -27.796       -6.965       43.627       25.427       19.337     1903.344      646.518      373.926        0.487        0.146       82.267       16.032        0.038      339.866       13.493      864.562
10/29/2014  20:55:00      -44.791      -23.447       -0.278       39.338       28.145       20.228     1547.492      792.142      409.186        0.265        0.137       50.557       18.442        0.133      339.808       13.397      864.568
10/29/2014  20:56:00      -53.891      -36.529       -4.553       41.844       40.063       28.169     1750.903     1605.034      793.465        0.420        0.207       65.104       24.471        0.141      339.828       13.429      864.574
10/29/2014  20:57:00     -111.598      -34.719      -15.022       35.905       23.926       20.022     1289.183      572.472      400.890        0.807        0.113      116.874       15.780        0.018      339.877       13.511      864.561
10/29/2014  20:58:00     -122.182      -46.337      -10.143       55.530       38.444       23.991     3083.590     1477.971      575.575        1.116        0.257      130.673       25.989        0.040      339.848       13.462      864.565
10/29/2014  20:59:00     -109.681      -19.509      -13.242       57.222       30.002       21.156     3274.388      900.097      447.592        0.860        0.231      111.402       20.194        0.033      339.844       13.457      864.558
10/29/2014  21:00:00     -138.764      -16.297      -10.192       60.036       41.259       29.800     3604.288     1702.346      888.066        1.291        0.310      139.718       27.362        0.038      339.766       13.326      864.557
10/29/2014  21:01:00      -62.073        4.567       13.421       45.252       46.104       31.153     2047.727     2125.601      970.503        0.460        0.257       62.241       26.738        0.185      339.701       13.216      864.554
10/29/2014  21:02:00     -106.188       -5.217       -5.871       45.681       36.934       26.194     2086.796     1364.145      686.132        0.774        0.207      106.316       27.667        0.068      339.812       13.402      864.550
10/29/2014  21:03:00      -92.714      -33.241       -6.556       54.472       48.921       26.884     2967.230     2393.254      722.744        0.791        0.304       98.493       28.303        0.083      339.793       13.370      864.542
10/29/2014  21:04:00      -98.796      -63.828       -3.393       34.817       36.458       27.097     1212.228     1329.164      734.255        0.856        0.164      117.621       17.698        0.023      339.797       13.375      864.551
10/29/2014  21:05:00      -97.183      -61.100       -3.675       44.896       35.723       26.778     2015.631     1276.098      717.074        0.860        0.200      114.794       24.679        0.046      339.774       13.337      864.560
10/29/2014  21:06:00      -93.289      -21.214       -3.449       43.808       53.729       22.361     1919.172     2886.786      500.017        0.723        0.265       95.671       19.432        0.041      339.766       13.325      864.571
10/29/2014  21:07:00     -146.999      -42.075       -9.283       42.723       39.914       19.573     1825.262     1593.162      383.093        1.363        0.190      152.902       17.170        0.013      339.737       13.277      864.586
10/29/2014  21:08:00      -99.278       -9.315       -1.769       40.496       42.716       23.730     1639.964     1824.675      563.100        0.699        0.201       99.714       22.247        0.050      339.743       13.286      864.594
10/29/2014  21:09:00      -88.965      -10.763       -2.245       49.566       42.554       26.843     2456.779     1810.876      720.527        0.651        0.249       89.614       22.686        0.064      339.691       13.198      864.605
10/29/2014  21:10:00     -122.887      -26.744      -12.906       39.037       45.238       21.313     1523.873     2046.460      454.227        1.000        0.201      125.764       16.033        0.016      339.666       13.156      864.621
10/29/2014  21:11:00     -103.111       -1.936       -0.981       57.804       48.566       25.667     3341.337     2358.701      658.807        0.850        0.318      103.129       28.635        0.077      339.695       13.204      864.624
10/29/2014  21:12:00      -88.716      -15.781       -7.833       41.158       33.468       26.902     1693.988     1120.090      723.741        0.586        0.177       90.109       22.397        0.062      339.687       13.191      864.650
10/29/2014  21:13:00      -78.479      -13.230        0.545       41.874       50.530       26.799     1753.454     2553.330      718.161        0.568        0.251       79.587       24.078        0.092      339.709       13.228      864.646
10/29/2014  21:14:00     -104.210      -15.808       -4.380       35.858       46.888       24.437     1285.812     2198.511      597.150        0.760        0.204      105.402       15.690        0.022      339.753       13.303      864.664
10/29/2014  21:15:00      -81.375       -2.386       -2.829       43.318       42.390       25.762     1876.428     1796.898      663.686        0.549        0.217       81.410       26.836        0.109      339.691       13.199      864.676
10/29/2014  21:16:00      -87.004      -23.187       -1.499       59.701       47.595       28.461     3564.204     2265.302      810.035        0.737        0.332       90.041       28.327        0.099      339.701       13.216      864.684
10/29/2014  21:17:00     -116.060      -16.123       -8.606       43.709       49.703       29.653     1910.490     2470.350      879.285        0.953        0.263      117.175       22.414        0.037      339.731       13.267      864.698
10/29/2014  21:18:00      -91.393        7.147       -9.580       37.345       29.869       23.950     1394.637      892.147      573.592        0.568        0.143       91.672       20.654        0.051      339.649       13.127      864.697
10/29/2014  21:19:00      -88.171       -6.432       -2.189       51.703       35.538       21.356     2673.209     1262.939      456.086        0.611        0.220       88.405       23.360        0.070      339.621       13.080      864.700
10/29/2014  21:20:00     -103.067       -8.357       -7.762       33.791       51.692       28.061     1141.861     2672.038      787.413        0.768        0.230      103.405       20.535        0.039      339.646       13.123      864.691
10/29/2014  21:21:00      -86.660      -27.454      -10.506       39.186       38.148       26.208     1535.507     1455.256      686.838        0.603        0.184       90.905       13.034        0.021      339.633       13.100      864.695
10/29/2014  21:22:00      -76.842      -15.215      -11.495       38.272       27.173       22.361     1464.723      738.346      499.992        0.449        0.135       78.333        7.246        0.009      339.644       13.120      864.689
10/29/2014  21:23:00      -31.483      -22.602       -4.344       38.614       17.918       20.238     1491.021      321.061      409.584        0.187        0.111       38.756       17.334        0.200      339.610       13.062      864.691
10/29/2014  21:24:00      -35.829      -30.591       -9.021       24.297       23.861       17.330      590.366      569.326      300.320        0.188        0.073       47.112       10.979        0.054      339.644       13.117      864.699
10/29/2014  21:25:00      -81.749      -27.438      -27.097       39.989       21.348       14.625     1599.133      455.721      213.893        0.522        0.113       86.231       11.952        0.019      339.772       13.335      864.704
10/29/2014  21:26:00     -109.019      -27.224      -23.715       19.420       20.187       13.910      377.137      407.507      193.495        0.708        0.049      112.367       10.443        0.009      339.793       13.371      864.706
10/29/2014  21:27:00     -109.112      -30.700      -24.244       19.568       23.218       15.338      382.891      539.078      235.245        0.730        0.058      113.348        8.842        0.006      339.745       13.290      864.709
10/29/2014  21:28:00      -93.461      -28.005      -18.978       19.096       21.382       13.706      364.662      457.211      187.842        0.544        0.050       97.567        7.701        0.006      339.736       13.276      864.721
10/29/2014  21:29:00      -91.613      -36.232      -14.564       17.528       19.143       17.085      307.241      366.438      291.903        0.544        0.048       98.518       10.283        0.011      339.685       13.189      864.718
10/29/2014  21:30:00      -82.848      -31.020       -5.331       19.669       14.926       12.217      386.881      222.800      149.262        0.431        0.038       88.465       10.325        0.014      339.724       13.252      864.734
10/29/2014  21:31:00     -101.770      -50.298       -6.325       21.386       14.137       13.038      457.353      199.858      169.989        0.688        0.041      113.521        7.530        0.004      339.766       13.326      864.737
10/29/2014  21:32:00     -101.518      -45.118       -2.331       35.563       19.040       14.769     1264.731      362.537      218.114        0.710        0.092      111.093       15.942        0.021      339.768       13.328      864.739
10/29/2014  21:33:00      -83.814      -78.699       -1.316       47.286       59.094       28.391     2235.968     3492.099      806.025        0.988        0.327      114.971       31.514        0.075      339.710       13.231      864.756
10/29/2014  21:34:00     -131.744     -116.233      -16.962       29.893       31.717       21.482      893.596     1005.977      461.493        1.676        0.118      175.688       14.958        0.007      339.730       13.264      864.762
10/29/2014  21:35:00     -113.904      -88.197       -3.246       37.192       42.969       28.405     1383.242     1846.358      806.820        1.240        0.202      144.059       24.747        0.030      339.588       13.023      864.761
10/29/2014  21:36:00     -132.157      -78.747       -2.186       52.624       41.286       25.834     2769.241     1704.497      667.395        1.441        0.257      153.840       29.347        0.036      339.562       12.979      864.769
10/29/2014  21:37:00     -118.028      -80.742        4.832       47.096       47.848       26.615     2218.027     2289.478      708.344        1.284        0.261      143.003       24.365        0.029      339.500       12.874      864.765
10/29/2014  21:38:00     -146.731      -74.580       -0.592       45.076       40.246       28.106     2031.842     1619.714      789.926        1.577        0.222      164.597       18.803        0.013      339.554       12.966      864.772
10/29/2014  21:39:00     -143.427      -58.551      -10.218       29.743       26.246       22.157      884.622      688.869      490.923        1.308        0.103      154.918       17.843        0.013      339.603       13.051      864.773
10/29/2014  21:40:00      -85.526      -61.133       -4.766       39.434       35.235       21.525     1555.068     1241.502      463.335        0.717        0.163      105.128       19.456        0.034      339.551       12.962      864.782
10/29/2014  21:41:00      -68.175      -60.765        3.050       49.543       40.254       28.017     2454.503     1620.389      784.966        0.660        0.243       91.325       27.638        0.092      339.535       12.935      864.790
10/29/2014  21:42:00      -99.388      -76.097       -6.107       52.702       44.412       27.896     2777.533     1972.464      778.208        1.062        0.276      125.175       28.158        0.051      339.528       12.924      864.799
10/29/2014  21:43:00      -88.686      -52.469        5.442       48.945       44.566       23.700     2395.599     1986.146      561.680        0.779        0.247      103.044       23.472        0.052      339.508       12.890      864.812
10/29/2014  21:44:00     -123.449      -82.037       -1.745       39.708       32.281       24.540     1576.695     1042.031      602.226        1.260        0.161      148.222       22.821        0.024      339.577       13.005      864.816
10/29/2014  21:45:00     -140.553      -39.410      -10.936       16.549       19.468       16.571      273.859      378.991      274.590        1.118        0.046      145.974        7.932        0.003      339.581       13.012      864.825
10/29/2014  21:46:00     -130.627      -55.598       -9.310       26.331       29.029       15.301      693.319      842.711      234.123        1.101        0.089      141.967        6.753        0.002      339.555       12.968      864.825
10/29/2014  21:47:00     -127.395      -36.044       -6.437       38.161       27.774       16.978     1456.230      771.406      288.260        1.004        0.126      132.396       17.573        0.018      339.440       12.773      864.815
10/29/2014  21:48:00     -115.415       -2.038       -4.222       35.523       25.225       19.258     1261.912      636.321      370.866        0.781        0.113      115.433       18.563        0.026      339.333       12.594      864.819
10/29/2014  21:49:00     -116.584      -11.768       -2.446       42.687       30.651       20.921     1822.139      939.506      437.679        0.847        0.160      117.176       22.345        0.036      339.310       12.555      864.811
10/29/2014  21:50:00     -109.751      -20.755       -4.323       23.806       19.477       20.354      566.710      379.343      414.295        0.693        0.068      111.697       17.082        0.023      339.315       12.563      864.813
10/29/2014  21:51:00     -112.143      -46.167        0.223       26.483       24.275       17.741      701.340      589.257      314.737        0.816        0.080      121.275       16.749        0.019      339.322       12.576      864.833
10/29/2014  21:52:00      -76.878      -47.489       -4.731       26.141       29.196       14.501      683.346      852.392      210.286        0.497        0.087       90.363       13.935        0.024      339.307       12.550      864.842
10/29/2014  21:53:00      -67.488      -37.520       -3.526       31.365       16.123       12.309      983.737      259.964      151.521        0.368        0.070       77.216       11.561        0.022      339.323       12.576      864.864
10/29/2014  21:54:00      -71.558      -32.729       -4.938       26.986       14.439       11.764      728.254      208.495      138.399        0.365        0.054       78.687       12.706        0.026      339.355       12.633      864.875
10/29/2014  21:55:00      -71.744      -10.729       -7.894       17.658       15.743       10.471      311.802      247.828      109.647        0.300        0.033       72.542        8.091        0.012      339.431       12.759      864.868
10/29/2014  21:56:00      -93.845       -7.499      -10.792       11.565       15.784        9.920      133.759      249.133       98.409        0.473        0.024       94.144        7.665        0.007      339.458       12.804      864.865
10/29/2014  21:57:00     -118.801        0.192      -18.042       24.024       16.589       13.573      577.134      275.183      184.223        0.774        0.052      118.801        9.799        0.007      339.333       12.594      864.855
10/29/2014  21:58:00     -135.314       -4.819      -13.095       35.368       19.647       17.220     1250.883      386.000      296.538        1.022        0.097      135.400       17.062        0.016      339.192       12.356      864.850
10/29/2014  21:59:00     -105.506       -5.428       -7.957       43.175       25.783       23.468     1864.076      664.747      550.757        0.715        0.154      105.646       23.877        0.051      339.177       12.330      864.867
10/29/2014  22:00:00      -89.965      -16.154       -1.412       30.600       26.101       18.154      936.378      681.287      329.564        0.515        0.097       91.403       19.900        0.047      339.130       12.252      864.869
10/29/2014  22:01:00     -138.366       -3.059      -10.862       26.626       21.000       16.274      708.926      440.990      264.839        1.034        0.071      138.400       14.640        0.011      339.229       12.419      864.861
10/29/2014  22:02:00     -100.611        5.383      -13.356       40.163       43.780       22.528     1613.070     1916.679      507.532        0.718        0.202      100.755       21.759        0.047      339.214       12.394      864.859
10/29/2014  22:03:00      -83.402       21.916      -11.133       40.005       30.449       26.804     1600.439      927.165      718.434        0.540        0.162       86.233       22.001        0.065      339.339       12.605      864.844
10/29/2014  22:04:00      -52.493        2.345       -3.129       38.435       37.520       25.022     1477.247     1407.728      626.121        0.314        0.176       52.545       15.872        0.091      339.299       12.537      864.846
10/29/2014  22:05:00      -29.741      -20.177       -4.460       33.590       27.259       18.536     1128.289      743.049      343.600        0.176        0.111       35.939        9.791        0.074      339.207       12.382      864.871
10/29/2014  22:06:00        9.502      -29.767       10.836       28.816       24.809       20.784      830.336      615.503      431.992        0.149        0.094       31.247       18.456        0.349      339.153       12.292      864.877
10/29/2014  22:07:00      -71.213      -33.876      -15.410       27.805       23.029       22.101      773.137      530.316      488.449        0.412        0.090       78.860        4.912        0.004      339.090       12.186      864.875
10/29/2014  22:08:00     -133.447      -35.369      -15.398       20.439       23.002       13.370      417.745      529.097      178.768        1.021        0.056      138.055        5.027        0.001      338.992       12.022      864.879
10/29/2014  22:09:00     -140.864      -32.388      -17.471       14.743       14.743       12.504      217.364      217.346      156.360        1.089        0.030      144.539        4.026        0.001      338.942       11.937      864.864
10/29/2014  22:10:00      -82.615      -37.044       -3.100       29.322       22.239       16.828      859.781      494.572      283.169        0.492        0.082       90.540       13.698        0.023      338.976       11.994      864.855
10/29/2014  22:11:00      -62.264      -16.737       -4.002       33.840       23.048       17.891     1145.153      531.193      320.100        0.308        0.100       64.474       16.906        0.069      338.879       11.831      864.867
10/29/2014  22:12:00      -92.685      -32.591      -11.721       23.115       18.649       13.379      534.288      347.801      179.002        0.543        0.053       98.248       10.056        0.010      338.916       11.891      864.879
10/29/2014  22:13:00     -108.344      -40.500      -11.721       21.826       27.262       14.995      476.396      743.207      224.850        0.748        0.072      115.666       10.869        0.009      339.012       12.053      864.890
10/29/2014  22:14:00     -131.718      -51.126       -9.757       19.626       17.391       13.031      385.167      302.452      169.812        1.046        0.043      141.293        8.948        0.004      338.965       11.975      864.908
10/29/2014  22:15:00     -138.623      -23.944      -10.711       19.809       18.474       10.646      392.385      341.292      113.342        1.038        0.042      140.675        5.579        0.002      338.893       11.854      864.908
10/29/2014  22:16:00      -89.568      -42.111       -7.677       25.703       27.820       16.376      660.634      773.967      268.184        0.578        0.085       98.974       13.053        0.017      338.887       11.841      864.907
10/29/2014  22:17:00      -78.234      -23.675       -6.712       15.685       18.143       12.967      246.031      329.173      168.140        0.373        0.037       81.738        9.545        0.014      338.844       11.771      864.917
10/29/2014  22:18:00      -84.760      -50.016       -1.661       16.966       17.906       12.775      287.834      320.629      163.203        0.523        0.039       98.417        9.447        0.009      338.904       11.872      864.917
10/29/2014  22:19:00     -126.190      -60.205      -13.066       18.375       22.408       14.920      337.648      502.130      222.602        1.039        0.053      139.816       12.359        0.008      338.811       11.717      864.929
10/29/2014  22:20:00     -137.711      -74.585       -4.143       31.391       24.670       21.416      985.387      608.629      458.663        1.330        0.103      156.612       16.325        0.011      338.777       11.658      864.942
10/29/2014  22:21:00     -122.188      -69.217      -13.372       30.739       24.252       17.783      944.865      588.166      316.235        1.087        0.092      140.431       11.653        0.007      338.750       11.614      864.939
10/29/2014  22:22:00      -97.963      -55.892       -7.091       24.613       17.743       14.629      605.817      314.810      214.014        0.695        0.057      112.786        3.181        0.001      338.759       11.627      864.951
10/29/2014  22:23:00      -80.734      -45.940       -3.656       34.947       16.719       19.838     1221.299      279.539      393.535        0.527        0.095       92.890       21.442        0.053      338.753       11.618      864.959
10/29/2014  22:24:00      -80.441      -41.446      -13.496       14.184       15.192        9.418      201.200      230.795       88.697        0.445        0.026       90.491        6.174        0.005      338.779       11.662      864.965
10/29/2014  22:25:00      -88.114      -45.321       -6.097       25.464       14.132       13.550      648.431      199.720      183.602        0.544        0.052       99.086       13.142        0.018      338.804       11.704      864.959
10/29/2014  22:26:00     -109.800      -56.249       -5.354       27.325       25.753       21.210      746.675      663.194      449.872        0.855        0.093      123.369       19.249        0.024      338.812       11.717      864.961
10/29/2014  22:27:00     -126.560      -58.919      -13.046       10.149       12.528       10.379      103.001      156.943      107.728        1.001        0.018      139.602        4.350        0.001      338.840       11.764      864.956
10/29/2014  22:28:00     -118.380      -31.703      -15.579       20.194       13.781       11.998      407.795      189.908      143.952        0.800        0.037      122.551       11.799        0.009      338.869       11.815      864.951
10/29/2014  22:29:00      -95.526      -32.499       -6.503       26.015       15.567       13.844      676.796      242.316      191.666        0.567        0.056      100.903       14.135        0.020      338.869       11.814      864.959
10/29/2014  22:30:00     -109.790      -34.240       -6.084       21.396       16.653       11.847      457.803      277.330      140.362        0.707        0.044      115.005       10.148        0.008      338.904       11.872      864.958
10/29/2014  22:31:00     -103.256      -42.325       -7.041       27.226       20.222       12.198      741.259      408.913      148.801        0.690        0.065      111.594       15.823        0.020      338.781       11.666      864.956
10/29/2014  22:32:00     -123.083      -30.181      -16.407       16.320       22.281       13.887      266.351      496.447      192.851        0.864        0.048      126.729       11.443        0.008      338.752       11.617      864.967
10/29/2014  22:33:00     -132.599      -56.717      -13.596       17.968       20.948       15.019      322.846      438.801      225.570        1.099        0.049      144.220       11.005        0.006      338.708       11.542      864.965
10/29/2014  22:34:00     -112.897      -71.717      -10.063       29.391       22.512       16.613      863.808      506.773      276.007        0.982        0.082      133.750        7.038        0.003      338.693       11.518      864.968
10/29/2014  22:35:00     -128.969      -74.638       -5.940       32.088       20.660       16.942     1029.659      426.841      287.046        1.199        0.087      149.009       15.355        0.011      338.744       11.602      864.978
10/29/2014  22:36:00      -90.712      -50.796       -4.689       28.629       22.404       15.357      819.613      501.959      235.842        0.619        0.078      103.966       13.817        0.018      338.708       11.543      864.984
10/29/2014  22:37:00      -89.509      -56.850        0.564       27.033       21.414       16.599      730.802      458.564      275.526        0.635        0.073      106.037       15.383        0.021      338.733       11.584      864.988
10/29/2014  22:38:00      -88.770      -49.535       -5.519       20.695       13.897       14.833      428.284      193.136      220.018        0.560        0.042      101.656       13.236        0.017      338.729       11.579      865.003
10/29/2014  22:39:00      -87.129      -45.447       -3.916       29.654       23.813       19.459      879.362      567.057      378.650        0.575        0.091       98.269       18.954        0.037      338.671       11.481      865.014
10/29/2014  22:40:00     -131.603      -43.286       -5.154       27.542       19.604       13.901      758.557      384.319      193.237        1.028        0.067      138.538       11.059        0.006      338.678       11.492      865.019
10/29/2014  22:41:00     -125.911      -47.565       -4.845       18.806       20.865       12.707      353.647      435.349      161.471        0.954        0.048      134.596        7.268        0.003      338.691       11.514      865.017
10/29/2014  22:42:00     -110.998      -41.177       -5.525       24.453       21.582       16.456      597.959      465.763      270.789        0.769        0.067      118.389       14.490        0.015      338.643       11.433      865.025
10/29/2014  22:43:00     -129.910      -31.739       -2.383       30.839       22.864       19.076      951.047      522.744      363.875        0.986        0.092      133.731       18.886        0.020      338.567       11.305      865.023
10/29/2014  22:44:00     -107.148      -33.109       -8.111       31.848       26.306       18.860     1014.301      692.001      355.705        0.735        0.103      112.146       16.415        0.021      338.572       11.315      865.016
10/29/2014  22:45:00     -113.940      -21.369      -14.781       25.961       17.691       13.695      673.988      312.984      187.547        0.742        0.059      115.926       12.719        0.012      338.601       11.364      865.021
10/29/2014  22:46:00     -115.557      -22.450      -15.962       22.591       17.475       18.071      510.335      305.379      326.568        0.763        0.057      117.718       14.545        0.015      338.648       11.442      865.031
10/29/2014  22:47:00     -113.174       -9.838      -15.510       24.736       12.640       13.446      611.888      159.764      180.791        0.705        0.048      113.601       14.649        0.017      338.592       11.349      865.023
10/29/2014  22:48:00     -128.421        3.137      -15.493       13.621       10.937        9.462      185.525      119.612       89.537        0.857        0.020      128.459        9.222        0.005      338.708       11.542      865.023
10/29/2014  22:49:00     -103.676        4.724      -15.458       28.129       13.390       12.536      791.253      179.298      157.148        0.607        0.056      103.784       13.644        0.017      338.723       11.569      865.015
10/29/2014  22:50:00      -58.293      -14.228      -10.137       11.807       17.477        9.437      139.406      305.454       89.055        0.212        0.027       60.005        5.578        0.009      338.602       11.364      865.010
10/29/2014  22:51:00      -47.491      -39.694       -5.287       21.358       21.320       15.654      456.178      454.544      245.044        0.251        0.058       61.895        7.231        0.014      338.526       11.238      865.019
10/29/2014  22:52:00      -91.366      -40.664      -10.555       44.498       18.197       20.123     1980.061      331.143      404.932        0.641        0.136      100.007       24.832        0.062      338.389       11.008      865.026
10/29/2014  22:53:00     -115.837      -70.757       -7.749       23.509       21.625       17.378      552.659      467.626      302.003        0.990        0.066      135.738        9.401        0.005      338.367       10.972      865.021
10/29/2014  22:54:00     -129.007      -38.924      -11.490       21.682       25.438       11.515      470.130      647.073      132.600        0.977        0.062      134.751        9.314        0.005      338.296       10.850      865.016
10/29/2014  22:55:00     -128.893      -47.732      -10.651       21.103       13.715       12.112      445.318      188.088      146.706        0.989        0.039      137.447        8.378        0.004      338.329       10.906      865.019
10/29/2014  22:56:00     -148.863      -23.513      -15.760       22.018       14.105       16.538      484.811      198.945      273.508        1.196        0.048      150.708       15.021        0.010      338.324       10.898      865.025
10/29/2014  22:57:00     -125.532      -38.492       -8.037       46.967       29.297       25.102     2205.942      858.328      630.121        1.050        0.185      131.301       22.078        0.028      338.262       10.793      865.021
10/29/2014  22:58:00     -122.046      -45.330       -9.407       24.560       20.437       16.272      603.204      417.670      264.784        0.916        0.064      130.192       12.583        0.009      338.235       10.747      865.030
10/29/2014  22:59:00     -126.834      -37.798       -7.176       27.841       18.833       14.898      775.121      354.691      221.965        0.946        0.068      132.347       13.943        0.011      338.242       10.759      865.033
10/29/2014  23:00:00      -79.198      -25.467        4.119       36.440       25.847       18.586     1327.870      668.086      345.442        0.464        0.117       83.192       18.271        0.048      338.273       10.813      865.022
10/29/2014  23:01:00      -90.958      -27.758        6.375       25.383       23.050       18.057      644.300      531.286      326.069        0.529        0.075       95.099       15.720        0.027      338.283       10.828      865.008
10/29/2014  23:02:00      -99.781      -31.905        4.234       32.548       24.337       17.309     1059.373      592.302      299.614        0.647        0.098      104.758       17.149        0.027      338.307       10.869      865.008
10/29/2014  23:03:00      -94.502      -41.082       -3.080       28.883       19.586       13.561      834.199      383.615      183.899        0.601        0.070      103.046       10.312        0.010      338.353       10.947      865.007
10/29/2014  23:04:00     -114.932      -30.085      -12.068       22.975       15.920       12.235      527.834      253.432      149.706        0.760        0.047      118.804        9.391        0.006      338.323       10.897      865.008
10/29/2014  23:05:00      -92.599      -35.552       -1.891       21.969       19.761       13.404      482.646      390.490      179.677        0.545        0.053       99.189       11.361        0.013      338.331       10.911      865.013
10/29/2014  23:06:00      -80.875      -34.464        2.065       20.596       20.372       12.450      424.194      415.012      155.002        0.436        0.050       87.912       10.969        0.016      338.375       10.984      865.021
10/29/2014  23:07:00      -92.809      -32.103       -3.490       17.488       14.740       11.752      305.838      217.269      138.115        0.516        0.033       98.205       10.638        0.012      338.406       11.037      865.018
10/29/2014  23:08:00      -97.897      -33.467       -7.309       11.878       10.148        7.783      141.091      102.981       60.577        0.553        0.015      103.459        3.904        0.001      338.451       11.112      865.008
10/29/2014  23:09:00     -106.314      -35.128       -9.431       20.436       16.241       10.090      417.646      263.772      101.817        0.670        0.039      111.968        9.567        0.007      338.465       11.136      864.997
10/29/2014  23:10:00     -119.375      -23.983      -15.005       16.429       13.787       11.331      269.914      190.070      128.395        0.782        0.029      121.760        7.075        0.003      338.349       10.939      864.986
10/29/2014  23:11:00     -133.920      -27.723      -15.810       13.894       13.064       12.810      193.032      170.657      164.091        0.974        0.026      136.760        9.176        0.005      338.273       10.811      864.972
10/29/2014  23:12:00     -135.067      -27.759      -20.493       11.367        9.756        9.749      129.198       95.179       95.039        0.988        0.016      137.890        3.067        0.000      338.293       10.844      864.958
10/29/2014  23:13:00     -109.408      -34.655      -10.496       23.124       18.792       14.279      534.716      353.124      203.878        0.719        0.055      114.766       12.328        0.012      338.259       10.788      864.962
10/29/2014  23:14:00     -114.205      -55.054      -10.892       23.843       27.597       13.140      568.474      761.612      172.659        0.885        0.075      126.782        7.156        0.003      338.100       10.522      864.954
10/29/2014  23:15:00      -89.103      -65.050      -12.798       43.678       27.448       27.313     1907.741      753.380      746.001        0.787        0.170      110.322       14.471        0.017      338.149       10.605      864.944
10/29/2014  23:16:00     -147.049      -77.943       -9.993       34.833       25.731       19.722     1213.318      662.087      388.939        1.503        0.113      166.429       13.875        0.007      337.972       10.307      864.957
10/29/2014  23:17:00     -146.000      -51.850       -8.288       34.833       26.573       17.636     1213.333      706.146      311.014        1.315        0.112      154.933       15.615        0.010      337.980       10.322      864.951
10/29/2014  23:18:00     -145.221      -58.117      -11.241       18.976       23.219       11.795      360.094      539.099      139.114        1.282        0.052      156.419        6.590        0.002      338.047       10.432      864.941
10/29/2014  23:19:00     -151.075      -70.875       -7.767       22.453       24.422       19.837      504.131      596.413      393.512        1.470        0.075      166.874       14.025        0.007      338.067       10.467      864.938
10/29/2014  23:20:00      -80.661      -49.158       -1.390       52.604       25.312       23.451     2767.183      640.712      549.950        0.644        0.198       94.460       28.178        0.089      338.020       10.388      864.942
10/29/2014  23:21:00      -71.904      -38.352        5.038       49.842       27.275       24.462     2484.219      743.931      598.406        0.525        0.191       81.493       23.383        0.082      338.030       10.406      864.934
10/29/2014  23:22:00      -76.846      -65.853        2.173       41.742       24.372       15.138     1742.364      593.976      229.162        0.641        0.128      101.202       14.958        0.022      338.150       10.606      864.936
10/29/2014  23:23:00      -83.753      -64.048       -0.675       32.953       31.776       19.728     1085.891     1009.695      389.184        0.680        0.124      105.436       18.929        0.032      338.191       10.674      864.950
10/29/2014  23:24:00      -90.415      -61.958       -7.440       26.654       24.671       17.396      710.462      608.663      302.630        0.685        0.081      109.607       12.714        0.013      338.166       10.633      864.945
10/29/2014  23:25:00      -84.678      -68.322       -4.252       41.657       21.990       21.721     1735.331      483.551      471.789        0.727        0.135      108.804       23.602        0.047      338.188       10.670      864.933
10/29/2014  23:26:00      -92.846      -69.976        1.877       35.105       28.626       18.661     1232.389      819.421      348.229        0.796        0.120      116.263       18.389        0.025      338.150       10.604      864.932
10/29/2014  23:27:00      -82.199      -49.700       12.416       35.975       23.031       22.713     1294.187      530.440      515.875        0.586        0.117       96.056       17.033        0.031      338.115       10.548      864.920
10/29/2014  23:28:00     -119.258      -59.419       -0.730       28.647       22.197       17.179      820.677      492.701      295.127        0.968        0.080      133.240       10.141        0.006      338.171       10.642      864.911
10/29/2014  23:29:00     -116.791      -56.465       -0.301       25.357       24.684       18.303      642.975      609.313      334.996        0.921        0.079      129.725        9.511        0.005      338.104       10.529      864.912
10/29/2014  23:30:00     -122.687      -35.791        1.390       32.052       23.605       18.078     1027.359      557.211      326.814        0.912        0.096      127.801       15.584        0.015      338.034       10.412      864.906
10/29/2014  23:31:00     -134.840      -38.454       -3.124       28.524       22.620       18.465      813.625      511.652      340.961        1.067        0.083      140.216       15.414        0.012      337.990       10.338      864.906
10/29/2014  23:32:00     -150.907      -60.164       -8.577       27.128       25.544       16.976      735.920      652.507      288.189        1.407        0.084      162.458       10.453        0.004      337.999       10.352      864.911
10/29/2014  23:33:00     -154.258      -73.107       -0.558       41.707       29.902       20.471     1739.485      894.108      419.067        1.610        0.153      170.705       15.874        0.009      337.940       10.254      864.902
10/29/2014  23:34:00     -156.088      -58.812       -9.478       21.558       22.920       17.590      464.769      525.315      309.408        1.461        0.065      166.800        6.066        0.001      337.928       10.234      864.895
10/29/2014  23:35:00     -132.812      -42.706      -13.275       25.181       21.233       17.183      634.084      450.859      295.267        1.051        0.069      139.509       12.318        0.008      337.848       10.099      864.897
10/29/2014  23:36:00     -133.495      -45.860       -3.647       24.124       25.911       17.816      581.986      671.359      317.410        1.075        0.079      141.153       13.158        0.009      337.778        9.981      864.890
10/29/2014  23:37:00     -134.474      -35.376       -3.725       34.411       31.183       21.669     1184.122      972.410      469.565        1.099        0.131      139.049       23.399        0.028      337.761        9.954      864.893
10/29/2014  23:38:00     -116.227      -24.956        3.442       46.350       35.328       21.648     2148.312     1248.042      468.615        0.900        0.193      118.876       21.686        0.033      337.719        9.882      864.893
10/29/2014  23:39:00     -155.274      -19.284      -14.258       47.046       28.670       23.493     2213.294      821.998      551.927        1.414        0.179      156.467       23.700        0.023      337.762        9.955      864.904
10/29/2014  23:40:00     -169.953       -3.491      -12.843       53.693       34.994       31.037     2882.916     1224.568      963.309        1.707        0.254      169.989       33.128        0.038      337.740        9.917      864.896
10/29/2014  23:41:00     -170.176      -13.116      -17.611       55.394       38.107       29.322     3068.447     1452.154      859.804        1.741        0.269      170.681       25.138        0.022      337.804       10.026      864.893
10/29/2014  23:42:00     -121.744      -22.022       -6.233       52.781       35.311       27.251     2785.811     1246.899      742.594        1.006        0.239      123.720       28.416        0.053      337.804       10.025      864.899
10/29/2014  23:43:00     -126.079      -31.723       -8.302       40.098       37.938       22.269     1607.866     1439.301      495.923        1.026        0.177      130.009       20.189        0.024      337.757        9.947      864.897
10/29/2014  23:44:00     -140.978       -5.498      -12.522       67.057       48.725       25.867     4496.698     2374.108      669.115        1.380        0.377      141.086       27.352        0.038      337.787        9.995      864.896
10/29/2014  23:45:00     -181.518       30.845      -17.796       41.600       37.110       32.036     1730.546     1377.147     1026.333        1.917        0.207      184.120       24.566        0.018      337.919       10.218      864.904
10/29/2014  23:46:00     -150.770        3.838      -12.155       42.033       53.475       27.296     1766.801     2859.554      745.097        1.413        0.269      150.819       24.502        0.026      337.976       10.315      864.913
10/29/2014  23:47:00     -140.849      -15.567      -10.591       39.827       42.972       28.101     1586.188     1846.629      789.665        1.221        0.211      141.707       24.182        0.029      337.933       10.241      864.908
10/29/2014  23:48:00     -167.353      -59.579       -4.151       37.027       36.626       25.304     1370.998     1341.429      640.288        1.746        0.168      177.642       17.240        0.009      337.961       10.288      864.900
10/29/2014  23:49:00     -120.049      -21.066        0.224       44.528       50.493       21.806     1982.740     2549.584      475.507        0.993        0.250      121.883       14.413        0.014      337.855       10.110      864.894
10/29/2014  23:50:00     -157.180      -26.583      -14.819       47.523       26.884       18.914     2258.476      722.725      357.736        1.448        0.167      159.413       23.070        0.021      337.885       10.162      864.887
10/29/2014  23:51:00     -100.071      -25.184       -3.425       46.056       34.037       22.380     2121.173     1158.514      500.871        0.722        0.189      103.192       22.600        0.048      337.889       10.167      864.868
10/29/2014  23:52:00     -110.624      -26.421       -8.624       37.146       33.290       18.439     1379.822     1108.196      340.001        0.792        0.141      113.736       16.148        0.020      337.947       10.265      864.850
10/29/2014  23:53:00      -48.455      -52.657       -1.241       43.874       47.914       20.761     1924.918     2295.720      431.009        0.489        0.233       71.558       20.715        0.084      337.921       10.222      864.847
10/29/2014  23:54:00      -29.509      -13.090        1.729       37.051       16.406       20.721     1372.786      269.152      429.342        0.156        0.104       32.282       17.941        0.309      337.901       10.188      864.834
10/29/2014  23:55:00      -59.962      -11.832      -12.587       30.363       21.108       15.836      921.931      445.565      250.784        0.276        0.081       61.119        8.689        0.020      337.988       10.335      864.828
10/29/2014  23:56:00      -70.287      -28.253      -14.323       25.552       15.680       16.170      652.889      245.851      261.479        0.355        0.058       75.753        8.539        0.013      337.987       10.333      864.834
10/29/2014  23:57:00      -61.432      -24.703       -0.768       28.924       17.914       17.331      836.577      320.896      300.362        0.292        0.073       66.213       11.594        0.031      337.907       10.199      864.831
10/29/2014  23:58:00      -10.457      -19.192       10.924       22.214       25.427       23.670      493.475      646.531      560.285        0.115        0.085       21.856       15.213        0.485      337.850       10.104      864.824
10/29/2014  23:59:00      -72.601      -43.776       -4.187       57.195       35.791       26.396     3271.215     1281.029      696.745        0.623        0.262       84.778       32.575        0.148      337.937       10.249      864.825
